<?xml version="1.0" encoding="UTF-8" standalone="no" ?>
<gpx xmlns="http://www.topografix.com/GPX/1/1" xmlns:xsi="http://www.w3.org/2001/XMLSchema-instance" xsi:schemaLocation="http://www.topografix.com/GPX/1/1 http://www.topografix.com/GPX/1/1/gpx.xsd" version="1.1" creator="VisuGPX - https://www.visugpx.com">
  <metadata>
    <name>Enduro Roc Canyon 2012</name>
    <desc><![CDATA[Enduro du Roc d\'Azur]]></desc>
  </metadata>
  <trk>
    <name><![CDATA[Enduro Roc]]></name>
    <cmt><![CDATA[Enduro Roc avec Stéf et Seb (plus le Seb de 1001sentiers).
Bonne petit journée de ride, bonne arsouille, temps correct, baignade à l'arrivée, et balade au salon. Le top !]]></cmt>
    <trkseg>
      <trkpt lat="43.39781" lon="6.63251">
        <ele>329.71228027344</ele>
        <time>2012-10-11T08:30:45Z</time>
      </trkpt>
      <trkpt lat="43.39793" lon="6.63224">
        <ele>328.89025878906</ele>
        <time>2012-10-11T08:30:53Z</time>
      </trkpt>
      <trkpt lat="43.39806" lon="6.63201">
        <ele>329.63238525391</ele>
        <time>2012-10-11T08:31:00Z</time>
      </trkpt>
      <trkpt lat="43.39816" lon="6.63172">
        <ele>328.79733276367</ele>
        <time>2012-10-11T08:31:08Z</time>
      </trkpt>
      <trkpt lat="43.39823" lon="6.63142">
        <ele>326.9482421875</ele>
        <time>2012-10-11T08:31:16Z</time>
      </trkpt>
      <trkpt lat="43.39834" lon="6.63113">
        <ele>321.54211425781</ele>
        <time>2012-10-11T08:31:24Z</time>
      </trkpt>
      <trkpt lat="43.39848" lon="6.63076">
        <ele>324.51406860352</ele>
        <time>2012-10-11T08:31:34Z</time>
      </trkpt>
      <trkpt lat="43.39855" lon="6.63048">
        <ele>325.23196411133</ele>
        <time>2012-10-11T08:31:41Z</time>
      </trkpt>
      <trkpt lat="43.39864" lon="6.63017">
        <ele>328.94445800781</ele>
        <time>2012-10-11T08:31:49Z</time>
      </trkpt>
      <trkpt lat="43.3987" lon="6.62989">
        <ele>331.19342041016</ele>
        <time>2012-10-11T08:31:56Z</time>
      </trkpt>
      <trkpt lat="43.39879" lon="6.6296">
        <ele>334.88284301758</ele>
        <time>2012-10-11T08:32:04Z</time>
      </trkpt>
      <trkpt lat="43.39895" lon="6.62928">
        <ele>343.12307739258</ele>
        <time>2012-10-11T08:32:13Z</time>
      </trkpt>
      <trkpt lat="43.39909" lon="6.62904">
        <ele>353.68878173828</ele>
        <time>2012-10-11T08:32:20Z</time>
      </trkpt>
      <trkpt lat="43.39923" lon="6.62876">
        <ele>358.23419189453</ele>
        <time>2012-10-11T08:32:28Z</time>
      </trkpt>
      <trkpt lat="43.39935" lon="6.62858">
        <ele>358.275390625</ele>
        <time>2012-10-11T08:32:34Z</time>
      </trkpt>
      <trkpt lat="43.39958" lon="6.62823">
        <ele>369.69122314453</ele>
        <time>2012-10-11T08:32:45Z</time>
      </trkpt>
      <trkpt lat="43.39981" lon="6.62787">
        <ele>386.60394287109</ele>
        <time>2012-10-11T08:32:56Z</time>
      </trkpt>
      <trkpt lat="43.39994" lon="6.62758">
        <ele>387.82110595703</ele>
        <time>2012-10-11T08:33:04Z</time>
      </trkpt>
      <trkpt lat="43.40006" lon="6.62736">
        <ele>385.81726074219</ele>
        <time>2012-10-11T08:33:10Z</time>
      </trkpt>
      <trkpt lat="43.40022" lon="6.62708">
        <ele>380.51327514648</ele>
        <time>2012-10-11T08:33:18Z</time>
      </trkpt>
      <trkpt lat="43.40044" lon="6.6268">
        <ele>376.61019897461</ele>
        <time>2012-10-11T08:33:27Z</time>
      </trkpt>
      <trkpt lat="43.40066" lon="6.62651">
        <ele>371.36541748047</ele>
        <time>2012-10-11T08:33:36Z</time>
      </trkpt>
      <trkpt lat="43.40084" lon="6.62626">
        <ele>363.96200561523</ele>
        <time>2012-10-11T08:33:44Z</time>
      </trkpt>
      <trkpt lat="43.40109" lon="6.62596">
        <ele>357.69537353516</ele>
        <time>2012-10-11T08:33:54Z</time>
      </trkpt>
      <trkpt lat="43.40134" lon="6.62573">
        <ele>362.50604248047</ele>
        <time>2012-10-11T08:34:03Z</time>
      </trkpt>
      <trkpt lat="43.40165" lon="6.62547">
        <ele>361.6103515625</ele>
        <time>2012-10-11T08:34:14Z</time>
      </trkpt>
      <trkpt lat="43.40191" lon="6.62527">
        <ele>369.45413208008</ele>
        <time>2012-10-11T08:34:23Z</time>
      </trkpt>
      <trkpt lat="43.40213" lon="6.62508">
        <ele>375.62594604492</ele>
        <time>2012-10-11T08:34:31Z</time>
      </trkpt>
      <trkpt lat="43.40234" lon="6.62488">
        <ele>377.85723876953</ele>
        <time>2012-10-11T08:34:39Z</time>
      </trkpt>
      <trkpt lat="43.40254" lon="6.62472">
        <ele>381.73052978516</ele>
        <time>2012-10-11T08:34:46Z</time>
      </trkpt>
      <trkpt lat="43.40283" lon="6.62447">
        <ele>388.06915283203</ele>
        <time>2012-10-11T08:34:56Z</time>
      </trkpt>
      <trkpt lat="43.40303" lon="6.62424">
        <ele>391.48092651367</ele>
        <time>2012-10-11T08:35:04Z</time>
      </trkpt>
      <trkpt lat="43.40319" lon="6.62394">
        <ele>388.6506652832</ele>
        <time>2012-10-11T08:35:12Z</time>
      </trkpt>
      <trkpt lat="43.40337" lon="6.62368">
        <ele>389.48568725586</ele>
        <time>2012-10-11T08:35:20Z</time>
      </trkpt>
      <trkpt lat="43.4035" lon="6.62346">
        <ele>389.27719116211</ele>
        <time>2012-10-11T08:35:26Z</time>
      </trkpt>
      <trkpt lat="43.40354" lon="6.62324">
        <ele>384.88470458984</ele>
        <time>2012-10-11T08:35:31Z</time>
      </trkpt>
      <trkpt lat="43.40357" lon="6.62281">
        <ele>376.83511352539</ele>
        <time>2012-10-11T08:35:40Z</time>
      </trkpt>
      <trkpt lat="43.40361" lon="6.62239">
        <ele>368.72009277344</ele>
        <time>2012-10-11T08:35:49Z</time>
      </trkpt>
      <trkpt lat="43.40365" lon="6.62216">
        <ele>368.2467956543</ele>
        <time>2012-10-11T08:35:55Z</time>
      </trkpt>
      <trkpt lat="43.40373" lon="6.62204">
        <ele>372.47039794922</ele>
        <time>2012-10-11T08:36:00Z</time>
      </trkpt>
      <trkpt lat="43.40379" lon="6.62189">
        <ele>375.99530029297</ele>
        <time>2012-10-11T08:36:05Z</time>
      </trkpt>
      <trkpt lat="43.4039" lon="6.62181">
        <ele>381.62933349609</ele>
        <time>2012-10-11T08:36:10Z</time>
      </trkpt>
      <trkpt lat="43.40392" lon="6.62182">
        <ele>381.77523803711</ele>
        <time>2012-10-11T08:36:11Z</time>
      </trkpt>
      <trkpt lat="43.40393" lon="6.62185">
        <ele>381.7082824707</ele>
        <time>2012-10-11T08:36:13Z</time>
      </trkpt>
      <trkpt lat="43.40395" lon="6.62187">
        <ele>381.8095703125</ele>
        <time>2012-10-11T08:36:19Z</time>
      </trkpt>
      <trkpt lat="43.40396" lon="6.62191">
        <ele>381.60873413086</ele>
        <time>2012-10-11T08:36:33Z</time>
      </trkpt>
      <trkpt lat="43.40396" lon="6.62195">
        <ele>381.23892211914</ele>
        <time>2012-10-11T08:36:39Z</time>
      </trkpt>
      <trkpt lat="43.40396" lon="6.622">
        <ele>381.52087402344</ele>
        <time>2012-10-11T08:37:05Z</time>
      </trkpt>
      <trkpt lat="43.404" lon="6.62203">
        <ele>382.26907348633</ele>
        <time>2012-10-11T08:37:12Z</time>
      </trkpt>
      <trkpt lat="43.40404" lon="6.62205">
        <ele>383.38168334961</ele>
        <time>2012-10-11T08:37:20Z</time>
      </trkpt>
      <trkpt lat="43.40407" lon="6.6221">
        <ele>384.29959106445</ele>
        <time>2012-10-11T08:37:29Z</time>
      </trkpt>
      <trkpt lat="43.40407" lon="6.62214">
        <ele>384.61505126953</ele>
        <time>2012-10-11T08:37:35Z</time>
      </trkpt>
      <trkpt lat="43.40406" lon="6.62221">
        <ele>384.71801757812</ele>
        <time>2012-10-11T08:37:43Z</time>
      </trkpt>
      <trkpt lat="43.40405" lon="6.62226">
        <ele>385.25759887695</ele>
        <time>2012-10-11T08:37:51Z</time>
      </trkpt>
      <trkpt lat="43.40406" lon="6.62229">
        <ele>386.10147094727</ele>
        <time>2012-10-11T08:37:57Z</time>
      </trkpt>
      <trkpt lat="43.40409" lon="6.62233">
        <ele>387.35888671875</ele>
        <time>2012-10-11T08:38:04Z</time>
      </trkpt>
      <trkpt lat="43.40413" lon="6.62238">
        <ele>389.20236206055</ele>
        <time>2012-10-11T08:38:13Z</time>
      </trkpt>
      <trkpt lat="43.40414" lon="6.62245">
        <ele>390.43902587891</ele>
        <time>2012-10-11T08:38:21Z</time>
      </trkpt>
      <trkpt lat="43.40414" lon="6.6225">
        <ele>391.20062255859</ele>
        <time>2012-10-11T08:38:29Z</time>
      </trkpt>
      <trkpt lat="43.40415" lon="6.62255">
        <ele>392.34652709961</ele>
        <time>2012-10-11T08:38:36Z</time>
      </trkpt>
      <trkpt lat="43.40417" lon="6.62259">
        <ele>393.72885131836</ele>
        <time>2012-10-11T08:38:44Z</time>
      </trkpt>
      <trkpt lat="43.4042" lon="6.62264">
        <ele>395.0361328125</ele>
        <time>2012-10-11T08:38:51Z</time>
      </trkpt>
      <trkpt lat="43.40422" lon="6.62269">
        <ele>396.10006713867</ele>
        <time>2012-10-11T08:38:56Z</time>
      </trkpt>
      <trkpt lat="43.40422" lon="6.62276">
        <ele>397.27252197266</ele>
        <time>2012-10-11T08:39:04Z</time>
      </trkpt>
      <trkpt lat="43.40423" lon="6.62279">
        <ele>397.90524291992</ele>
        <time>2012-10-11T08:39:09Z</time>
      </trkpt>
      <trkpt lat="43.40422" lon="6.62286">
        <ele>398.70355224609</ele>
        <time>2012-10-11T08:39:17Z</time>
      </trkpt>
      <trkpt lat="43.40421" lon="6.62293">
        <ele>399.36651611328</ele>
        <time>2012-10-11T08:39:25Z</time>
      </trkpt>
      <trkpt lat="43.40419" lon="6.623">
        <ele>399.78787231445</ele>
        <time>2012-10-11T08:39:33Z</time>
      </trkpt>
      <trkpt lat="43.40417" lon="6.62308">
        <ele>400.89324951172</ele>
        <time>2012-10-11T08:39:41Z</time>
      </trkpt>
      <trkpt lat="43.4042" lon="6.62311">
        <ele>402.79180908203</ele>
        <time>2012-10-11T08:39:49Z</time>
      </trkpt>
      <trkpt lat="43.40423" lon="6.62312">
        <ele>403.67761230469</ele>
        <time>2012-10-11T08:39:54Z</time>
      </trkpt>
      <trkpt lat="43.40424" lon="6.62319">
        <ele>406.56494140625</ele>
        <time>2012-10-11T08:40:04Z</time>
      </trkpt>
      <trkpt lat="43.40426" lon="6.62323">
        <ele>408.25067138672</ele>
        <time>2012-10-11T08:40:11Z</time>
      </trkpt>
      <trkpt lat="43.40428" lon="6.62325">
        <ele>409.55529785156</ele>
        <time>2012-10-11T08:40:23Z</time>
      </trkpt>
      <trkpt lat="43.40429" lon="6.62325">
        <ele>409.57586669922</ele>
        <time>2012-10-11T08:40:30Z</time>
      </trkpt>
      <trkpt lat="43.40433" lon="6.62327">
        <ele>411.34399414062</ele>
        <time>2012-10-11T08:40:36Z</time>
      </trkpt>
      <trkpt lat="43.40435" lon="6.62331">
        <ele>413.19793701172</ele>
        <time>2012-10-11T08:40:42Z</time>
      </trkpt>
      <trkpt lat="43.40435" lon="6.62338">
        <ele>415.68533325195</ele>
        <time>2012-10-11T08:40:53Z</time>
      </trkpt>
      <trkpt lat="43.40434" lon="6.62344">
        <ele>417.2366027832</ele>
        <time>2012-10-11T08:40:58Z</time>
      </trkpt>
      <trkpt lat="43.40434" lon="6.62346">
        <ele>418.07052612305</ele>
        <time>2012-10-11T08:41:00Z</time>
      </trkpt>
      <trkpt lat="43.40435" lon="6.62351">
        <ele>419.86019897461</ele>
        <time>2012-10-11T08:41:05Z</time>
      </trkpt>
      <trkpt lat="43.40434" lon="6.62352">
        <ele>420.23678588867</ele>
        <time>2012-10-11T08:41:06Z</time>
      </trkpt>
      <trkpt lat="43.40434" lon="6.62357">
        <ele>421.69351196289</ele>
        <time>2012-10-11T08:41:10Z</time>
      </trkpt>
      <trkpt lat="43.40435" lon="6.62359">
        <ele>422.64312744141</ele>
        <time>2012-10-11T08:41:13Z</time>
      </trkpt>
      <trkpt lat="43.40437" lon="6.62361">
        <ele>423.43167114258</ele>
        <time>2012-10-11T08:41:16Z</time>
      </trkpt>
      <trkpt lat="43.4044" lon="6.62364">
        <ele>424.58798217773</ele>
        <time>2012-10-11T08:41:22Z</time>
      </trkpt>
      <trkpt lat="43.40439" lon="6.62368">
        <ele>425.07592773438</ele>
        <time>2012-10-11T08:41:29Z</time>
      </trkpt>
      <trkpt lat="43.4044" lon="6.62374">
        <ele>426.32855224609</ele>
        <time>2012-10-11T08:41:38Z</time>
      </trkpt>
      <trkpt lat="43.40443" lon="6.6238">
        <ele>428.0950012207</ele>
        <time>2012-10-11T08:41:45Z</time>
      </trkpt>
      <trkpt lat="43.40446" lon="6.62383">
        <ele>429.29193115234</ele>
        <time>2012-10-11T08:41:49Z</time>
      </trkpt>
      <trkpt lat="43.40449" lon="6.62385">
        <ele>430.47125244141</ele>
        <time>2012-10-11T08:41:54Z</time>
      </trkpt>
      <trkpt lat="43.4045" lon="6.62387">
        <ele>431.20767211914</ele>
        <time>2012-10-11T08:41:59Z</time>
      </trkpt>
      <trkpt lat="43.40451" lon="6.6239">
        <ele>432.02484130859</ele>
        <time>2012-10-11T08:42:06Z</time>
      </trkpt>
      <trkpt lat="43.40448" lon="6.62393">
        <ele>431.96209716797</ele>
        <time>2012-10-11T08:42:14Z</time>
      </trkpt>
      <trkpt lat="43.40453" lon="6.62407">
        <ele>436.3024597168</ele>
        <time>2012-10-11T08:42:38Z</time>
      </trkpt>
      <trkpt lat="43.40452" lon="6.6241">
        <ele>436.80947875977</ele>
        <time>2012-10-11T08:42:42Z</time>
      </trkpt>
      <trkpt lat="43.40454" lon="6.62416">
        <ele>438.48077392578</ele>
        <time>2012-10-11T08:42:49Z</time>
      </trkpt>
      <trkpt lat="43.40456" lon="6.62421">
        <ele>439.55862426758</ele>
        <time>2012-10-11T08:42:56Z</time>
      </trkpt>
      <trkpt lat="43.40456" lon="6.62425">
        <ele>439.95858764648</ele>
        <time>2012-10-11T08:43:03Z</time>
      </trkpt>
      <trkpt lat="43.40456" lon="6.62428">
        <ele>440.39974975586</ele>
        <time>2012-10-11T08:43:15Z</time>
      </trkpt>
      <trkpt lat="43.40456" lon="6.62427">
        <ele>440.12338256836</ele>
        <time>2012-10-11T08:43:28Z</time>
      </trkpt>
      <trkpt lat="43.40457" lon="6.62429">
        <ele>440.51477050781</ele>
        <time>2012-10-11T08:43:36Z</time>
      </trkpt>
      <trkpt lat="43.40457" lon="6.6243">
        <ele>440.62805175781</ele>
        <time>2012-10-11T08:43:55Z</time>
      </trkpt>
      <trkpt lat="43.40457" lon="6.62433">
        <ele>440.9833984375</ele>
        <time>2012-10-11T08:44:00Z</time>
      </trkpt>
      <trkpt lat="43.40458" lon="6.62435">
        <ele>441.33187866211</ele>
        <time>2012-10-11T08:44:08Z</time>
      </trkpt>
      <trkpt lat="43.40458" lon="6.62438">
        <ele>441.62026977539</ele>
        <time>2012-10-11T08:44:15Z</time>
      </trkpt>
      <trkpt lat="43.40459" lon="6.62444">
        <ele>442.48544311523</ele>
        <time>2012-10-11T08:44:21Z</time>
      </trkpt>
      <trkpt lat="43.40462" lon="6.62447">
        <ele>443.30841064453</ele>
        <time>2012-10-11T08:44:25Z</time>
      </trkpt>
      <trkpt lat="43.40462" lon="6.62448">
        <ele>443.50430297852</ele>
        <time>2012-10-11T08:44:28Z</time>
      </trkpt>
      <trkpt lat="43.40463" lon="6.62452">
        <ele>443.94906616211</ele>
        <time>2012-10-11T08:44:33Z</time>
      </trkpt>
      <trkpt lat="43.40463" lon="6.62455">
        <ele>444.28787231445</ele>
        <time>2012-10-11T08:44:45Z</time>
      </trkpt>
      <trkpt lat="43.40464" lon="6.62457">
        <ele>444.59927368164</ele>
        <time>2012-10-11T08:45:02Z</time>
      </trkpt>
      <trkpt lat="43.40462" lon="6.62458">
        <ele>444.18307495117</ele>
        <time>2012-10-11T08:45:11Z</time>
      </trkpt>
      <trkpt lat="43.40462" lon="6.62458">
        <ele>444.18307495117</ele>
        <time>2012-10-11T08:45:17Z</time>
      </trkpt>
      <trkpt lat="43.40462" lon="6.62457">
        <ele>444.29135131836</ele>
        <time>2012-10-11T08:46:05Z</time>
      </trkpt>
      <trkpt lat="43.40466" lon="6.62493">
        <ele>447.4826965332</ele>
        <time>2012-10-11T08:49:13Z</time>
      </trkpt>
      <trkpt lat="43.40466" lon="6.62492">
        <ele>447.45028686523</ele>
        <time>2012-10-11T08:49:40Z</time>
      </trkpt>
      <trkpt lat="43.40465" lon="6.62492">
        <ele>447.29202270508</ele>
        <time>2012-10-11T08:50:07Z</time>
      </trkpt>
      <trkpt lat="43.40465" lon="6.62492">
        <ele>447.29202270508</ele>
        <time>2012-10-11T08:50:07Z</time>
      </trkpt>
      <trkpt lat="43.40456" lon="6.62498">
        <ele>445.83963012695</ele>
        <time>2012-10-11T08:50:35Z</time>
      </trkpt>
      <trkpt lat="43.40431" lon="6.62514">
        <ele>441.86434936523</ele>
        <time>2012-10-11T08:50:39Z</time>
      </trkpt>
      <trkpt lat="43.40406" lon="6.62527">
        <ele>438.10610961914</ele>
        <time>2012-10-11T08:50:43Z</time>
      </trkpt>
      <trkpt lat="43.40401" lon="6.6253">
        <ele>436.86862182617</ele>
        <time>2012-10-11T08:50:44Z</time>
      </trkpt>
      <trkpt lat="43.40382" lon="6.62547">
        <ele>431.18240356445</ele>
        <time>2012-10-11T08:50:47Z</time>
      </trkpt>
      <trkpt lat="43.40368" lon="6.62557">
        <ele>427.87161254883</ele>
        <time>2012-10-11T08:50:49Z</time>
      </trkpt>
      <trkpt lat="43.40356" lon="6.62566">
        <ele>425.56805419922</ele>
        <time>2012-10-11T08:50:51Z</time>
      </trkpt>
      <trkpt lat="43.40344" lon="6.62578">
        <ele>423.46130371094</ele>
        <time>2012-10-11T08:50:53Z</time>
      </trkpt>
      <trkpt lat="43.40335" lon="6.62587">
        <ele>422.22024536133</ele>
        <time>2012-10-11T08:50:55Z</time>
      </trkpt>
      <trkpt lat="43.40332" lon="6.62588">
        <ele>422</ele>
        <time>2012-10-11T08:50:56Z</time>
      </trkpt>
      <trkpt lat="43.40323" lon="6.62589">
        <ele>422</ele>
        <time>2012-10-11T08:50:58Z</time>
      </trkpt>
      <trkpt lat="43.40318" lon="6.62593">
        <ele>422</ele>
        <time>2012-10-11T08:51:01Z</time>
      </trkpt>
      <trkpt lat="43.40318" lon="6.62595">
        <ele>422</ele>
        <time>2012-10-11T08:51:03Z</time>
      </trkpt>
      <trkpt lat="43.40318" lon="6.62597">
        <ele>422</ele>
        <time>2012-10-11T08:51:04Z</time>
      </trkpt>
      <trkpt lat="43.40315" lon="6.62607">
        <ele>422</ele>
        <time>2012-10-11T08:51:10Z</time>
      </trkpt>
      <trkpt lat="43.40314" lon="6.62608">
        <ele>422</ele>
        <time>2012-10-11T08:51:11Z</time>
      </trkpt>
      <trkpt lat="43.4031" lon="6.6261">
        <ele>422</ele>
        <time>2012-10-11T08:51:13Z</time>
      </trkpt>
      <trkpt lat="43.40307" lon="6.62608">
        <ele>422</ele>
        <time>2012-10-11T08:51:14Z</time>
      </trkpt>
      <trkpt lat="43.40298" lon="6.62606">
        <ele>421.71716308594</ele>
        <time>2012-10-11T08:51:17Z</time>
      </trkpt>
      <trkpt lat="43.40292" lon="6.62603">
        <ele>421.51116943359</ele>
        <time>2012-10-11T08:51:19Z</time>
      </trkpt>
      <trkpt lat="43.40288" lon="6.62605">
        <ele>421.37384033203</ele>
        <time>2012-10-11T08:51:20Z</time>
      </trkpt>
      <trkpt lat="43.40275" lon="6.62608">
        <ele>420.41317749023</ele>
        <time>2012-10-11T08:51:24Z</time>
      </trkpt>
      <trkpt lat="43.4026" lon="6.62614">
        <ele>416.84558105469</ele>
        <time>2012-10-11T08:51:27Z</time>
      </trkpt>
      <trkpt lat="43.40249" lon="6.62617">
        <ele>413.99273681641</ele>
        <time>2012-10-11T08:51:29Z</time>
      </trkpt>
      <trkpt lat="43.4024" lon="6.6262">
        <ele>411.07489013672</ele>
        <time>2012-10-11T08:51:31Z</time>
      </trkpt>
      <trkpt lat="43.40227" lon="6.62628">
        <ele>407.26379394531</ele>
        <time>2012-10-11T08:51:34Z</time>
      </trkpt>
      <trkpt lat="43.40216" lon="6.62631">
        <ele>405.05133056641</ele>
        <time>2012-10-11T08:51:36Z</time>
      </trkpt>
      <trkpt lat="43.4021" lon="6.62635">
        <ele>404.17666625977</ele>
        <time>2012-10-11T08:51:37Z</time>
      </trkpt>
      <trkpt lat="43.40203" lon="6.6264">
        <ele>403.31091308594</ele>
        <time>2012-10-11T08:51:38Z</time>
      </trkpt>
      <trkpt lat="43.4019" lon="6.62649">
        <ele>402.1667175293</ele>
        <time>2012-10-11T08:51:41Z</time>
      </trkpt>
      <trkpt lat="43.40186" lon="6.62654">
        <ele>402.2360534668</ele>
        <time>2012-10-11T08:51:42Z</time>
      </trkpt>
      <trkpt lat="43.4018" lon="6.62658">
        <ele>402.35781860352</ele>
        <time>2012-10-11T08:51:43Z</time>
      </trkpt>
      <trkpt lat="43.40165" lon="6.62669">
        <ele>403.02691650391</ele>
        <time>2012-10-11T08:51:46Z</time>
      </trkpt>
      <trkpt lat="43.40152" lon="6.62671">
        <ele>401.8681640625</ele>
        <time>2012-10-11T08:51:49Z</time>
      </trkpt>
      <trkpt lat="43.40147" lon="6.62683">
        <ele>402.5456237793</ele>
        <time>2012-10-11T08:51:52Z</time>
      </trkpt>
      <trkpt lat="43.40136" lon="6.62699">
        <ele>403.2373046875</ele>
        <time>2012-10-11T08:51:55Z</time>
      </trkpt>
      <trkpt lat="43.40129" lon="6.62714">
        <ele>404.59823608398</ele>
        <time>2012-10-11T08:51:58Z</time>
      </trkpt>
      <trkpt lat="43.40118" lon="6.62713">
        <ele>402.48812866211</ele>
        <time>2012-10-11T08:52:01Z</time>
      </trkpt>
      <trkpt lat="43.4011" lon="6.62726">
        <ele>403.6393737793</ele>
        <time>2012-10-11T08:52:04Z</time>
      </trkpt>
      <trkpt lat="43.40107" lon="6.62741">
        <ele>406.65209960938</ele>
        <time>2012-10-11T08:52:08Z</time>
      </trkpt>
      <trkpt lat="43.40103" lon="6.62748">
        <ele>407.55651855469</ele>
        <time>2012-10-11T08:52:11Z</time>
      </trkpt>
      <trkpt lat="43.40103" lon="6.62748">
        <ele>407.37954711914</ele>
        <time>2012-10-11T08:52:12Z</time>
      </trkpt>
      <trkpt lat="43.40103" lon="6.62752">
        <ele>408.10131835938</ele>
        <time>2012-10-11T08:52:16Z</time>
      </trkpt>
      <trkpt lat="43.40103" lon="6.62754">
        <ele>408.25238037109</ele>
        <time>2012-10-11T08:52:17Z</time>
      </trkpt>
      <trkpt lat="43.40102" lon="6.62762">
        <ele>408.99566650391</ele>
        <time>2012-10-11T08:52:21Z</time>
      </trkpt>
      <trkpt lat="43.40091" lon="6.62769">
        <ele>408.2060546875</ele>
        <time>2012-10-11T08:52:25Z</time>
      </trkpt>
      <trkpt lat="43.4009" lon="6.62778">
        <ele>408.978515625</ele>
        <time>2012-10-11T08:52:28Z</time>
      </trkpt>
      <trkpt lat="43.40087" lon="6.62786">
        <ele>409.79763793945</ele>
        <time>2012-10-11T08:52:32Z</time>
      </trkpt>
      <trkpt lat="43.40077" lon="6.6279">
        <ele>408.79580688477</ele>
        <time>2012-10-11T08:52:35Z</time>
      </trkpt>
      <trkpt lat="43.40073" lon="6.62801">
        <ele>409.49688720703</ele>
        <time>2012-10-11T08:52:39Z</time>
      </trkpt>
      <trkpt lat="43.40064" lon="6.62813">
        <ele>409.17462158203</ele>
        <time>2012-10-11T08:52:42Z</time>
      </trkpt>
      <trkpt lat="43.40063" lon="6.62817">
        <ele>409.33599853516</ele>
        <time>2012-10-11T08:52:43Z</time>
      </trkpt>
      <trkpt lat="43.4006" lon="6.62826">
        <ele>409.41088867188</ele>
        <time>2012-10-11T08:52:45Z</time>
      </trkpt>
      <trkpt lat="43.40055" lon="6.62834">
        <ele>409.07894897461</ele>
        <time>2012-10-11T08:52:48Z</time>
      </trkpt>
      <trkpt lat="43.40055" lon="6.62837">
        <ele>409.33618164062</ele>
        <time>2012-10-11T08:52:50Z</time>
      </trkpt>
      <trkpt lat="43.40057" lon="6.6284">
        <ele>409.93264770508</ele>
        <time>2012-10-11T08:52:52Z</time>
      </trkpt>
      <trkpt lat="43.40052" lon="6.62854">
        <ele>410.44955444336</ele>
        <time>2012-10-11T08:52:56Z</time>
      </trkpt>
      <trkpt lat="43.40046" lon="6.62871">
        <ele>410.95550537109</ele>
        <time>2012-10-11T08:53:00Z</time>
      </trkpt>
      <trkpt lat="43.4004" lon="6.62888">
        <ele>411.54776000977</ele>
        <time>2012-10-11T08:53:04Z</time>
      </trkpt>
      <trkpt lat="43.40038" lon="6.62898">
        <ele>411.61502075195</ele>
        <time>2012-10-11T08:53:07Z</time>
      </trkpt>
      <trkpt lat="43.40037" lon="6.62902">
        <ele>411.40902709961</ele>
        <time>2012-10-11T08:53:08Z</time>
      </trkpt>
      <trkpt lat="43.40035" lon="6.62909">
        <ele>411.24078369141</ele>
        <time>2012-10-11T08:53:10Z</time>
      </trkpt>
      <trkpt lat="43.40034" lon="6.62915">
        <ele>411.30773925781</ele>
        <time>2012-10-11T08:53:12Z</time>
      </trkpt>
      <trkpt lat="43.40031" lon="6.62923">
        <ele>410.4694519043</ele>
        <time>2012-10-11T08:53:14Z</time>
      </trkpt>
      <trkpt lat="43.40027" lon="6.62932">
        <ele>409.29647827148</ele>
        <time>2012-10-11T08:53:17Z</time>
      </trkpt>
      <trkpt lat="43.40022" lon="6.62951">
        <ele>407.92419433594</ele>
        <time>2012-10-11T08:53:21Z</time>
      </trkpt>
      <trkpt lat="43.4002" lon="6.6296">
        <ele>407.25988769531</ele>
        <time>2012-10-11T08:53:23Z</time>
      </trkpt>
      <trkpt lat="43.4002" lon="6.62965">
        <ele>407.08306884766</ele>
        <time>2012-10-11T08:53:24Z</time>
      </trkpt>
      <trkpt lat="43.40018" lon="6.62976">
        <ele>406.46810913086</ele>
        <time>2012-10-11T08:53:26Z</time>
      </trkpt>
      <trkpt lat="43.40011" lon="6.62981">
        <ele>405.48483276367</ele>
        <time>2012-10-11T08:53:28Z</time>
      </trkpt>
      <trkpt lat="43.40008" lon="6.62991">
        <ele>404.98141479492</ele>
        <time>2012-10-11T08:53:31Z</time>
      </trkpt>
      <trkpt lat="43.40001" lon="6.63007">
        <ele>403.90106201172</ele>
        <time>2012-10-11T08:53:34Z</time>
      </trkpt>
      <trkpt lat="43.39997" lon="6.6303">
        <ele>402.76379394531</ele>
        <time>2012-10-11T08:53:38Z</time>
      </trkpt>
      <trkpt lat="43.39995" lon="6.63033">
        <ele>402.62646484375</ele>
        <time>2012-10-11T08:53:39Z</time>
      </trkpt>
      <trkpt lat="43.39991" lon="6.63039">
        <ele>402.35180664062</ele>
        <time>2012-10-11T08:53:41Z</time>
      </trkpt>
      <trkpt lat="43.39984" lon="6.63053">
        <ele>401.82995605469</ele>
        <time>2012-10-11T08:53:44Z</time>
      </trkpt>
      <trkpt lat="43.39981" lon="6.63058">
        <ele>401.58605957031</ele>
        <time>2012-10-11T08:53:45Z</time>
      </trkpt>
      <trkpt lat="43.39968" lon="6.63067">
        <ele>399.57879638672</ele>
        <time>2012-10-11T08:53:48Z</time>
      </trkpt>
      <trkpt lat="43.39954" lon="6.63083">
        <ele>395.21856689453</ele>
        <time>2012-10-11T08:53:52Z</time>
      </trkpt>
      <trkpt lat="43.39953" lon="6.63092">
        <ele>394.93493652344</ele>
        <time>2012-10-11T08:53:55Z</time>
      </trkpt>
      <trkpt lat="43.3995" lon="6.63097">
        <ele>394.23648071289</ele>
        <time>2012-10-11T08:53:59Z</time>
      </trkpt>
      <trkpt lat="43.39945" lon="6.63104">
        <ele>392.87698364258</ele>
        <time>2012-10-11T08:54:05Z</time>
      </trkpt>
      <trkpt lat="43.39933" lon="6.63118">
        <ele>389.69692993164</ele>
        <time>2012-10-11T08:54:10Z</time>
      </trkpt>
      <trkpt lat="43.3993" lon="6.63117">
        <ele>388.90335083008</ele>
        <time>2012-10-11T08:54:11Z</time>
      </trkpt>
      <trkpt lat="43.39923" lon="6.63117">
        <ele>387.40905761719</ele>
        <time>2012-10-11T08:54:13Z</time>
      </trkpt>
      <trkpt lat="43.39916" lon="6.63127">
        <ele>385.20822143555</ele>
        <time>2012-10-11T08:54:16Z</time>
      </trkpt>
      <trkpt lat="43.39914" lon="6.63139">
        <ele>383.72338867188</ele>
        <time>2012-10-11T08:54:18Z</time>
      </trkpt>
      <trkpt lat="43.3991" lon="6.63152">
        <ele>381.69860839844</ele>
        <time>2012-10-11T08:54:20Z</time>
      </trkpt>
      <trkpt lat="43.39905" lon="6.63172">
        <ele>379.48959350586</ele>
        <time>2012-10-11T08:54:24Z</time>
      </trkpt>
      <trkpt lat="43.39904" lon="6.63178">
        <ele>379.14028930664</ele>
        <time>2012-10-11T08:54:25Z</time>
      </trkpt>
      <trkpt lat="43.399" lon="6.63195">
        <ele>378.14315795898</ele>
        <time>2012-10-11T08:54:28Z</time>
      </trkpt>
      <trkpt lat="43.39895" lon="6.63205">
        <ele>376.01565551758</ele>
        <time>2012-10-11T08:54:31Z</time>
      </trkpt>
      <trkpt lat="43.39888" lon="6.63206">
        <ele>373.5068359375</ele>
        <time>2012-10-11T08:54:34Z</time>
      </trkpt>
      <trkpt lat="43.39888" lon="6.63206">
        <ele>373.71450805664</ele>
        <time>2012-10-11T08:54:35Z</time>
      </trkpt>
      <trkpt lat="43.39888" lon="6.63206">
        <ele>373.90234375</ele>
        <time>2012-10-11T08:54:37Z</time>
      </trkpt>
      <trkpt lat="43.39889" lon="6.63203">
        <ele>374.28479003906</ele>
        <time>2012-10-11T08:54:42Z</time>
      </trkpt>
      <trkpt lat="43.39882" lon="6.632">
        <ele>370.9508972168</ele>
        <time>2012-10-11T08:54:46Z</time>
      </trkpt>
      <trkpt lat="43.39874" lon="6.63191">
        <ele>365.75064086914</ele>
        <time>2012-10-11T08:54:51Z</time>
      </trkpt>
      <trkpt lat="43.39873" lon="6.63188">
        <ele>364.53564453125</ele>
        <time>2012-10-11T08:54:52Z</time>
      </trkpt>
      <trkpt lat="43.39869" lon="6.63184">
        <ele>360.9241027832</ele>
        <time>2012-10-11T08:54:55Z</time>
      </trkpt>
      <trkpt lat="43.39863" lon="6.63195">
        <ele>360.92248535156</ele>
        <time>2012-10-11T08:54:59Z</time>
      </trkpt>
      <trkpt lat="43.39857" lon="6.63212">
        <ele>357.44195556641</ele>
        <time>2012-10-11T08:55:03Z</time>
      </trkpt>
      <trkpt lat="43.39853" lon="6.63231">
        <ele>356.01419067383</ele>
        <time>2012-10-11T08:55:06Z</time>
      </trkpt>
      <trkpt lat="43.39849" lon="6.6324">
        <ele>355.46487426758</ele>
        <time>2012-10-11T08:55:09Z</time>
      </trkpt>
      <trkpt lat="43.39837" lon="6.63249">
        <ele>348.73574829102</ele>
        <time>2012-10-11T08:55:12Z</time>
      </trkpt>
      <trkpt lat="43.39828" lon="6.63247">
        <ele>345.16052246094</ele>
        <time>2012-10-11T08:55:15Z</time>
      </trkpt>
      <trkpt lat="43.39822" lon="6.63245">
        <ele>343.27230834961</ele>
        <time>2012-10-11T08:55:18Z</time>
      </trkpt>
      <trkpt lat="43.3982" lon="6.63245">
        <ele>342.81713867188</ele>
        <time>2012-10-11T08:55:19Z</time>
      </trkpt>
      <trkpt lat="43.39819" lon="6.63247">
        <ele>342.77459716797</ele>
        <time>2012-10-11T08:55:20Z</time>
      </trkpt>
      <trkpt lat="43.39812" lon="6.63251">
        <ele>341.77035522461</ele>
        <time>2012-10-11T08:55:22Z</time>
      </trkpt>
      <trkpt lat="43.39809" lon="6.63256">
        <ele>341.42922973633</ele>
        <time>2012-10-11T08:55:24Z</time>
      </trkpt>
      <trkpt lat="43.39809" lon="6.6326">
        <ele>341.95269775391</ele>
        <time>2012-10-11T08:55:25Z</time>
      </trkpt>
      <trkpt lat="43.39799" lon="6.63278">
        <ele>341.30786132812</ele>
        <time>2012-10-11T08:55:29Z</time>
      </trkpt>
      <trkpt lat="43.3979" lon="6.63304">
        <ele>342.35916137695</ele>
        <time>2012-10-11T08:55:33Z</time>
      </trkpt>
      <trkpt lat="43.39777" lon="6.6332">
        <ele>340.69650268555</ele>
        <time>2012-10-11T08:55:36Z</time>
      </trkpt>
      <trkpt lat="43.39771" lon="6.63325">
        <ele>338.80255126953</ele>
        <time>2012-10-11T08:55:37Z</time>
      </trkpt>
      <trkpt lat="43.39767" lon="6.63331">
        <ele>337.89077758789</ele>
        <time>2012-10-11T08:55:38Z</time>
      </trkpt>
      <trkpt lat="43.39758" lon="6.63344">
        <ele>336.22817993164</ele>
        <time>2012-10-11T08:55:40Z</time>
      </trkpt>
      <trkpt lat="43.39755" lon="6.63351">
        <ele>336.08038330078</ele>
        <time>2012-10-11T08:55:41Z</time>
      </trkpt>
      <trkpt lat="43.39741" lon="6.63372">
        <ele>333.93853759766</ele>
        <time>2012-10-11T08:55:44Z</time>
      </trkpt>
      <trkpt lat="43.39721" lon="6.63392">
        <ele>328.779296875</ele>
        <time>2012-10-11T08:55:48Z</time>
      </trkpt>
      <trkpt lat="43.39697" lon="6.63406">
        <ele>324.29888916016</ele>
        <time>2012-10-11T08:55:51Z</time>
      </trkpt>
      <trkpt lat="43.39681" lon="6.6342">
        <ele>323.48040771484</ele>
        <time>2012-10-11T08:55:53Z</time>
      </trkpt>
      <trkpt lat="43.39674" lon="6.63433">
        <ele>322.60733032227</ele>
        <time>2012-10-11T08:55:55Z</time>
      </trkpt>
      <trkpt lat="43.39662" lon="6.63453">
        <ele>320.76220703125</ele>
        <time>2012-10-11T08:55:59Z</time>
      </trkpt>
      <trkpt lat="43.39659" lon="6.63456">
        <ele>319.98544311523</ele>
        <time>2012-10-11T08:56:00Z</time>
      </trkpt>
      <trkpt lat="43.39646" lon="6.63465">
        <ele>316.50128173828</ele>
        <time>2012-10-11T08:56:03Z</time>
      </trkpt>
      <trkpt lat="43.3963" lon="6.63484">
        <ele>310.84057617188</ele>
        <time>2012-10-11T08:56:06Z</time>
      </trkpt>
      <trkpt lat="43.39624" lon="6.6349">
        <ele>309.36328125</ele>
        <time>2012-10-11T08:56:07Z</time>
      </trkpt>
      <trkpt lat="43.39612" lon="6.63498">
        <ele>307.24481201172</ele>
        <time>2012-10-11T08:56:09Z</time>
      </trkpt>
      <trkpt lat="43.396" lon="6.63511">
        <ele>304.81970214844</ele>
        <time>2012-10-11T08:56:11Z</time>
      </trkpt>
      <trkpt lat="43.39595" lon="6.63515">
        <ele>303.95153808594</ele>
        <time>2012-10-11T08:56:12Z</time>
      </trkpt>
      <trkpt lat="43.39589" lon="6.63514">
        <ele>303.49145507812</ele>
        <time>2012-10-11T08:56:13Z</time>
      </trkpt>
      <trkpt lat="43.3957" lon="6.63514">
        <ele>301.05737304688</ele>
        <time>2012-10-11T08:56:16Z</time>
      </trkpt>
      <trkpt lat="43.39565" lon="6.63517">
        <ele>299.92599487305</ele>
        <time>2012-10-11T08:56:17Z</time>
      </trkpt>
      <trkpt lat="43.39554" lon="6.63519">
        <ele>297.87783813477</ele>
        <time>2012-10-11T08:56:19Z</time>
      </trkpt>
      <trkpt lat="43.39541" lon="6.63516">
        <ele>295.15185546875</ele>
        <time>2012-10-11T08:56:21Z</time>
      </trkpt>
      <trkpt lat="43.39524" lon="6.63513">
        <ele>291.04962158203</ele>
        <time>2012-10-11T08:56:25Z</time>
      </trkpt>
      <trkpt lat="43.39508" lon="6.63524">
        <ele>286.09188842773</ele>
        <time>2012-10-11T08:56:28Z</time>
      </trkpt>
      <trkpt lat="43.39494" lon="6.63527">
        <ele>281.64099121094</ele>
        <time>2012-10-11T08:56:30Z</time>
      </trkpt>
      <trkpt lat="43.39487" lon="6.63527">
        <ele>278.9299621582</ele>
        <time>2012-10-11T08:56:31Z</time>
      </trkpt>
      <trkpt lat="43.39479" lon="6.63527">
        <ele>275.89682006836</ele>
        <time>2012-10-11T08:56:32Z</time>
      </trkpt>
      <trkpt lat="43.39459" lon="6.63537">
        <ele>269.60803222656</ele>
        <time>2012-10-11T08:56:35Z</time>
      </trkpt>
      <trkpt lat="43.39453" lon="6.63545">
        <ele>267.96783447266</ele>
        <time>2012-10-11T08:56:36Z</time>
      </trkpt>
      <trkpt lat="43.39443" lon="6.63563">
        <ele>265.30676269531</ele>
        <time>2012-10-11T08:56:39Z</time>
      </trkpt>
      <trkpt lat="43.39428" lon="6.63576">
        <ele>260.31454467773</ele>
        <time>2012-10-11T08:56:42Z</time>
      </trkpt>
      <trkpt lat="43.39424" lon="6.63579">
        <ele>259.07247924805</ele>
        <time>2012-10-11T08:56:43Z</time>
      </trkpt>
      <trkpt lat="43.39421" lon="6.63583">
        <ele>258.14074707031</ele>
        <time>2012-10-11T08:56:44Z</time>
      </trkpt>
      <trkpt lat="43.3942" lon="6.63589">
        <ele>258.47525024414</ele>
        <time>2012-10-11T08:56:45Z</time>
      </trkpt>
      <trkpt lat="43.39414" lon="6.63622">
        <ele>258.88696289062</ele>
        <time>2012-10-11T08:56:49Z</time>
      </trkpt>
      <trkpt lat="43.39403" lon="6.63646">
        <ele>254.27212524414</ele>
        <time>2012-10-11T08:56:52Z</time>
      </trkpt>
      <trkpt lat="43.394" lon="6.63651">
        <ele>253.18997192383</ele>
        <time>2012-10-11T08:56:53Z</time>
      </trkpt>
      <trkpt lat="43.39391" lon="6.6367">
        <ele>250.65504455566</ele>
        <time>2012-10-11T08:56:56Z</time>
      </trkpt>
      <trkpt lat="43.39388" lon="6.63676">
        <ele>249.41580200195</ele>
        <time>2012-10-11T08:56:57Z</time>
      </trkpt>
      <trkpt lat="43.39384" lon="6.63682">
        <ele>248.14721679688</ele>
        <time>2012-10-11T08:56:58Z</time>
      </trkpt>
      <trkpt lat="43.39374" lon="6.63689">
        <ele>245.49847412109</ele>
        <time>2012-10-11T08:57:00Z</time>
      </trkpt>
      <trkpt lat="43.39359" lon="6.63697">
        <ele>240.89065551758</ele>
        <time>2012-10-11T08:57:02Z</time>
      </trkpt>
      <trkpt lat="43.39352" lon="6.63703">
        <ele>238.01469421387</ele>
        <time>2012-10-11T08:57:03Z</time>
      </trkpt>
      <trkpt lat="43.39337" lon="6.63728">
        <ele>232.81404113769</ele>
        <time>2012-10-11T08:57:06Z</time>
      </trkpt>
      <trkpt lat="43.39328" lon="6.63744">
        <ele>228.91590881348</ele>
        <time>2012-10-11T08:57:08Z</time>
      </trkpt>
      <trkpt lat="43.39321" lon="6.63758">
        <ele>225.54670715332</ele>
        <time>2012-10-11T08:57:10Z</time>
      </trkpt>
      <trkpt lat="43.39308" lon="6.63766">
        <ele>220.74250793457</ele>
        <time>2012-10-11T08:57:13Z</time>
      </trkpt>
      <trkpt lat="43.39293" lon="6.63786">
        <ele>216.96315002441</ele>
        <time>2012-10-11T08:57:17Z</time>
      </trkpt>
      <trkpt lat="43.39285" lon="6.63792">
        <ele>215.27633666992</ele>
        <time>2012-10-11T08:57:20Z</time>
      </trkpt>
      <trkpt lat="43.3928" lon="6.63802">
        <ele>214.38653564453</ele>
        <time>2012-10-11T08:57:24Z</time>
      </trkpt>
      <trkpt lat="43.39281" lon="6.63809">
        <ele>214.39433288574</ele>
        <time>2012-10-11T08:57:25Z</time>
      </trkpt>
      <trkpt lat="43.39277" lon="6.63822">
        <ele>213.80795288086</ele>
        <time>2012-10-11T08:57:27Z</time>
      </trkpt>
      <trkpt lat="43.39275" lon="6.63838">
        <ele>213.75202941894</ele>
        <time>2012-10-11T08:57:30Z</time>
      </trkpt>
      <trkpt lat="43.39271" lon="6.63863">
        <ele>213.53450012207</ele>
        <time>2012-10-11T08:57:33Z</time>
      </trkpt>
      <trkpt lat="43.39267" lon="6.63878">
        <ele>213.95004272461</ele>
        <time>2012-10-11T08:57:35Z</time>
      </trkpt>
      <trkpt lat="43.39263" lon="6.63885">
        <ele>214.31455993652</ele>
        <time>2012-10-11T08:57:36Z</time>
      </trkpt>
      <trkpt lat="43.39254" lon="6.63908">
        <ele>216.6057434082</ele>
        <time>2012-10-11T08:57:39Z</time>
      </trkpt>
      <trkpt lat="43.39249" lon="6.63912">
        <ele>217.53884887695</ele>
        <time>2012-10-11T08:57:40Z</time>
      </trkpt>
      <trkpt lat="43.39228" lon="6.63917">
        <ele>219.53659057617</ele>
        <time>2012-10-11T08:57:43Z</time>
      </trkpt>
      <trkpt lat="43.39205" lon="6.63928">
        <ele>219.84864807129</ele>
        <time>2012-10-11T08:57:46Z</time>
      </trkpt>
      <trkpt lat="43.39199" lon="6.63931">
        <ele>219.90620422363</ele>
        <time>2012-10-11T08:57:47Z</time>
      </trkpt>
      <trkpt lat="43.39176" lon="6.63943">
        <ele>220</ele>
        <time>2012-10-11T08:57:51Z</time>
      </trkpt>
      <trkpt lat="43.39169" lon="6.63947">
        <ele>219.97450256348</ele>
        <time>2012-10-11T08:57:53Z</time>
      </trkpt>
      <trkpt lat="43.39156" lon="6.63952">
        <ele>220</ele>
        <time>2012-10-11T08:57:56Z</time>
      </trkpt>
      <trkpt lat="43.39143" lon="6.63959">
        <ele>220</ele>
        <time>2012-10-11T08:58:00Z</time>
      </trkpt>
      <trkpt lat="43.39136" lon="6.63961">
        <ele>219.47807312012</ele>
        <time>2012-10-11T08:58:02Z</time>
      </trkpt>
      <trkpt lat="43.39128" lon="6.63962">
        <ele>218.20198059082</ele>
        <time>2012-10-11T08:58:04Z</time>
      </trkpt>
      <trkpt lat="43.39114" lon="6.63967">
        <ele>215.7530670166</ele>
        <time>2012-10-11T08:58:08Z</time>
      </trkpt>
      <trkpt lat="43.39094" lon="6.63979">
        <ele>210.88798522949</ele>
        <time>2012-10-11T08:58:14Z</time>
      </trkpt>
      <trkpt lat="43.39074" lon="6.63997">
        <ele>206.35304260254</ele>
        <time>2012-10-11T08:58:20Z</time>
      </trkpt>
      <trkpt lat="43.3905" lon="6.64016">
        <ele>202.7321472168</ele>
        <time>2012-10-11T08:58:26Z</time>
      </trkpt>
      <trkpt lat="43.39045" lon="6.6402">
        <ele>202.03085327148</ele>
        <time>2012-10-11T08:58:27Z</time>
      </trkpt>
      <trkpt lat="43.39027" lon="6.64035">
        <ele>198.9051361084</ele>
        <time>2012-10-11T08:58:30Z</time>
      </trkpt>
      <trkpt lat="43.38994" lon="6.64064">
        <ele>190.79302978516</ele>
        <time>2012-10-11T08:58:35Z</time>
      </trkpt>
      <trkpt lat="43.38972" lon="6.64071">
        <ele>187.88851928711</ele>
        <time>2012-10-11T08:58:38Z</time>
      </trkpt>
      <trkpt lat="43.38947" lon="6.64076">
        <ele>182.88377380371</ele>
        <time>2012-10-11T08:58:42Z</time>
      </trkpt>
      <trkpt lat="43.38934" lon="6.64065">
        <ele>180.9539642334</ele>
        <time>2012-10-11T08:58:45Z</time>
      </trkpt>
      <trkpt lat="43.38937" lon="6.64047">
        <ele>183.02708435059</ele>
        <time>2012-10-11T08:58:47Z</time>
      </trkpt>
      <trkpt lat="43.3894" lon="6.64031">
        <ele>184.96350097656</ele>
        <time>2012-10-11T08:58:49Z</time>
      </trkpt>
      <trkpt lat="43.38945" lon="6.64018">
        <ele>186.46836853027</ele>
        <time>2012-10-11T08:58:51Z</time>
      </trkpt>
      <trkpt lat="43.38959" lon="6.64">
        <ele>189.64581298828</ele>
        <time>2012-10-11T08:58:55Z</time>
      </trkpt>
      <trkpt lat="43.3898" lon="6.63984">
        <ele>193.80639648438</ele>
        <time>2012-10-11T08:58:59Z</time>
      </trkpt>
      <trkpt lat="43.38986" lon="6.6398">
        <ele>195.11897277832</ele>
        <time>2012-10-11T08:59:00Z</time>
      </trkpt>
      <trkpt lat="43.39004" lon="6.63962">
        <ele>197.23707580566</ele>
        <time>2012-10-11T08:59:04Z</time>
      </trkpt>
      <trkpt lat="43.39031" lon="6.63931">
        <ele>199.10133361816</ele>
        <time>2012-10-11T08:59:11Z</time>
      </trkpt>
      <trkpt lat="43.39033" lon="6.63926">
        <ele>199.09201049805</ele>
        <time>2012-10-11T08:59:12Z</time>
      </trkpt>
      <trkpt lat="43.39034" lon="6.63921">
        <ele>198.81735229492</ele>
        <time>2012-10-11T08:59:13Z</time>
      </trkpt>
      <trkpt lat="43.3903" lon="6.63905">
        <ele>196.12298583984</ele>
        <time>2012-10-11T08:59:16Z</time>
      </trkpt>
      <trkpt lat="43.3902" lon="6.6389">
        <ele>191.26434326172</ele>
        <time>2012-10-11T08:59:19Z</time>
      </trkpt>
      <trkpt lat="43.39003" lon="6.63871">
        <ele>182.37719726562</ele>
        <time>2012-10-11T08:59:23Z</time>
      </trkpt>
      <trkpt lat="43.38992" lon="6.63866">
        <ele>179.79957580566</ele>
        <time>2012-10-11T08:59:25Z</time>
      </trkpt>
      <trkpt lat="43.38987" lon="6.63863">
        <ele>178.74122619629</ele>
        <time>2012-10-11T08:59:26Z</time>
      </trkpt>
      <trkpt lat="43.38981" lon="6.63857">
        <ele>177.78314208984</ele>
        <time>2012-10-11T08:59:27Z</time>
      </trkpt>
      <trkpt lat="43.38959" lon="6.63836">
        <ele>174.19366455078</ele>
        <time>2012-10-11T08:59:32Z</time>
      </trkpt>
      <trkpt lat="43.38953" lon="6.63827">
        <ele>172.67350769043</ele>
        <time>2012-10-11T08:59:34Z</time>
      </trkpt>
      <trkpt lat="43.38949" lon="6.6381">
        <ele>170.28643798828</ele>
        <time>2012-10-11T08:59:36Z</time>
      </trkpt>
      <trkpt lat="43.38945" lon="6.63791">
        <ele>167.50238037109</ele>
        <time>2012-10-11T08:59:38Z</time>
      </trkpt>
      <trkpt lat="43.3894" lon="6.63784">
        <ele>165.62716674805</ele>
        <time>2012-10-11T08:59:40Z</time>
      </trkpt>
      <trkpt lat="43.38922" lon="6.63765">
        <ele>159.84020996094</ele>
        <time>2012-10-11T08:59:44Z</time>
      </trkpt>
      <trkpt lat="43.38917" lon="6.63763">
        <ele>158.47848510742</ele>
        <time>2012-10-11T08:59:45Z</time>
      </trkpt>
      <trkpt lat="43.38897" lon="6.63746">
        <ele>155.44853210449</ele>
        <time>2012-10-11T08:59:49Z</time>
      </trkpt>
      <trkpt lat="43.38896" lon="6.63741">
        <ele>154.71119689941</ele>
        <time>2012-10-11T08:59:50Z</time>
      </trkpt>
      <trkpt lat="43.38892" lon="6.63733">
        <ele>153.02333068848</ele>
        <time>2012-10-11T08:59:52Z</time>
      </trkpt>
      <trkpt lat="43.38884" lon="6.63725">
        <ele>150.39279174805</ele>
        <time>2012-10-11T08:59:54Z</time>
      </trkpt>
      <trkpt lat="43.38883" lon="6.6372">
        <ele>149.47808837891</ele>
        <time>2012-10-11T08:59:55Z</time>
      </trkpt>
      <trkpt lat="43.38881" lon="6.63707">
        <ele>147.98497009277</ele>
        <time>2012-10-11T08:59:57Z</time>
      </trkpt>
      <trkpt lat="43.38878" lon="6.63702">
        <ele>146.59190368652</ele>
        <time>2012-10-11T08:59:58Z</time>
      </trkpt>
      <trkpt lat="43.38868" lon="6.6369">
        <ele>142.69281005859</ele>
        <time>2012-10-11T09:00:00Z</time>
      </trkpt>
      <trkpt lat="43.38842" lon="6.63661">
        <ele>140</ele>
        <time>2012-10-11T09:00:05Z</time>
      </trkpt>
      <trkpt lat="43.38837" lon="6.63657">
        <ele>140</ele>
        <time>2012-10-11T09:00:06Z</time>
      </trkpt>
      <trkpt lat="43.38824" lon="6.63646">
        <ele>140</ele>
        <time>2012-10-11T09:00:08Z</time>
      </trkpt>
      <trkpt lat="43.38817" lon="6.63637">
        <ele>140</ele>
        <time>2012-10-11T09:00:10Z</time>
      </trkpt>
      <trkpt lat="43.38813" lon="6.63633">
        <ele>140</ele>
        <time>2012-10-11T09:00:11Z</time>
      </trkpt>
      <trkpt lat="43.38805" lon="6.63623">
        <ele>139.98803710938</ele>
        <time>2012-10-11T09:00:13Z</time>
      </trkpt>
      <trkpt lat="43.38799" lon="6.63607">
        <ele>139.36029052734</ele>
        <time>2012-10-11T09:00:15Z</time>
      </trkpt>
      <trkpt lat="43.38792" lon="6.63591">
        <ele>138.30628967285</ele>
        <time>2012-10-11T09:00:17Z</time>
      </trkpt>
      <trkpt lat="43.38789" lon="6.63583">
        <ele>137.82331848144</ele>
        <time>2012-10-11T09:00:18Z</time>
      </trkpt>
      <trkpt lat="43.38785" lon="6.63568">
        <ele>137.09918212891</ele>
        <time>2012-10-11T09:00:20Z</time>
      </trkpt>
      <trkpt lat="43.38774" lon="6.63539">
        <ele>134.86318969727</ele>
        <time>2012-10-11T09:00:25Z</time>
      </trkpt>
      <trkpt lat="43.38774" lon="6.63533">
        <ele>134.71720886231</ele>
        <time>2012-10-11T09:00:26Z</time>
      </trkpt>
      <trkpt lat="43.38779" lon="6.63516">
        <ele>136.60131835938</ele>
        <time>2012-10-11T09:00:30Z</time>
      </trkpt>
      <trkpt lat="43.38783" lon="6.63509">
        <ele>137.3720703125</ele>
        <time>2012-10-11T09:00:32Z</time>
      </trkpt>
      <trkpt lat="43.38784" lon="6.63505">
        <ele>137.65875244141</ele>
        <time>2012-10-11T09:00:33Z</time>
      </trkpt>
      <trkpt lat="43.38784" lon="6.63505">
        <ele>137.65875244141</ele>
        <time>2012-10-11T09:00:33Z</time>
      </trkpt>
      <trkpt lat="43.38786" lon="6.63502">
        <ele>138.14970397949</ele>
        <time>2012-10-11T09:00:35Z</time>
      </trkpt>
      <trkpt lat="43.38789" lon="6.63501">
        <ele>138.57369995117</ele>
        <time>2012-10-11T09:00:40Z</time>
      </trkpt>
      <trkpt lat="43.38792" lon="6.63498">
        <ele>139.19410705566</ele>
        <time>2012-10-11T09:00:45Z</time>
      </trkpt>
      <trkpt lat="43.38792" lon="6.63498">
        <ele>139.20765686035</ele>
        <time>2012-10-11T09:00:46Z</time>
      </trkpt>
      <trkpt lat="43.38794" lon="6.63499">
        <ele>139.32284545898</ele>
        <time>2012-10-11T09:05:29Z</time>
      </trkpt>
      <trkpt lat="43.38795" lon="6.635">
        <ele>139.44264221191</ele>
        <time>2012-10-11T09:05:38Z</time>
      </trkpt>
      <trkpt lat="43.38795" lon="6.635">
        <ele>139.51856994629</ele>
        <time>2012-10-11T09:05:57Z</time>
      </trkpt>
      <trkpt lat="43.38794" lon="6.63499">
        <ele>139.47158813477</ele>
        <time>2012-10-11T09:06:05Z</time>
      </trkpt>
      <trkpt lat="43.38794" lon="6.63498">
        <ele>139.51194763184</ele>
        <time>2012-10-11T09:09:00Z</time>
      </trkpt>
      <trkpt lat="43.38794" lon="6.63499">
        <ele>139.35801696777</ele>
        <time>2012-10-11T09:10:04Z</time>
      </trkpt>
      <trkpt lat="43.38799" lon="6.635">
        <ele>140.0537109375</ele>
        <time>2012-10-11T09:11:46Z</time>
      </trkpt>
      <trkpt lat="43.38813" lon="6.63499">
        <ele>141.31507873535</ele>
        <time>2012-10-11T09:11:53Z</time>
      </trkpt>
      <trkpt lat="43.38831" lon="6.63499">
        <ele>141.91641235352</ele>
        <time>2012-10-11T09:12:01Z</time>
      </trkpt>
      <trkpt lat="43.38845" lon="6.63504">
        <ele>142.46495056152</ele>
        <time>2012-10-11T09:12:08Z</time>
      </trkpt>
      <trkpt lat="43.38865" lon="6.63509">
        <ele>143.50205993652</ele>
        <time>2012-10-11T09:12:18Z</time>
      </trkpt>
      <trkpt lat="43.38874" lon="6.63519">
        <ele>144.44805908203</ele>
        <time>2012-10-11T09:12:24Z</time>
      </trkpt>
      <trkpt lat="43.38884" lon="6.63538">
        <ele>145.61489868164</ele>
        <time>2012-10-11T09:12:32Z</time>
      </trkpt>
      <trkpt lat="43.38902" lon="6.6356">
        <ele>149.59289550781</ele>
        <time>2012-10-11T09:12:42Z</time>
      </trkpt>
      <trkpt lat="43.38908" lon="6.63575">
        <ele>152.1231842041</ele>
        <time>2012-10-11T09:12:48Z</time>
      </trkpt>
      <trkpt lat="43.38916" lon="6.63594">
        <ele>156.10299682617</ele>
        <time>2012-10-11T09:12:55Z</time>
      </trkpt>
      <trkpt lat="43.3893" lon="6.63626">
        <ele>159.53782653809</ele>
        <time>2012-10-11T09:13:06Z</time>
      </trkpt>
      <trkpt lat="43.38934" lon="6.63644">
        <ele>159.80158996582</ele>
        <time>2012-10-11T09:13:13Z</time>
      </trkpt>
      <trkpt lat="43.38935" lon="6.63658">
        <ele>159.34155273438</ele>
        <time>2012-10-11T09:13:19Z</time>
      </trkpt>
      <trkpt lat="43.3894" lon="6.63675">
        <ele>159.48400878906</ele>
        <time>2012-10-11T09:13:26Z</time>
      </trkpt>
      <trkpt lat="43.38943" lon="6.63694">
        <ele>159.89599609375</ele>
        <time>2012-10-11T09:13:34Z</time>
      </trkpt>
      <trkpt lat="43.38954" lon="6.63715">
        <ele>162.9861907959</ele>
        <time>2012-10-11T09:13:44Z</time>
      </trkpt>
      <trkpt lat="43.38967" lon="6.63726">
        <ele>166.93859863281</ele>
        <time>2012-10-11T09:13:53Z</time>
      </trkpt>
      <trkpt lat="43.38976" lon="6.63732">
        <ele>169.46186828613</ele>
        <time>2012-10-11T09:13:59Z</time>
      </trkpt>
      <trkpt lat="43.3899" lon="6.63741">
        <ele>173.05017089844</ele>
        <time>2012-10-11T09:14:07Z</time>
      </trkpt>
      <trkpt lat="43.39003" lon="6.63753">
        <ele>176.8528137207</ele>
        <time>2012-10-11T09:14:16Z</time>
      </trkpt>
      <trkpt lat="43.39013" lon="6.63767">
        <ele>179.5066986084</ele>
        <time>2012-10-11T09:14:23Z</time>
      </trkpt>
      <trkpt lat="43.39021" lon="6.63779">
        <ele>181.78651428223</ele>
        <time>2012-10-11T09:14:29Z</time>
      </trkpt>
      <trkpt lat="43.39031" lon="6.63792">
        <ele>184.97541809082</ele>
        <time>2012-10-11T09:14:36Z</time>
      </trkpt>
      <trkpt lat="43.39046" lon="6.63808">
        <ele>188.89808654785</ele>
        <time>2012-10-11T09:14:46Z</time>
      </trkpt>
      <trkpt lat="43.39056" lon="6.6382">
        <ele>191.58549499512</ele>
        <time>2012-10-11T09:14:53Z</time>
      </trkpt>
      <trkpt lat="43.39063" lon="6.63827">
        <ele>192.73680114746</ele>
        <time>2012-10-11T09:14:58Z</time>
      </trkpt>
      <trkpt lat="43.39077" lon="6.63835">
        <ele>194.7341003418</ele>
        <time>2012-10-11T09:15:06Z</time>
      </trkpt>
      <trkpt lat="43.39093" lon="6.63834">
        <ele>196.78936767578</ele>
        <time>2012-10-11T09:15:13Z</time>
      </trkpt>
      <trkpt lat="43.39105" lon="6.6382">
        <ele>195.72283935547</ele>
        <time>2012-10-11T09:15:19Z</time>
      </trkpt>
      <trkpt lat="43.3912" lon="6.63806">
        <ele>193.67756652832</ele>
        <time>2012-10-11T09:15:26Z</time>
      </trkpt>
      <trkpt lat="43.39135" lon="6.63807">
        <ele>195.05258178711</ele>
        <time>2012-10-11T09:15:32Z</time>
      </trkpt>
      <trkpt lat="43.39152" lon="6.63801">
        <ele>195.39781188965</ele>
        <time>2012-10-11T09:15:37Z</time>
      </trkpt>
      <trkpt lat="43.39157" lon="6.63793">
        <ele>193.94207763672</ele>
        <time>2012-10-11T09:15:39Z</time>
      </trkpt>
      <trkpt lat="43.39158" lon="6.63788">
        <ele>192.87643432617</ele>
        <time>2012-10-11T09:15:40Z</time>
      </trkpt>
      <trkpt lat="43.39157" lon="6.63767">
        <ele>188.53421020508</ele>
        <time>2012-10-11T09:15:45Z</time>
      </trkpt>
      <trkpt lat="43.39156" lon="6.63763">
        <ele>187.82301330566</ele>
        <time>2012-10-11T09:15:46Z</time>
      </trkpt>
      <trkpt lat="43.39151" lon="6.63737">
        <ele>182.61650085449</ele>
        <time>2012-10-11T09:15:53Z</time>
      </trkpt>
      <trkpt lat="43.39141" lon="6.63714">
        <ele>178.97985839844</ele>
        <time>2012-10-11T09:15:59Z</time>
      </trkpt>
      <trkpt lat="43.39137" lon="6.63692">
        <ele>177.85568237305</ele>
        <time>2012-10-11T09:16:05Z</time>
      </trkpt>
      <trkpt lat="43.39143" lon="6.63676">
        <ele>178.14373779297</ele>
        <time>2012-10-11T09:16:10Z</time>
      </trkpt>
      <trkpt lat="43.3915" lon="6.63669">
        <ele>179.04666137695</ele>
        <time>2012-10-11T09:16:14Z</time>
      </trkpt>
      <trkpt lat="43.39153" lon="6.63671">
        <ele>179.74703979492</ele>
        <time>2012-10-11T09:16:16Z</time>
      </trkpt>
      <trkpt lat="43.39156" lon="6.63679">
        <ele>180.52981567383</ele>
        <time>2012-10-11T09:16:21Z</time>
      </trkpt>
      <trkpt lat="43.39156" lon="6.63691">
        <ele>181.02249145508</ele>
        <time>2012-10-11T09:16:26Z</time>
      </trkpt>
      <trkpt lat="43.39157" lon="6.63696">
        <ele>181.26133728027</ele>
        <time>2012-10-11T09:16:28Z</time>
      </trkpt>
      <trkpt lat="43.39165" lon="6.63712">
        <ele>182.09397888184</ele>
        <time>2012-10-11T09:16:36Z</time>
      </trkpt>
      <trkpt lat="43.3917" lon="6.63723">
        <ele>183.8630065918</ele>
        <time>2012-10-11T09:16:43Z</time>
      </trkpt>
      <trkpt lat="43.39179" lon="6.63737">
        <ele>189.45732116699</ele>
        <time>2012-10-11T09:16:50Z</time>
      </trkpt>
      <trkpt lat="43.39188" lon="6.63753">
        <ele>194.28575134277</ele>
        <time>2012-10-11T09:16:58Z</time>
      </trkpt>
      <trkpt lat="43.39193" lon="6.63769">
        <ele>197.08081054688</ele>
        <time>2012-10-11T09:17:06Z</time>
      </trkpt>
      <trkpt lat="43.39201" lon="6.63783">
        <ele>199.51577758789</ele>
        <time>2012-10-11T09:17:14Z</time>
      </trkpt>
      <trkpt lat="43.39207" lon="6.63796">
        <ele>202.09069824219</ele>
        <time>2012-10-11T09:17:21Z</time>
      </trkpt>
      <trkpt lat="43.39212" lon="6.63813">
        <ele>205.25889587402</ele>
        <time>2012-10-11T09:17:29Z</time>
      </trkpt>
      <trkpt lat="43.39217" lon="6.63831">
        <ele>209.16030883789</ele>
        <time>2012-10-11T09:17:37Z</time>
      </trkpt>
      <trkpt lat="43.39224" lon="6.63853">
        <ele>211.45555114746</ele>
        <time>2012-10-11T09:17:45Z</time>
      </trkpt>
      <trkpt lat="43.39228" lon="6.63879">
        <ele>214.98075866699</ele>
        <time>2012-10-11T09:17:54Z</time>
      </trkpt>
      <trkpt lat="43.39223" lon="6.63896">
        <ele>217.77746582031</ele>
        <time>2012-10-11T09:18:00Z</time>
      </trkpt>
      <trkpt lat="43.39214" lon="6.6391">
        <ele>219.37693786621</ele>
        <time>2012-10-11T09:18:06Z</time>
      </trkpt>
      <trkpt lat="43.39206" lon="6.63928">
        <ele>219.82723999023</ele>
        <time>2012-10-11T09:18:12Z</time>
      </trkpt>
      <trkpt lat="43.39202" lon="6.63933">
        <ele>219.83357238769</ele>
        <time>2012-10-11T09:18:14Z</time>
      </trkpt>
      <trkpt lat="43.39202" lon="6.63935">
        <ele>219.82273864746</ele>
        <time>2012-10-11T09:18:16Z</time>
      </trkpt>
      <trkpt lat="43.39199" lon="6.63949">
        <ele>219.12452697754</ele>
        <time>2012-10-11T09:18:22Z</time>
      </trkpt>
      <trkpt lat="43.39198" lon="6.63951">
        <ele>218.80506896973</ele>
        <time>2012-10-11T09:18:23Z</time>
      </trkpt>
      <trkpt lat="43.39196" lon="6.63955">
        <ele>218.34213256836</ele>
        <time>2012-10-11T09:18:26Z</time>
      </trkpt>
      <trkpt lat="43.39193" lon="6.63955">
        <ele>218.58348083496</ele>
        <time>2012-10-11T09:18:28Z</time>
      </trkpt>
      <trkpt lat="43.39194" lon="6.63949">
        <ele>219.30944824219</ele>
        <time>2012-10-11T09:18:33Z</time>
      </trkpt>
      <trkpt lat="43.39193" lon="6.6395">
        <ele>219.28909301758</ele>
        <time>2012-10-11T09:18:37Z</time>
      </trkpt>
      <trkpt lat="43.39195" lon="6.63948">
        <ele>219.45681762695</ele>
        <time>2012-10-11T09:19:04Z</time>
      </trkpt>
      <trkpt lat="43.392" lon="6.63953">
        <ele>218.4669342041</ele>
        <time>2012-10-11T09:19:36Z</time>
      </trkpt>
      <trkpt lat="43.39199" lon="6.63963">
        <ele>216.94717407227</ele>
        <time>2012-10-11T09:19:41Z</time>
      </trkpt>
      <trkpt lat="43.392" lon="6.63966">
        <ele>216.29234313965</ele>
        <time>2012-10-11T09:19:44Z</time>
      </trkpt>
      <trkpt lat="43.392" lon="6.63966">
        <ele>216.35798645019</ele>
        <time>2012-10-11T09:19:45Z</time>
      </trkpt>
      <trkpt lat="43.39199" lon="6.63967">
        <ele>216.38262939453</ele>
        <time>2012-10-11T09:19:51Z</time>
      </trkpt>
      <trkpt lat="43.39204" lon="6.63974">
        <ele>214.51141357422</ele>
        <time>2012-10-11T09:19:57Z</time>
      </trkpt>
      <trkpt lat="43.39222" lon="6.63987">
        <ele>210.39012145996</ele>
        <time>2012-10-11T09:20:03Z</time>
      </trkpt>
      <trkpt lat="43.39238" lon="6.63994">
        <ele>206.79299926758</ele>
        <time>2012-10-11T09:20:08Z</time>
      </trkpt>
      <trkpt lat="43.39247" lon="6.63991">
        <ele>206.04626464844</ele>
        <time>2012-10-11T09:20:12Z</time>
      </trkpt>
      <trkpt lat="43.3925" lon="6.63993">
        <ele>205.36993408203</ele>
        <time>2012-10-11T09:20:14Z</time>
      </trkpt>
      <trkpt lat="43.39252" lon="6.63998">
        <ele>204.22903442383</ele>
        <time>2012-10-11T09:20:16Z</time>
      </trkpt>
      <trkpt lat="43.39265" lon="6.64001">
        <ele>202.71157836914</ele>
        <time>2012-10-11T09:20:20Z</time>
      </trkpt>
      <trkpt lat="43.39278" lon="6.63994">
        <ele>202.79934692383</ele>
        <time>2012-10-11T09:20:25Z</time>
      </trkpt>
      <trkpt lat="43.39281" lon="6.63974">
        <ele>205.14103698731</ele>
        <time>2012-10-11T09:20:29Z</time>
      </trkpt>
      <trkpt lat="43.39291" lon="6.6396">
        <ele>206.36820983887</ele>
        <time>2012-10-11T09:20:32Z</time>
      </trkpt>
      <trkpt lat="43.3931" lon="6.63947">
        <ele>205.80751037598</ele>
        <time>2012-10-11T09:20:36Z</time>
      </trkpt>
      <trkpt lat="43.39333" lon="6.63938">
        <ele>203.48004150391</ele>
        <time>2012-10-11T09:20:41Z</time>
      </trkpt>
      <trkpt lat="43.39338" lon="6.63936">
        <ele>203.05918884277</ele>
        <time>2012-10-11T09:20:42Z</time>
      </trkpt>
      <trkpt lat="43.39359" lon="6.63932">
        <ele>200.99102783203</ele>
        <time>2012-10-11T09:20:47Z</time>
      </trkpt>
      <trkpt lat="43.39385" lon="6.63929">
        <ele>198.99882507324</ele>
        <time>2012-10-11T09:20:53Z</time>
      </trkpt>
      <trkpt lat="43.39405" lon="6.63937">
        <ele>193.51081848144</ele>
        <time>2012-10-11T09:20:56Z</time>
      </trkpt>
      <trkpt lat="43.39437" lon="6.63944">
        <ele>189.61103820801</ele>
        <time>2012-10-11T09:21:01Z</time>
      </trkpt>
      <trkpt lat="43.3945" lon="6.63939">
        <ele>191.4563293457</ele>
        <time>2012-10-11T09:21:05Z</time>
      </trkpt>
      <trkpt lat="43.39464" lon="6.63938">
        <ele>191.62454223633</ele>
        <time>2012-10-11T09:21:09Z</time>
      </trkpt>
      <trkpt lat="43.39469" lon="6.63939">
        <ele>191.38421630859</ele>
        <time>2012-10-11T09:21:10Z</time>
      </trkpt>
      <trkpt lat="43.39474" lon="6.63941">
        <ele>190.7176361084</ele>
        <time>2012-10-11T09:21:11Z</time>
      </trkpt>
      <trkpt lat="43.39489" lon="6.63955">
        <ele>185.14018249512</ele>
        <time>2012-10-11T09:21:14Z</time>
      </trkpt>
      <trkpt lat="43.39494" lon="6.63958">
        <ele>183.68449401856</ele>
        <time>2012-10-11T09:21:15Z</time>
      </trkpt>
      <trkpt lat="43.39507" lon="6.6396">
        <ele>181.77882385254</ele>
        <time>2012-10-11T09:21:18Z</time>
      </trkpt>
      <trkpt lat="43.39515" lon="6.63957">
        <ele>181.78192138672</ele>
        <time>2012-10-11T09:21:21Z</time>
      </trkpt>
      <trkpt lat="43.39522" lon="6.63955">
        <ele>181.6220703125</ele>
        <time>2012-10-11T09:21:23Z</time>
      </trkpt>
      <trkpt lat="43.3954" lon="6.63944">
        <ele>182.36560058594</ele>
        <time>2012-10-11T09:21:28Z</time>
      </trkpt>
      <trkpt lat="43.39553" lon="6.63926">
        <ele>185.63403320312</ele>
        <time>2012-10-11T09:21:33Z</time>
      </trkpt>
      <trkpt lat="43.3956" lon="6.63922">
        <ele>185.2999420166</ele>
        <time>2012-10-11T09:21:35Z</time>
      </trkpt>
      <trkpt lat="43.39565" lon="6.63922">
        <ele>184.2428894043</ele>
        <time>2012-10-11T09:21:36Z</time>
      </trkpt>
      <trkpt lat="43.39577" lon="6.63927">
        <ele>180.20008850098</ele>
        <time>2012-10-11T09:21:40Z</time>
      </trkpt>
      <trkpt lat="43.39583" lon="6.63929">
        <ele>178.67007446289</ele>
        <time>2012-10-11T09:21:42Z</time>
      </trkpt>
      <trkpt lat="43.39595" lon="6.63936">
        <ele>177.89707946777</ele>
        <time>2012-10-11T09:21:46Z</time>
      </trkpt>
      <trkpt lat="43.39598" lon="6.63953">
        <ele>175.39663696289</ele>
        <time>2012-10-11T09:21:50Z</time>
      </trkpt>
      <trkpt lat="43.39608" lon="6.63986">
        <ele>169.52581787109</ele>
        <time>2012-10-11T09:21:57Z</time>
      </trkpt>
      <trkpt lat="43.39621" lon="6.64009">
        <ele>166.64031982422</ele>
        <time>2012-10-11T09:22:03Z</time>
      </trkpt>
      <trkpt lat="43.39641" lon="6.64019">
        <ele>166.51002502441</ele>
        <time>2012-10-11T09:22:07Z</time>
      </trkpt>
      <trkpt lat="43.39661" lon="6.64025">
        <ele>168.55377197266</ele>
        <time>2012-10-11T09:22:10Z</time>
      </trkpt>
      <trkpt lat="43.39668" lon="6.64029">
        <ele>168.91677856445</ele>
        <time>2012-10-11T09:22:11Z</time>
      </trkpt>
      <trkpt lat="43.39681" lon="6.64038">
        <ele>168.20266723633</ele>
        <time>2012-10-11T09:22:13Z</time>
      </trkpt>
      <trkpt lat="43.39692" lon="6.64046">
        <ele>167.46109008789</ele>
        <time>2012-10-11T09:22:15Z</time>
      </trkpt>
      <trkpt lat="43.39697" lon="6.64049">
        <ele>167.37951660156</ele>
        <time>2012-10-11T09:22:16Z</time>
      </trkpt>
      <trkpt lat="43.3971" lon="6.64052">
        <ele>167.80905151367</ele>
        <time>2012-10-11T09:22:19Z</time>
      </trkpt>
      <trkpt lat="43.39722" lon="6.64053">
        <ele>168.58064270019</ele>
        <time>2012-10-11T09:22:22Z</time>
      </trkpt>
      <trkpt lat="43.39732" lon="6.64051">
        <ele>169.72419738769</ele>
        <time>2012-10-11T09:22:25Z</time>
      </trkpt>
      <trkpt lat="43.39748" lon="6.64049">
        <ele>171.00852966309</ele>
        <time>2012-10-11T09:22:28Z</time>
      </trkpt>
      <trkpt lat="43.39754" lon="6.64051">
        <ele>170.82723999023</ele>
        <time>2012-10-11T09:22:29Z</time>
      </trkpt>
      <trkpt lat="43.39782" lon="6.64065">
        <ele>168.60861206055</ele>
        <time>2012-10-11T09:22:34Z</time>
      </trkpt>
      <trkpt lat="43.39793" lon="6.6407">
        <ele>167.97689819336</ele>
        <time>2012-10-11T09:22:38Z</time>
      </trkpt>
      <trkpt lat="43.39795" lon="6.6407">
        <ele>167.86016845703</ele>
        <time>2012-10-11T09:22:39Z</time>
      </trkpt>
      <trkpt lat="43.39804" lon="6.64073">
        <ele>167.55117797852</ele>
        <time>2012-10-11T09:22:43Z</time>
      </trkpt>
      <trkpt lat="43.39823" lon="6.64073">
        <ele>167.50997924805</ele>
        <time>2012-10-11T09:22:49Z</time>
      </trkpt>
      <trkpt lat="43.39854" lon="6.64064">
        <ele>167.26809692383</ele>
        <time>2012-10-11T09:22:58Z</time>
      </trkpt>
      <trkpt lat="43.39871" lon="6.64045">
        <ele>170.17077636719</ele>
        <time>2012-10-11T09:23:04Z</time>
      </trkpt>
      <trkpt lat="43.39883" lon="6.64044">
        <ele>170.1442565918</ele>
        <time>2012-10-11T09:23:08Z</time>
      </trkpt>
      <trkpt lat="43.39895" lon="6.64059">
        <ele>168.51029968262</ele>
        <time>2012-10-11T09:23:14Z</time>
      </trkpt>
      <trkpt lat="43.39914" lon="6.64081">
        <ele>168.8157043457</ele>
        <time>2012-10-11T09:23:23Z</time>
      </trkpt>
      <trkpt lat="43.39928" lon="6.64087">
        <ele>168.90121459961</ele>
        <time>2012-10-11T09:23:28Z</time>
      </trkpt>
      <trkpt lat="43.39944" lon="6.64099">
        <ele>167.75451660156</ele>
        <time>2012-10-11T09:23:34Z</time>
      </trkpt>
      <trkpt lat="43.39956" lon="6.64113">
        <ele>166.89834594727</ele>
        <time>2012-10-11T09:23:40Z</time>
      </trkpt>
      <trkpt lat="43.39975" lon="6.64125">
        <ele>169.9524230957</ele>
        <time>2012-10-11T09:23:48Z</time>
      </trkpt>
      <trkpt lat="43.39991" lon="6.64134">
        <ele>173.27549743652</ele>
        <time>2012-10-11T09:23:55Z</time>
      </trkpt>
      <trkpt lat="43.40008" lon="6.64145">
        <ele>175.81437683106</ele>
        <time>2012-10-11T09:24:02Z</time>
      </trkpt>
      <trkpt lat="43.40026" lon="6.64154">
        <ele>177.45718383789</ele>
        <time>2012-10-11T09:24:09Z</time>
      </trkpt>
      <trkpt lat="43.40038" lon="6.64157">
        <ele>177.7724609375</ele>
        <time>2012-10-11T09:24:14Z</time>
      </trkpt>
      <trkpt lat="43.40039" lon="6.64159">
        <ele>177.91899108887</ele>
        <time>2012-10-11T09:24:15Z</time>
      </trkpt>
      <trkpt lat="43.40041" lon="6.64165">
        <ele>178.35932922363</ele>
        <time>2012-10-11T09:24:19Z</time>
      </trkpt>
      <trkpt lat="43.40042" lon="6.64165">
        <ele>178.40762329102</ele>
        <time>2012-10-11T09:24:20Z</time>
      </trkpt>
      <trkpt lat="43.40048" lon="6.64181">
        <ele>178.72210693359</ele>
        <time>2012-10-11T09:27:52Z</time>
      </trkpt>
      <trkpt lat="43.40046" lon="6.64186">
        <ele>178.66717529297</ele>
        <time>2012-10-11T09:27:54Z</time>
      </trkpt>
      <trkpt lat="43.40049" lon="6.64202">
        <ele>179.04641723633</ele>
        <time>2012-10-11T09:27:59Z</time>
      </trkpt>
      <trkpt lat="43.4006" lon="6.64216">
        <ele>179.81184387207</ele>
        <time>2012-10-11T09:28:05Z</time>
      </trkpt>
      <trkpt lat="43.40072" lon="6.64223">
        <ele>180.04411315918</ele>
        <time>2012-10-11T09:28:11Z</time>
      </trkpt>
      <trkpt lat="43.40086" lon="6.64226">
        <ele>180.32330322266</ele>
        <time>2012-10-11T09:28:17Z</time>
      </trkpt>
      <trkpt lat="43.40089" lon="6.64225">
        <ele>180.25360107422</ele>
        <time>2012-10-11T09:28:18Z</time>
      </trkpt>
      <trkpt lat="43.40107" lon="6.64222">
        <ele>180</ele>
        <time>2012-10-11T09:28:23Z</time>
      </trkpt>
      <trkpt lat="43.40128" lon="6.64228">
        <ele>182.14082336426</ele>
        <time>2012-10-11T09:28:29Z</time>
      </trkpt>
      <trkpt lat="43.40148" lon="6.64239">
        <ele>185.0530090332</ele>
        <time>2012-10-11T09:28:36Z</time>
      </trkpt>
      <trkpt lat="43.40162" lon="6.64243">
        <ele>186.74215698242</ele>
        <time>2012-10-11T09:28:41Z</time>
      </trkpt>
      <trkpt lat="43.40175" lon="6.64251">
        <ele>189.06269836426</ele>
        <time>2012-10-11T09:28:47Z</time>
      </trkpt>
      <trkpt lat="43.40189" lon="6.64259">
        <ele>192.52964782715</ele>
        <time>2012-10-11T09:28:54Z</time>
      </trkpt>
      <trkpt lat="43.40203" lon="6.64262">
        <ele>193.56297302246</ele>
        <time>2012-10-11T09:29:02Z</time>
      </trkpt>
      <trkpt lat="43.40214" lon="6.64263">
        <ele>193.75866699219</ele>
        <time>2012-10-11T09:29:08Z</time>
      </trkpt>
      <trkpt lat="43.40228" lon="6.64264">
        <ele>194.20303344727</ele>
        <time>2012-10-11T09:29:16Z</time>
      </trkpt>
      <trkpt lat="43.40238" lon="6.64268">
        <ele>195.37033081055</ele>
        <time>2012-10-11T09:29:22Z</time>
      </trkpt>
      <trkpt lat="43.40249" lon="6.64272">
        <ele>196.71615600586</ele>
        <time>2012-10-11T09:29:29Z</time>
      </trkpt>
      <trkpt lat="43.4026" lon="6.64277">
        <ele>197.19081115723</ele>
        <time>2012-10-11T09:29:37Z</time>
      </trkpt>
      <trkpt lat="43.40268" lon="6.64283">
        <ele>198.30471801758</ele>
        <time>2012-10-11T09:29:44Z</time>
      </trkpt>
      <trkpt lat="43.40278" lon="6.64289">
        <ele>199.6649017334</ele>
        <time>2012-10-11T09:29:52Z</time>
      </trkpt>
      <trkpt lat="43.40288" lon="6.64299">
        <ele>202.57907104492</ele>
        <time>2012-10-11T09:30:01Z</time>
      </trkpt>
      <trkpt lat="43.4029" lon="6.643">
        <ele>202.85354614258</ele>
        <time>2012-10-11T09:30:03Z</time>
      </trkpt>
      <trkpt lat="43.40295" lon="6.64304">
        <ele>203.82887268066</ele>
        <time>2012-10-11T09:30:07Z</time>
      </trkpt>
      <trkpt lat="43.40303" lon="6.64309">
        <ele>205.17178344727</ele>
        <time>2012-10-11T09:30:14Z</time>
      </trkpt>
      <trkpt lat="43.40311" lon="6.64317">
        <ele>207.18267822266</ele>
        <time>2012-10-11T09:30:21Z</time>
      </trkpt>
      <trkpt lat="43.4032" lon="6.64324">
        <ele>209.17395019531</ele>
        <time>2012-10-11T09:30:29Z</time>
      </trkpt>
      <trkpt lat="43.40329" lon="6.64331">
        <ele>211.46734619141</ele>
        <time>2012-10-11T09:30:37Z</time>
      </trkpt>
      <trkpt lat="43.40339" lon="6.64339">
        <ele>215.10949707031</ele>
        <time>2012-10-11T09:30:46Z</time>
      </trkpt>
      <trkpt lat="43.40348" lon="6.64343">
        <ele>217.55395507812</ele>
        <time>2012-10-11T09:30:53Z</time>
      </trkpt>
      <trkpt lat="43.40357" lon="6.64349">
        <ele>221.04211425781</ele>
        <time>2012-10-11T09:31:01Z</time>
      </trkpt>
      <trkpt lat="43.40365" lon="6.64356">
        <ele>225.05212402344</ele>
        <time>2012-10-11T09:31:08Z</time>
      </trkpt>
      <trkpt lat="43.40373" lon="6.64365">
        <ele>231.6943359375</ele>
        <time>2012-10-11T09:31:16Z</time>
      </trkpt>
      <trkpt lat="43.40381" lon="6.64376">
        <ele>240.51086425781</ele>
        <time>2012-10-11T09:31:23Z</time>
      </trkpt>
      <trkpt lat="43.4039" lon="6.64389">
        <ele>251.96202087402</ele>
        <time>2012-10-11T09:31:30Z</time>
      </trkpt>
      <trkpt lat="43.40393" lon="6.64393">
        <ele>252.90728759766</ele>
        <time>2012-10-11T09:31:32Z</time>
      </trkpt>
      <trkpt lat="43.40399" lon="6.64399">
        <ele>254.41246032715</ele>
        <time>2012-10-11T09:31:36Z</time>
      </trkpt>
      <trkpt lat="43.40414" lon="6.64407">
        <ele>256.63400268555</ele>
        <time>2012-10-11T09:31:44Z</time>
      </trkpt>
      <trkpt lat="43.4043" lon="6.64407">
        <ele>253.09382629394</ele>
        <time>2012-10-11T09:31:50Z</time>
      </trkpt>
      <trkpt lat="43.40454" lon="6.64414">
        <ele>250.37371826172</ele>
        <time>2012-10-11T09:31:59Z</time>
      </trkpt>
      <trkpt lat="43.40469" lon="6.64424">
        <ele>253.72029113769</ele>
        <time>2012-10-11T09:32:07Z</time>
      </trkpt>
      <trkpt lat="43.40478" lon="6.64434">
        <ele>257.77481079102</ele>
        <time>2012-10-11T09:32:14Z</time>
      </trkpt>
      <trkpt lat="43.40489" lon="6.64449">
        <ele>262.13516235352</ele>
        <time>2012-10-11T09:32:22Z</time>
      </trkpt>
      <trkpt lat="43.40498" lon="6.6446">
        <ele>263.12933349609</ele>
        <time>2012-10-11T09:32:29Z</time>
      </trkpt>
      <trkpt lat="43.40504" lon="6.64471">
        <ele>264.21319580078</ele>
        <time>2012-10-11T09:32:35Z</time>
      </trkpt>
      <trkpt lat="43.40514" lon="6.64482">
        <ele>266.75643920898</ele>
        <time>2012-10-11T09:32:43Z</time>
      </trkpt>
      <trkpt lat="43.40525" lon="6.64493">
        <ele>269.099609375</ele>
        <time>2012-10-11T09:32:51Z</time>
      </trkpt>
      <trkpt lat="43.40534" lon="6.64503">
        <ele>271.37069702148</ele>
        <time>2012-10-11T09:32:58Z</time>
      </trkpt>
      <trkpt lat="43.40545" lon="6.64517">
        <ele>274.65631103516</ele>
        <time>2012-10-11T09:33:07Z</time>
      </trkpt>
      <trkpt lat="43.40557" lon="6.64526">
        <ele>276.13198852539</ele>
        <time>2012-10-11T09:33:15Z</time>
      </trkpt>
      <trkpt lat="43.40566" lon="6.64535">
        <ele>277.60662841797</ele>
        <time>2012-10-11T09:33:22Z</time>
      </trkpt>
      <trkpt lat="43.40576" lon="6.64546">
        <ele>278.79794311523</ele>
        <time>2012-10-11T09:33:29Z</time>
      </trkpt>
      <trkpt lat="43.40584" lon="6.6456">
        <ele>280.84973144531</ele>
        <time>2012-10-11T09:33:36Z</time>
      </trkpt>
      <trkpt lat="43.40591" lon="6.64572">
        <ele>282.45611572266</ele>
        <time>2012-10-11T09:33:42Z</time>
      </trkpt>
      <trkpt lat="43.406" lon="6.64573">
        <ele>281.53707885742</ele>
        <time>2012-10-11T09:33:47Z</time>
      </trkpt>
      <trkpt lat="43.40611" lon="6.64566">
        <ele>278.96099853516</ele>
        <time>2012-10-11T09:33:54Z</time>
      </trkpt>
      <trkpt lat="43.40621" lon="6.64562">
        <ele>277.52844238281</ele>
        <time>2012-10-11T09:34:01Z</time>
      </trkpt>
      <trkpt lat="43.40631" lon="6.6456">
        <ele>276.43667602539</ele>
        <time>2012-10-11T09:34:08Z</time>
      </trkpt>
      <trkpt lat="43.40644" lon="6.64557">
        <ele>275.24783325195</ele>
        <time>2012-10-11T09:34:17Z</time>
      </trkpt>
      <trkpt lat="43.40662" lon="6.64554">
        <ele>274.77255249023</ele>
        <time>2012-10-11T09:34:28Z</time>
      </trkpt>
      <trkpt lat="43.40675" lon="6.6455">
        <ele>274.18731689453</ele>
        <time>2012-10-11T09:34:37Z</time>
      </trkpt>
      <trkpt lat="43.40686" lon="6.6455">
        <ele>274.12561035156</ele>
        <time>2012-10-11T09:34:45Z</time>
      </trkpt>
      <trkpt lat="43.40698" lon="6.6455">
        <ele>274.02044677734</ele>
        <time>2012-10-11T09:34:52Z</time>
      </trkpt>
      <trkpt lat="43.40718" lon="6.64548">
        <ele>273.67712402344</ele>
        <time>2012-10-11T09:35:01Z</time>
      </trkpt>
      <trkpt lat="43.40742" lon="6.64542">
        <ele>273.54602050781</ele>
        <time>2012-10-11T09:35:06Z</time>
      </trkpt>
      <trkpt lat="43.40759" lon="6.64533">
        <ele>272.38705444336</ele>
        <time>2012-10-11T09:35:09Z</time>
      </trkpt>
      <trkpt lat="43.40769" lon="6.64532">
        <ele>272.53329467773</ele>
        <time>2012-10-11T09:35:11Z</time>
      </trkpt>
      <trkpt lat="43.40776" lon="6.64532">
        <ele>272.77600097656</ele>
        <time>2012-10-11T09:35:13Z</time>
      </trkpt>
      <trkpt lat="43.40781" lon="6.64532">
        <ele>272.71597290039</ele>
        <time>2012-10-11T09:35:15Z</time>
      </trkpt>
      <trkpt lat="43.40797" lon="6.64533">
        <ele>272.92196655273</ele>
        <time>2012-10-11T09:35:23Z</time>
      </trkpt>
      <trkpt lat="43.40813" lon="6.64534">
        <ele>273.96469116211</ele>
        <time>2012-10-11T09:35:32Z</time>
      </trkpt>
      <trkpt lat="43.4083" lon="6.64537">
        <ele>276.36965942383</ele>
        <time>2012-10-11T09:35:41Z</time>
      </trkpt>
      <trkpt lat="43.40845" lon="6.64538">
        <ele>276.80603027344</ele>
        <time>2012-10-11T09:35:50Z</time>
      </trkpt>
      <trkpt lat="43.40858" lon="6.6454">
        <ele>277.11502075195</ele>
        <time>2012-10-11T09:35:57Z</time>
      </trkpt>
      <trkpt lat="43.40865" lon="6.64552">
        <ele>279.02352905273</ele>
        <time>2012-10-11T09:36:04Z</time>
      </trkpt>
      <trkpt lat="43.40864" lon="6.64565">
        <ele>281.63433837891</ele>
        <time>2012-10-11T09:36:11Z</time>
      </trkpt>
      <trkpt lat="43.40863" lon="6.6458">
        <ele>285.03326416016</ele>
        <time>2012-10-11T09:36:20Z</time>
      </trkpt>
      <trkpt lat="43.4086" lon="6.64596">
        <ele>288.70590209961</ele>
        <time>2012-10-11T09:36:29Z</time>
      </trkpt>
      <trkpt lat="43.40859" lon="6.64606">
        <ele>291.1003112793</ele>
        <time>2012-10-11T09:36:35Z</time>
      </trkpt>
      <trkpt lat="43.40856" lon="6.64618">
        <ele>293.63818359375</ele>
        <time>2012-10-11T09:36:43Z</time>
      </trkpt>
      <trkpt lat="43.40854" lon="6.6463">
        <ele>295.72579956055</ele>
        <time>2012-10-11T09:36:50Z</time>
      </trkpt>
      <trkpt lat="43.40852" lon="6.64638">
        <ele>297.29046630859</ele>
        <time>2012-10-11T09:36:56Z</time>
      </trkpt>
      <trkpt lat="43.40851" lon="6.64645">
        <ele>298.72244262695</ele>
        <time>2012-10-11T09:37:01Z</time>
      </trkpt>
      <trkpt lat="43.40851" lon="6.64649">
        <ele>299.47338867188</ele>
        <time>2012-10-11T09:37:03Z</time>
      </trkpt>
      <trkpt lat="43.4085" lon="6.64653">
        <ele>300.57723999023</ele>
        <time>2012-10-11T09:37:06Z</time>
      </trkpt>
      <trkpt lat="43.4085" lon="6.64662">
        <ele>302.3977355957</ele>
        <time>2012-10-11T09:37:11Z</time>
      </trkpt>
      <trkpt lat="43.4085" lon="6.6468">
        <ele>306.18283081055</ele>
        <time>2012-10-11T09:37:18Z</time>
      </trkpt>
      <trkpt lat="43.40845" lon="6.64699">
        <ele>311.91683959961</ele>
        <time>2012-10-11T09:37:26Z</time>
      </trkpt>
      <trkpt lat="43.40841" lon="6.64714">
        <ele>316.06317138672</ele>
        <time>2012-10-11T09:37:33Z</time>
      </trkpt>
      <trkpt lat="43.40834" lon="6.64727">
        <ele>319.62033081055</ele>
        <time>2012-10-11T09:37:40Z</time>
      </trkpt>
      <trkpt lat="43.40826" lon="6.64741">
        <ele>320</ele>
        <time>2012-10-11T09:37:48Z</time>
      </trkpt>
      <trkpt lat="43.40818" lon="6.64756">
        <ele>319.33450317383</ele>
        <time>2012-10-11T09:37:55Z</time>
      </trkpt>
      <trkpt lat="43.40813" lon="6.64771">
        <ele>317.44274902344</ele>
        <time>2012-10-11T09:38:02Z</time>
      </trkpt>
      <trkpt lat="43.40807" lon="6.64786">
        <ele>315.52716064453</ele>
        <time>2012-10-11T09:38:09Z</time>
      </trkpt>
      <trkpt lat="43.40804" lon="6.64803">
        <ele>313.5710144043</ele>
        <time>2012-10-11T09:38:15Z</time>
      </trkpt>
      <trkpt lat="43.40803" lon="6.64826">
        <ele>310.17224121094</ele>
        <time>2012-10-11T09:38:22Z</time>
      </trkpt>
      <trkpt lat="43.40804" lon="6.64844">
        <ele>307.68328857422</ele>
        <time>2012-10-11T09:38:28Z</time>
      </trkpt>
      <trkpt lat="43.408" lon="6.64866">
        <ele>303.33837890625</ele>
        <time>2012-10-11T09:38:34Z</time>
      </trkpt>
      <trkpt lat="43.40799" lon="6.64889">
        <ele>300.54373168945</ele>
        <time>2012-10-11T09:38:38Z</time>
      </trkpt>
      <trkpt lat="43.40807" lon="6.64904">
        <ele>301.94940185547</ele>
        <time>2012-10-11T09:38:42Z</time>
      </trkpt>
      <trkpt lat="43.40817" lon="6.64916">
        <ele>304.13961791992</ele>
        <time>2012-10-11T09:38:47Z</time>
      </trkpt>
      <trkpt lat="43.40829" lon="6.64922">
        <ele>308.22103881836</ele>
        <time>2012-10-11T09:38:52Z</time>
      </trkpt>
      <trkpt lat="43.40848" lon="6.64934">
        <ele>311.98736572266</ele>
        <time>2012-10-11T09:38:59Z</time>
      </trkpt>
      <trkpt lat="43.40852" lon="6.64947">
        <ele>312.59838867188</ele>
        <time>2012-10-11T09:39:04Z</time>
      </trkpt>
      <trkpt lat="43.40847" lon="6.64955">
        <ele>311.2512512207</ele>
        <time>2012-10-11T09:39:07Z</time>
      </trkpt>
      <trkpt lat="43.40845" lon="6.64956">
        <ele>310.77639770508</ele>
        <time>2012-10-11T09:39:08Z</time>
      </trkpt>
      <trkpt lat="43.40841" lon="6.64968">
        <ele>308.76361083984</ele>
        <time>2012-10-11T09:39:14Z</time>
      </trkpt>
      <trkpt lat="43.40842" lon="6.64973">
        <ele>308.98645019531</ele>
        <time>2012-10-11T09:39:16Z</time>
      </trkpt>
      <trkpt lat="43.40842" lon="6.64978">
        <ele>309.05639648438</ele>
        <time>2012-10-11T09:39:18Z</time>
      </trkpt>
      <trkpt lat="43.40842" lon="6.64996">
        <ele>308.2236328125</ele>
        <time>2012-10-11T09:39:25Z</time>
      </trkpt>
      <trkpt lat="43.40845" lon="6.65013">
        <ele>307.99395751953</ele>
        <time>2012-10-11T09:39:32Z</time>
      </trkpt>
      <trkpt lat="43.40849" lon="6.65029">
        <ele>307.49185180664</ele>
        <time>2012-10-11T09:39:39Z</time>
      </trkpt>
      <trkpt lat="43.40851" lon="6.65047">
        <ele>306.33407592773</ele>
        <time>2012-10-11T09:39:45Z</time>
      </trkpt>
      <trkpt lat="43.40858" lon="6.65055">
        <ele>307.75024414062</ele>
        <time>2012-10-11T09:39:49Z</time>
      </trkpt>
      <trkpt lat="43.40859" lon="6.65054">
        <ele>308.2878112793</ele>
        <time>2012-10-11T09:39:50Z</time>
      </trkpt>
      <trkpt lat="43.40864" lon="6.65052">
        <ele>310.63403320312</ele>
        <time>2012-10-11T09:39:53Z</time>
      </trkpt>
      <trkpt lat="43.40869" lon="6.6505">
        <ele>312.89813232422</ele>
        <time>2012-10-11T09:39:56Z</time>
      </trkpt>
      <trkpt lat="43.40871" lon="6.65051">
        <ele>313.53469848633</ele>
        <time>2012-10-11T09:40:00Z</time>
      </trkpt>
      <trkpt lat="43.40877" lon="6.65048">
        <ele>316.04415893555</ele>
        <time>2012-10-11T09:40:06Z</time>
      </trkpt>
      <trkpt lat="43.40891" lon="6.65049">
        <ele>320.52331542969</ele>
        <time>2012-10-11T09:40:14Z</time>
      </trkpt>
      <trkpt lat="43.40905" lon="6.65048">
        <ele>322.06832885742</ele>
        <time>2012-10-11T09:40:21Z</time>
      </trkpt>
      <trkpt lat="43.40924" lon="6.65048">
        <ele>325.56185913086</ele>
        <time>2012-10-11T09:40:28Z</time>
      </trkpt>
      <trkpt lat="43.40933" lon="6.65052">
        <ele>328.24197387695</ele>
        <time>2012-10-11T09:40:34Z</time>
      </trkpt>
      <trkpt lat="43.40933" lon="6.65052">
        <ele>328.34820556641</ele>
        <time>2012-10-11T09:40:35Z</time>
      </trkpt>
      <trkpt lat="43.40933" lon="6.65052">
        <ele>328.34820556641</ele>
        <time>2012-10-11T09:40:35Z</time>
      </trkpt>
      <trkpt lat="43.40942" lon="6.65054">
        <ele>331.18884277344</ele>
        <time>2012-10-11T09:54:53Z</time>
      </trkpt>
      <trkpt lat="43.40955" lon="6.65056">
        <ele>334.92636108398</ele>
        <time>2012-10-11T09:55:07Z</time>
      </trkpt>
      <trkpt lat="43.4098" lon="6.65057">
        <ele>340</ele>
        <time>2012-10-11T09:55:11Z</time>
      </trkpt>
      <trkpt lat="43.40986" lon="6.65058">
        <ele>340</ele>
        <time>2012-10-11T09:55:12Z</time>
      </trkpt>
      <trkpt lat="43.41013" lon="6.65069">
        <ele>340</ele>
        <time>2012-10-11T09:55:16Z</time>
      </trkpt>
      <trkpt lat="43.41045" lon="6.6509">
        <ele>340</ele>
        <time>2012-10-11T09:55:20Z</time>
      </trkpt>
      <trkpt lat="43.41069" lon="6.65118">
        <ele>336.22900390625</ele>
        <time>2012-10-11T09:55:24Z</time>
      </trkpt>
      <trkpt lat="43.41089" lon="6.65138">
        <ele>330.78656005859</ele>
        <time>2012-10-11T09:55:28Z</time>
      </trkpt>
      <trkpt lat="43.41097" lon="6.65139">
        <ele>328.99264526367</ele>
        <time>2012-10-11T09:55:29Z</time>
      </trkpt>
      <trkpt lat="43.41109" lon="6.65143">
        <ele>325.88891601562</ele>
        <time>2012-10-11T09:55:31Z</time>
      </trkpt>
      <trkpt lat="43.41116" lon="6.65143">
        <ele>323.95706176758</ele>
        <time>2012-10-11T09:55:32Z</time>
      </trkpt>
      <trkpt lat="43.41127" lon="6.65138">
        <ele>320.66891479492</ele>
        <time>2012-10-11T09:55:34Z</time>
      </trkpt>
      <trkpt lat="43.41135" lon="6.65138">
        <ele>318.0905456543</ele>
        <time>2012-10-11T09:55:35Z</time>
      </trkpt>
      <trkpt lat="43.41149" lon="6.65141">
        <ele>311.78573608398</ele>
        <time>2012-10-11T09:55:37Z</time>
      </trkpt>
      <trkpt lat="43.41167" lon="6.65153">
        <ele>300.83499145508</ele>
        <time>2012-10-11T09:55:40Z</time>
      </trkpt>
      <trkpt lat="43.41186" lon="6.65169">
        <ele>293.55014038086</ele>
        <time>2012-10-11T09:55:44Z</time>
      </trkpt>
      <trkpt lat="43.4119" lon="6.65188">
        <ele>290.48263549805</ele>
        <time>2012-10-11T09:55:47Z</time>
      </trkpt>
      <trkpt lat="43.41193" lon="6.65212">
        <ele>286.11758422852</ele>
        <time>2012-10-11T09:55:50Z</time>
      </trkpt>
      <trkpt lat="43.41207" lon="6.65241">
        <ele>277.08554077148</ele>
        <time>2012-10-11T09:55:54Z</time>
      </trkpt>
      <trkpt lat="43.41212" lon="6.65248">
        <ele>274.74066162109</ele>
        <time>2012-10-11T09:55:55Z</time>
      </trkpt>
      <trkpt lat="43.41225" lon="6.65264">
        <ele>269.53659057617</ele>
        <time>2012-10-11T09:55:58Z</time>
      </trkpt>
      <trkpt lat="43.41235" lon="6.65278">
        <ele>264.78744506836</ele>
        <time>2012-10-11T09:56:01Z</time>
      </trkpt>
      <trkpt lat="43.41241" lon="6.65288">
        <ele>260.94659423828</ele>
        <time>2012-10-11T09:56:03Z</time>
      </trkpt>
      <trkpt lat="43.41243" lon="6.65291">
        <ele>259.36392211914</ele>
        <time>2012-10-11T09:56:04Z</time>
      </trkpt>
      <trkpt lat="43.41253" lon="6.65291">
        <ele>256.97116088867</ele>
        <time>2012-10-11T09:56:07Z</time>
      </trkpt>
      <trkpt lat="43.41257" lon="6.65289">
        <ele>256.77462768555</ele>
        <time>2012-10-11T09:56:08Z</time>
      </trkpt>
      <trkpt lat="43.41262" lon="6.65291">
        <ele>255.98077392578</ele>
        <time>2012-10-11T09:56:09Z</time>
      </trkpt>
      <trkpt lat="43.41267" lon="6.65291">
        <ele>255.54476928711</ele>
        <time>2012-10-11T09:56:10Z</time>
      </trkpt>
      <trkpt lat="43.41271" lon="6.6529">
        <ele>255.33825683594</ele>
        <time>2012-10-11T09:56:11Z</time>
      </trkpt>
      <trkpt lat="43.41283" lon="6.65284">
        <ele>254.22033691406</ele>
        <time>2012-10-11T09:56:14Z</time>
      </trkpt>
      <trkpt lat="43.41295" lon="6.65294">
        <ele>249.36421203613</ele>
        <time>2012-10-11T09:56:17Z</time>
      </trkpt>
      <trkpt lat="43.413" lon="6.65325">
        <ele>245.03038024902</ele>
        <time>2012-10-11T09:56:20Z</time>
      </trkpt>
      <trkpt lat="43.41302" lon="6.65336">
        <ele>243.13053894043</ele>
        <time>2012-10-11T09:56:21Z</time>
      </trkpt>
      <trkpt lat="43.4131" lon="6.65358">
        <ele>238.05090332031</ele>
        <time>2012-10-11T09:56:23Z</time>
      </trkpt>
      <trkpt lat="43.41316" lon="6.6537">
        <ele>234.17892456055</ele>
        <time>2012-10-11T09:56:24Z</time>
      </trkpt>
      <trkpt lat="43.4134" lon="6.65397">
        <ele>225.78698730469</ele>
        <time>2012-10-11T09:56:28Z</time>
      </trkpt>
      <trkpt lat="43.41346" lon="6.654">
        <ele>224.82325744629</ele>
        <time>2012-10-11T09:56:29Z</time>
      </trkpt>
      <trkpt lat="43.4135" lon="6.65403">
        <ele>223.98249816894</ele>
        <time>2012-10-11T09:56:30Z</time>
      </trkpt>
      <trkpt lat="43.41354" lon="6.65407">
        <ele>223.25881958008</ele>
        <time>2012-10-11T09:56:31Z</time>
      </trkpt>
      <trkpt lat="43.4136" lon="6.65425">
        <ele>219.50283813477</ele>
        <time>2012-10-11T09:56:34Z</time>
      </trkpt>
      <trkpt lat="43.4136" lon="6.65432">
        <ele>217.52989196777</ele>
        <time>2012-10-11T09:56:35Z</time>
      </trkpt>
      <trkpt lat="43.41354" lon="6.65444">
        <ele>213.54252624512</ele>
        <time>2012-10-11T09:56:37Z</time>
      </trkpt>
      <trkpt lat="43.41354" lon="6.65464">
        <ele>206.18695068359</ele>
        <time>2012-10-11T09:56:41Z</time>
      </trkpt>
      <trkpt lat="43.41365" lon="6.65491">
        <ele>200.75729370117</ele>
        <time>2012-10-11T09:56:44Z</time>
      </trkpt>
      <trkpt lat="43.41372" lon="6.65524">
        <ele>195.50080871582</ele>
        <time>2012-10-11T09:56:48Z</time>
      </trkpt>
      <trkpt lat="43.41374" lon="6.6553">
        <ele>194.62895202637</ele>
        <time>2012-10-11T09:56:49Z</time>
      </trkpt>
      <trkpt lat="43.41385" lon="6.65546">
        <ele>192.55990600586</ele>
        <time>2012-10-11T09:56:52Z</time>
      </trkpt>
      <trkpt lat="43.41396" lon="6.65558">
        <ele>191.43106079102</ele>
        <time>2012-10-11T09:56:56Z</time>
      </trkpt>
      <trkpt lat="43.41404" lon="6.65571">
        <ele>190.63993835449</ele>
        <time>2012-10-11T09:56:59Z</time>
      </trkpt>
      <trkpt lat="43.41404" lon="6.6559">
        <ele>187.96301269531</ele>
        <time>2012-10-11T09:57:03Z</time>
      </trkpt>
      <trkpt lat="43.41407" lon="6.65608">
        <ele>185.16865539551</ele>
        <time>2012-10-11T09:57:06Z</time>
      </trkpt>
      <trkpt lat="43.41413" lon="6.65623">
        <ele>182.7790222168</ele>
        <time>2012-10-11T09:57:09Z</time>
      </trkpt>
      <trkpt lat="43.41412" lon="6.65629">
        <ele>181.6065826416</ele>
        <time>2012-10-11T09:57:10Z</time>
      </trkpt>
      <trkpt lat="43.41414" lon="6.65646">
        <ele>179.07766723633</ele>
        <time>2012-10-11T09:57:13Z</time>
      </trkpt>
      <trkpt lat="43.41412" lon="6.65652">
        <ele>178.3162689209</ele>
        <time>2012-10-11T09:57:14Z</time>
      </trkpt>
      <trkpt lat="43.41411" lon="6.65675">
        <ele>175.1016998291</ele>
        <time>2012-10-11T09:57:18Z</time>
      </trkpt>
      <trkpt lat="43.41411" lon="6.65685">
        <ele>173.21342468262</ele>
        <time>2012-10-11T09:57:20Z</time>
      </trkpt>
      <trkpt lat="43.41409" lon="6.6569">
        <ele>172.2452545166</ele>
        <time>2012-10-11T09:57:21Z</time>
      </trkpt>
      <trkpt lat="43.41407" lon="6.65692">
        <ele>171.68392944336</ele>
        <time>2012-10-11T09:57:22Z</time>
      </trkpt>
      <trkpt lat="43.41408" lon="6.65703">
        <ele>170.40896606445</ele>
        <time>2012-10-11T09:57:25Z</time>
      </trkpt>
      <trkpt lat="43.41403" lon="6.65725">
        <ele>167.45260620117</ele>
        <time>2012-10-11T09:57:29Z</time>
      </trkpt>
      <trkpt lat="43.41399" lon="6.65746">
        <ele>163.51470947266</ele>
        <time>2012-10-11T09:57:33Z</time>
      </trkpt>
      <trkpt lat="43.41397" lon="6.65755">
        <ele>161.64016723633</ele>
        <time>2012-10-11T09:57:35Z</time>
      </trkpt>
      <trkpt lat="43.41397" lon="6.65767">
        <ele>159.44290161133</ele>
        <time>2012-10-11T09:57:37Z</time>
      </trkpt>
      <trkpt lat="43.41396" lon="6.65787">
        <ele>156.17620849609</ele>
        <time>2012-10-11T09:57:41Z</time>
      </trkpt>
      <trkpt lat="43.41399" lon="6.65813">
        <ele>152.35076904297</ele>
        <time>2012-10-11T09:57:45Z</time>
      </trkpt>
      <trkpt lat="43.41398" lon="6.6584">
        <ele>147.29179382324</ele>
        <time>2012-10-11T09:57:49Z</time>
      </trkpt>
      <trkpt lat="43.41397" lon="6.65853">
        <ele>144.54525756836</ele>
        <time>2012-10-11T09:57:51Z</time>
      </trkpt>
      <trkpt lat="43.41402" lon="6.65863">
        <ele>143.22550964356</ele>
        <time>2012-10-11T09:57:53Z</time>
      </trkpt>
      <trkpt lat="43.41408" lon="6.65876">
        <ele>142.25369262695</ele>
        <time>2012-10-11T09:57:55Z</time>
      </trkpt>
      <trkpt lat="43.41413" lon="6.65885">
        <ele>141.86068725586</ele>
        <time>2012-10-11T09:57:57Z</time>
      </trkpt>
      <trkpt lat="43.41424" lon="6.65888">
        <ele>142.12384033203</ele>
        <time>2012-10-11T09:58:00Z</time>
      </trkpt>
      <trkpt lat="43.41434" lon="6.65885">
        <ele>142.54063415527</ele>
        <time>2012-10-11T09:58:02Z</time>
      </trkpt>
      <trkpt lat="43.41438" lon="6.65885">
        <ele>142.49214172363</ele>
        <time>2012-10-11T09:58:03Z</time>
      </trkpt>
      <trkpt lat="43.41441" lon="6.65889">
        <ele>142.00769042969</ele>
        <time>2012-10-11T09:58:04Z</time>
      </trkpt>
      <trkpt lat="43.41454" lon="6.65904">
        <ele>138.70722961426</ele>
        <time>2012-10-11T09:58:08Z</time>
      </trkpt>
      <trkpt lat="43.41458" lon="6.65915">
        <ele>136.71269226074</ele>
        <time>2012-10-11T09:58:11Z</time>
      </trkpt>
      <trkpt lat="43.41461" lon="6.65944">
        <ele>131.66525268555</ele>
        <time>2012-10-11T09:58:15Z</time>
      </trkpt>
      <trkpt lat="43.41463" lon="6.6595">
        <ele>131.07504272461</ele>
        <time>2012-10-11T09:58:16Z</time>
      </trkpt>
      <trkpt lat="43.41468" lon="6.65965">
        <ele>129.66226196289</ele>
        <time>2012-10-11T09:58:19Z</time>
      </trkpt>
      <trkpt lat="43.41459" lon="6.65976">
        <ele>127.77754211426</ele>
        <time>2012-10-11T09:58:22Z</time>
      </trkpt>
      <trkpt lat="43.41446" lon="6.6598">
        <ele>126.42333984375</ele>
        <time>2012-10-11T09:58:26Z</time>
      </trkpt>
      <trkpt lat="43.41439" lon="6.65994">
        <ele>122.80154418945</ele>
        <time>2012-10-11T09:58:30Z</time>
      </trkpt>
      <trkpt lat="43.4143" lon="6.65991">
        <ele>122.35865783691</ele>
        <time>2012-10-11T09:58:32Z</time>
      </trkpt>
      <trkpt lat="43.41426" lon="6.65993">
        <ele>121.59648132324</ele>
        <time>2012-10-11T09:58:33Z</time>
      </trkpt>
      <trkpt lat="43.41423" lon="6.65997">
        <ele>120.26782226562</ele>
        <time>2012-10-11T09:58:34Z</time>
      </trkpt>
      <trkpt lat="43.41412" lon="6.66004">
        <ele>118.28938293457</ele>
        <time>2012-10-11T09:58:36Z</time>
      </trkpt>
      <trkpt lat="43.41401" lon="6.66006">
        <ele>117.36777496338</ele>
        <time>2012-10-11T09:58:38Z</time>
      </trkpt>
      <trkpt lat="43.41401" lon="6.66006">
        <ele>117.36777496338</ele>
        <time>2012-10-11T09:58:38Z</time>
      </trkpt>
      <trkpt lat="43.41395" lon="6.66009">
        <ele>116.64611816406</ele>
        <time>2012-10-11T09:58:39Z</time>
      </trkpt>
      <trkpt lat="43.41389" lon="6.66011">
        <ele>115.87773895264</ele>
        <time>2012-10-11T09:58:40Z</time>
      </trkpt>
      <trkpt lat="43.41377" lon="6.6602">
        <ele>110.7931137085</ele>
        <time>2012-10-11T09:58:42Z</time>
      </trkpt>
      <trkpt lat="43.41375" lon="6.66026">
        <ele>108.66815185547</ele>
        <time>2012-10-11T09:58:43Z</time>
      </trkpt>
      <trkpt lat="43.41366" lon="6.66039">
        <ele>104.13292694092</ele>
        <time>2012-10-11T09:58:46Z</time>
      </trkpt>
      <trkpt lat="43.41354" lon="6.66051">
        <ele>98.473358154297</ele>
        <time>2012-10-11T09:58:50Z</time>
      </trkpt>
      <trkpt lat="43.41352" lon="6.6605">
        <ele>98.246765136719</ele>
        <time>2012-10-11T09:58:53Z</time>
      </trkpt>
      <trkpt lat="43.41351" lon="6.66058">
        <ele>96.777587890625</ele>
        <time>2012-10-11T09:59:01Z</time>
      </trkpt>
      <trkpt lat="43.41351" lon="6.66063">
        <ele>96.343139648438</ele>
        <time>2012-10-11T09:59:02Z</time>
      </trkpt>
      <trkpt lat="43.41357" lon="6.66076">
        <ele>97.997032165527</ele>
        <time>2012-10-11T09:59:04Z</time>
      </trkpt>
      <trkpt lat="43.41357" lon="6.66107">
        <ele>89.819076538086</ele>
        <time>2012-10-11T09:59:08Z</time>
      </trkpt>
      <trkpt lat="43.41345" lon="6.66124">
        <ele>82.986534118652</ele>
        <time>2012-10-11T09:59:11Z</time>
      </trkpt>
      <trkpt lat="43.41322" lon="6.66136">
        <ele>80</ele>
        <time>2012-10-11T09:59:15Z</time>
      </trkpt>
      <trkpt lat="43.41307" lon="6.6615">
        <ele>80</ele>
        <time>2012-10-11T09:59:18Z</time>
      </trkpt>
      <trkpt lat="43.41301" lon="6.66154">
        <ele>80</ele>
        <time>2012-10-11T09:59:19Z</time>
      </trkpt>
      <trkpt lat="43.41296" lon="6.6616">
        <ele>80</ele>
        <time>2012-10-11T09:59:20Z</time>
      </trkpt>
      <trkpt lat="43.41288" lon="6.66169">
        <ele>80</ele>
        <time>2012-10-11T09:59:22Z</time>
      </trkpt>
      <trkpt lat="43.41286" lon="6.66174">
        <ele>80</ele>
        <time>2012-10-11T09:59:23Z</time>
      </trkpt>
      <trkpt lat="43.41283" lon="6.66183">
        <ele>80</ele>
        <time>2012-10-11T09:59:25Z</time>
      </trkpt>
      <trkpt lat="43.41274" lon="6.66194">
        <ele>80</ele>
        <time>2012-10-11T09:59:29Z</time>
      </trkpt>
      <trkpt lat="43.41264" lon="6.66202">
        <ele>79.485412597656</ele>
        <time>2012-10-11T09:59:33Z</time>
      </trkpt>
      <trkpt lat="43.41258" lon="6.66208">
        <ele>78.997894287109</ele>
        <time>2012-10-11T09:59:36Z</time>
      </trkpt>
      <trkpt lat="43.41258" lon="6.66208">
        <ele>79.039093017578</ele>
        <time>2012-10-11T09:59:37Z</time>
      </trkpt>
      <trkpt lat="43.41257" lon="6.66208">
        <ele>79.008193969727</ele>
        <time>2012-10-11T09:59:43Z</time>
      </trkpt>
      <trkpt lat="43.41256" lon="6.66212">
        <ele>78.767868041992</ele>
        <time>2012-10-11T09:59:48Z</time>
      </trkpt>
      <trkpt lat="43.41257" lon="6.66211">
        <ele>78.839965820312</ele>
        <time>2012-10-11T09:59:54Z</time>
      </trkpt>
      <trkpt lat="43.41256" lon="6.66215">
        <ele>78.486343383789</ele>
        <time>2012-10-11T10:04:44Z</time>
      </trkpt>
      <trkpt lat="43.41257" lon="6.6622">
        <ele>78.149887084961</ele>
        <time>2012-10-11T10:04:50Z</time>
      </trkpt>
      <trkpt lat="43.4126" lon="6.66226">
        <ele>78.088623046875</ele>
        <time>2012-10-11T10:04:57Z</time>
      </trkpt>
      <trkpt lat="43.41263" lon="6.66234">
        <ele>78.221939086914</ele>
        <time>2012-10-11T10:05:06Z</time>
      </trkpt>
      <trkpt lat="43.41265" lon="6.66239">
        <ele>78.285026550293</ele>
        <time>2012-10-11T10:05:14Z</time>
      </trkpt>
      <trkpt lat="43.41266" lon="6.66247">
        <ele>78.388084411621</ele>
        <time>2012-10-11T10:05:22Z</time>
      </trkpt>
      <trkpt lat="43.41263" lon="6.6625">
        <ele>78.517456054688</ele>
        <time>2012-10-11T10:05:29Z</time>
      </trkpt>
      <trkpt lat="43.41262" lon="6.6625">
        <ele>78.579772949219</ele>
        <time>2012-10-11T10:05:33Z</time>
      </trkpt>
      <trkpt lat="43.41259" lon="6.66252">
        <ele>78.662170410156</ele>
        <time>2012-10-11T10:05:38Z</time>
      </trkpt>
      <trkpt lat="43.41252" lon="6.66251">
        <ele>78.936828613281</ele>
        <time>2012-10-11T10:08:08Z</time>
      </trkpt>
      <trkpt lat="43.41243" lon="6.66256">
        <ele>79.610168457031</ele>
        <time>2012-10-11T10:08:14Z</time>
      </trkpt>
      <trkpt lat="43.41231" lon="6.66267">
        <ele>81.232131958008</ele>
        <time>2012-10-11T10:08:23Z</time>
      </trkpt>
      <trkpt lat="43.41223" lon="6.66275">
        <ele>82.665573120117</ele>
        <time>2012-10-11T10:08:29Z</time>
      </trkpt>
      <trkpt lat="43.41214" lon="6.66287">
        <ele>87.19889831543</ele>
        <time>2012-10-11T10:08:37Z</time>
      </trkpt>
      <trkpt lat="43.41206" lon="6.66301">
        <ele>91.733695983887</ele>
        <time>2012-10-11T10:08:45Z</time>
      </trkpt>
      <trkpt lat="43.41197" lon="6.66314">
        <ele>96.18571472168</ele>
        <time>2012-10-11T10:08:53Z</time>
      </trkpt>
      <trkpt lat="43.41191" lon="6.66317">
        <ele>97.79662322998</ele>
        <time>2012-10-11T10:09:00Z</time>
      </trkpt>
      <trkpt lat="43.41191" lon="6.66317">
        <ele>97.739974975586</ele>
        <time>2012-10-11T10:09:10Z</time>
      </trkpt>
      <trkpt lat="43.41185" lon="6.6632">
        <ele>98.938171386719</ele>
        <time>2012-10-11T10:09:14Z</time>
      </trkpt>
      <trkpt lat="43.41175" lon="6.6633">
        <ele>101.40322875977</ele>
        <time>2012-10-11T10:09:20Z</time>
      </trkpt>
      <trkpt lat="43.41167" lon="6.66348">
        <ele>104.46968078613</ele>
        <time>2012-10-11T10:09:28Z</time>
      </trkpt>
      <trkpt lat="43.41159" lon="6.66365">
        <ele>108.41234588623</ele>
        <time>2012-10-11T10:09:36Z</time>
      </trkpt>
      <trkpt lat="43.4115" lon="6.66382">
        <ele>111.33601379394</ele>
        <time>2012-10-11T10:09:44Z</time>
      </trkpt>
      <trkpt lat="43.41142" lon="6.66398">
        <ele>113.1925201416</ele>
        <time>2012-10-11T10:09:52Z</time>
      </trkpt>
      <trkpt lat="43.41134" lon="6.66409">
        <ele>114.01285552978</ele>
        <time>2012-10-11T10:09:58Z</time>
      </trkpt>
      <trkpt lat="43.41125" lon="6.66424">
        <ele>114.34352874756</ele>
        <time>2012-10-11T10:10:06Z</time>
      </trkpt>
      <trkpt lat="43.41116" lon="6.66441">
        <ele>113.80770111084</ele>
        <time>2012-10-11T10:10:15Z</time>
      </trkpt>
      <trkpt lat="43.41112" lon="6.66459">
        <ele>111.84826660156</ele>
        <time>2012-10-11T10:10:23Z</time>
      </trkpt>
      <trkpt lat="43.41107" lon="6.66476">
        <ele>109.83634185791</ele>
        <time>2012-10-11T10:10:31Z</time>
      </trkpt>
      <trkpt lat="43.41098" lon="6.66489">
        <ele>108.58155822754</ele>
        <time>2012-10-11T10:10:39Z</time>
      </trkpt>
      <trkpt lat="43.41085" lon="6.66497">
        <ele>107.48616027832</ele>
        <time>2012-10-11T10:10:47Z</time>
      </trkpt>
      <trkpt lat="43.41071" lon="6.66504">
        <ele>106.90213012695</ele>
        <time>2012-10-11T10:10:56Z</time>
      </trkpt>
      <trkpt lat="43.41059" lon="6.66505">
        <ele>107.12358856201</ele>
        <time>2012-10-11T10:11:03Z</time>
      </trkpt>
      <trkpt lat="43.41045" lon="6.66505">
        <ele>106.9407043457</ele>
        <time>2012-10-11T10:11:13Z</time>
      </trkpt>
      <trkpt lat="43.41034" lon="6.66504">
        <ele>106.65231323242</ele>
        <time>2012-10-11T10:11:22Z</time>
      </trkpt>
      <trkpt lat="43.41023" lon="6.665">
        <ele>106.28328704834</ele>
        <time>2012-10-11T10:11:29Z</time>
      </trkpt>
      <trkpt lat="43.41009" lon="6.66498">
        <ele>104.90441894531</ele>
        <time>2012-10-11T10:11:38Z</time>
      </trkpt>
      <trkpt lat="43.40995" lon="6.66493">
        <ele>105.17961883545</ele>
        <time>2012-10-11T10:11:47Z</time>
      </trkpt>
      <trkpt lat="43.40985" lon="6.66488">
        <ele>106.77091979981</ele>
        <time>2012-10-11T10:11:54Z</time>
      </trkpt>
      <trkpt lat="43.40969" lon="6.66477">
        <ele>110.25353240967</ele>
        <time>2012-10-11T10:12:05Z</time>
      </trkpt>
      <trkpt lat="43.40958" lon="6.6647">
        <ele>111.54809570312</ele>
        <time>2012-10-11T10:12:12Z</time>
      </trkpt>
      <trkpt lat="43.40945" lon="6.66464">
        <ele>112.45446777344</ele>
        <time>2012-10-11T10:12:20Z</time>
      </trkpt>
      <trkpt lat="43.40932" lon="6.66459">
        <ele>114.35062408447</ele>
        <time>2012-10-11T10:12:28Z</time>
      </trkpt>
      <trkpt lat="43.40918" lon="6.66453">
        <ele>116.15888214111</ele>
        <time>2012-10-11T10:12:37Z</time>
      </trkpt>
      <trkpt lat="43.40905" lon="6.66443">
        <ele>119.09163665772</ele>
        <time>2012-10-11T10:12:46Z</time>
      </trkpt>
      <trkpt lat="43.40897" lon="6.66431">
        <ele>121.43654632568</ele>
        <time>2012-10-11T10:12:54Z</time>
      </trkpt>
      <trkpt lat="43.40891" lon="6.66412">
        <ele>124.92503356934</ele>
        <time>2012-10-11T10:13:03Z</time>
      </trkpt>
      <trkpt lat="43.40888" lon="6.66402">
        <ele>127.18171691894</ele>
        <time>2012-10-11T10:13:08Z</time>
      </trkpt>
      <trkpt lat="43.40881" lon="6.66388">
        <ele>130.5041809082</ele>
        <time>2012-10-11T10:13:16Z</time>
      </trkpt>
      <trkpt lat="43.40868" lon="6.6637">
        <ele>134.19662475586</ele>
        <time>2012-10-11T10:13:26Z</time>
      </trkpt>
      <trkpt lat="43.4086" lon="6.66353">
        <ele>136.8766784668</ele>
        <time>2012-10-11T10:13:34Z</time>
      </trkpt>
      <trkpt lat="43.40848" lon="6.66336">
        <ele>138.30682373047</ele>
        <time>2012-10-11T10:13:42Z</time>
      </trkpt>
      <trkpt lat="43.40839" lon="6.66324">
        <ele>139.52990722656</ele>
        <time>2012-10-11T10:13:48Z</time>
      </trkpt>
      <trkpt lat="43.40825" lon="6.66301">
        <ele>141.81716918945</ele>
        <time>2012-10-11T10:13:58Z</time>
      </trkpt>
      <trkpt lat="43.40812" lon="6.66279">
        <ele>142.58306884766</ele>
        <time>2012-10-11T10:14:07Z</time>
      </trkpt>
      <trkpt lat="43.408" lon="6.66257">
        <ele>143.23266601562</ele>
        <time>2012-10-11T10:14:16Z</time>
      </trkpt>
      <trkpt lat="43.40785" lon="6.66241">
        <ele>144.51202392578</ele>
        <time>2012-10-11T10:14:24Z</time>
      </trkpt>
      <trkpt lat="43.4077" lon="6.66227">
        <ele>145.45965576172</ele>
        <time>2012-10-11T10:14:32Z</time>
      </trkpt>
      <trkpt lat="43.4076" lon="6.66206">
        <ele>147.37539672852</ele>
        <time>2012-10-11T10:14:40Z</time>
      </trkpt>
      <trkpt lat="43.40748" lon="6.66189">
        <ele>148.34851074219</ele>
        <time>2012-10-11T10:14:47Z</time>
      </trkpt>
      <trkpt lat="43.40735" lon="6.66178">
        <ele>148.14767456055</ele>
        <time>2012-10-11T10:14:54Z</time>
      </trkpt>
      <trkpt lat="43.40734" lon="6.66174">
        <ele>148.40002441406</ele>
        <time>2012-10-11T10:14:59Z</time>
      </trkpt>
      <trkpt lat="43.40733" lon="6.66178">
        <ele>147.92108154297</ele>
        <time>2012-10-11T10:15:45Z</time>
      </trkpt>
      <trkpt lat="43.40729" lon="6.66177">
        <ele>147.62239074707</ele>
        <time>2012-10-11T10:15:47Z</time>
      </trkpt>
      <trkpt lat="43.40717" lon="6.66169">
        <ele>147.38087463379</ele>
        <time>2012-10-11T10:15:52Z</time>
      </trkpt>
      <trkpt lat="43.40714" lon="6.66167">
        <ele>147.35121154785</ele>
        <time>2012-10-11T10:15:53Z</time>
      </trkpt>
      <trkpt lat="43.407" lon="6.66151">
        <ele>148.16918945312</ele>
        <time>2012-10-11T10:15:57Z</time>
      </trkpt>
      <trkpt lat="43.4068" lon="6.66124">
        <ele>148.15377807617</ele>
        <time>2012-10-11T10:16:02Z</time>
      </trkpt>
      <trkpt lat="43.40652" lon="6.66098">
        <ele>145.12406921387</ele>
        <time>2012-10-11T10:16:07Z</time>
      </trkpt>
      <trkpt lat="43.40648" lon="6.66092">
        <ele>144.69567871094</ele>
        <time>2012-10-11T10:16:08Z</time>
      </trkpt>
      <trkpt lat="43.40636" lon="6.6607">
        <ele>145.34609985352</ele>
        <time>2012-10-11T10:16:11Z</time>
      </trkpt>
      <trkpt lat="43.40631" lon="6.66063">
        <ele>145.24310302734</ele>
        <time>2012-10-11T10:16:12Z</time>
      </trkpt>
      <trkpt lat="43.40614" lon="6.66052">
        <ele>143.02453613281</ele>
        <time>2012-10-11T10:16:15Z</time>
      </trkpt>
      <trkpt lat="43.40608" lon="6.66049">
        <ele>142.31076049805</ele>
        <time>2012-10-11T10:16:16Z</time>
      </trkpt>
      <trkpt lat="43.40592" lon="6.66039">
        <ele>140.61944580078</ele>
        <time>2012-10-11T10:16:19Z</time>
      </trkpt>
      <trkpt lat="43.4058" lon="6.66038">
        <ele>139.12966918945</ele>
        <time>2012-10-11T10:16:21Z</time>
      </trkpt>
      <trkpt lat="43.40554" lon="6.66035">
        <ele>138.20945739746</ele>
        <time>2012-10-11T10:16:25Z</time>
      </trkpt>
      <trkpt lat="43.4054" lon="6.6602">
        <ele>141.13687133789</ele>
        <time>2012-10-11T10:16:28Z</time>
      </trkpt>
      <trkpt lat="43.40531" lon="6.66007">
        <ele>144.27827453613</ele>
        <time>2012-10-11T10:16:30Z</time>
      </trkpt>
      <trkpt lat="43.40523" lon="6.65993">
        <ele>147.85758972168</ele>
        <time>2012-10-11T10:16:32Z</time>
      </trkpt>
      <trkpt lat="43.4052" lon="6.65986">
        <ele>149.64286804199</ele>
        <time>2012-10-11T10:16:33Z</time>
      </trkpt>
      <trkpt lat="43.40514" lon="6.65957">
        <ele>155.27755737305</ele>
        <time>2012-10-11T10:16:37Z</time>
      </trkpt>
      <trkpt lat="43.40505" lon="6.65956">
        <ele>156.01913452148</ele>
        <time>2012-10-11T10:16:40Z</time>
      </trkpt>
      <trkpt lat="43.40498" lon="6.65969">
        <ele>154.53598022461</ele>
        <time>2012-10-11T10:16:43Z</time>
      </trkpt>
      <trkpt lat="43.40496" lon="6.65974">
        <ele>153.84857177734</ele>
        <time>2012-10-11T10:16:44Z</time>
      </trkpt>
      <trkpt lat="43.4048" lon="6.66">
        <ele>149.33731079102</ele>
        <time>2012-10-11T10:16:50Z</time>
      </trkpt>
      <trkpt lat="43.40466" lon="6.66015">
        <ele>147.12300109863</ele>
        <time>2012-10-11T10:16:54Z</time>
      </trkpt>
      <trkpt lat="43.40461" lon="6.66017">
        <ele>146.98750305176</ele>
        <time>2012-10-11T10:16:55Z</time>
      </trkpt>
      <trkpt lat="43.40437" lon="6.66015">
        <ele>148.60289001465</ele>
        <time>2012-10-11T10:16:59Z</time>
      </trkpt>
      <trkpt lat="43.40419" lon="6.66023">
        <ele>147.71263122559</ele>
        <time>2012-10-11T10:17:02Z</time>
      </trkpt>
      <trkpt lat="43.40412" lon="6.66048">
        <ele>144.82090759277</ele>
        <time>2012-10-11T10:17:05Z</time>
      </trkpt>
      <trkpt lat="43.40409" lon="6.66055">
        <ele>144.08963012695</ele>
        <time>2012-10-11T10:17:06Z</time>
      </trkpt>
      <trkpt lat="43.40399" lon="6.66064">
        <ele>141.97050476074</ele>
        <time>2012-10-11T10:17:08Z</time>
      </trkpt>
      <trkpt lat="43.40391" lon="6.66074">
        <ele>139.92219543457</ele>
        <time>2012-10-11T10:17:10Z</time>
      </trkpt>
      <trkpt lat="43.40376" lon="6.66089">
        <ele>136.13607788086</ele>
        <time>2012-10-11T10:17:13Z</time>
      </trkpt>
      <trkpt lat="43.40371" lon="6.66092">
        <ele>135.33192443848</ele>
        <time>2012-10-11T10:17:14Z</time>
      </trkpt>
      <trkpt lat="43.40354" lon="6.66094">
        <ele>134.53451538086</ele>
        <time>2012-10-11T10:17:18Z</time>
      </trkpt>
      <trkpt lat="43.40348" lon="6.66095">
        <ele>133.92121887207</ele>
        <time>2012-10-11T10:17:20Z</time>
      </trkpt>
      <trkpt lat="43.40343" lon="6.66098">
        <ele>132.94619750977</ele>
        <time>2012-10-11T10:17:22Z</time>
      </trkpt>
      <trkpt lat="43.40339" lon="6.66101">
        <ele>132.00889587402</ele>
        <time>2012-10-11T10:17:24Z</time>
      </trkpt>
      <trkpt lat="43.40329" lon="6.66111">
        <ele>129.94444274902</ele>
        <time>2012-10-11T10:17:29Z</time>
      </trkpt>
      <trkpt lat="43.40313" lon="6.66119">
        <ele>128.27275085449</ele>
        <time>2012-10-11T10:17:36Z</time>
      </trkpt>
      <trkpt lat="43.40295" lon="6.66116">
        <ele>128.2048034668</ele>
        <time>2012-10-11T10:17:43Z</time>
      </trkpt>
      <trkpt lat="43.40284" lon="6.66102">
        <ele>129.5788269043</ele>
        <time>2012-10-11T10:17:49Z</time>
      </trkpt>
      <trkpt lat="43.40271" lon="6.66092">
        <ele>130.11959838867</ele>
        <time>2012-10-11T10:17:55Z</time>
      </trkpt>
      <trkpt lat="43.40255" lon="6.66077">
        <ele>129.97161865234</ele>
        <time>2012-10-11T10:18:02Z</time>
      </trkpt>
      <trkpt lat="43.40236" lon="6.66062">
        <ele>128.16242980957</ele>
        <time>2012-10-11T10:18:08Z</time>
      </trkpt>
      <trkpt lat="43.40214" lon="6.66047">
        <ele>124.38597106934</ele>
        <time>2012-10-11T10:18:15Z</time>
      </trkpt>
      <trkpt lat="43.40199" lon="6.66033">
        <ele>121.20767211914</ele>
        <time>2012-10-11T10:18:21Z</time>
      </trkpt>
      <trkpt lat="43.402" lon="6.66027">
        <ele>121.05570983887</ele>
        <time>2012-10-11T10:18:23Z</time>
      </trkpt>
      <trkpt lat="43.40202" lon="6.66022">
        <ele>121.31811523438</ele>
        <time>2012-10-11T10:18:25Z</time>
      </trkpt>
      <trkpt lat="43.40207" lon="6.66015">
        <ele>121.8876876831</ele>
        <time>2012-10-11T10:18:28Z</time>
      </trkpt>
      <trkpt lat="43.40211" lon="6.66005">
        <ele>122.37834167481</ele>
        <time>2012-10-11T10:18:32Z</time>
      </trkpt>
      <trkpt lat="43.40214" lon="6.65987">
        <ele>122.50355529785</ele>
        <time>2012-10-11T10:18:39Z</time>
      </trkpt>
      <trkpt lat="43.40216" lon="6.65965">
        <ele>122.4482421875</ele>
        <time>2012-10-11T10:18:48Z</time>
      </trkpt>
      <trkpt lat="43.40222" lon="6.65947">
        <ele>123.89019775391</ele>
        <time>2012-10-11T10:18:55Z</time>
      </trkpt>
      <trkpt lat="43.40231" lon="6.6593">
        <ele>126.09645843506</ele>
        <time>2012-10-11T10:19:03Z</time>
      </trkpt>
      <trkpt lat="43.40239" lon="6.65912">
        <ele>128.56559753418</ele>
        <time>2012-10-11T10:19:11Z</time>
      </trkpt>
      <trkpt lat="43.4025" lon="6.6589">
        <ele>131.8971862793</ele>
        <time>2012-10-11T10:19:21Z</time>
      </trkpt>
      <trkpt lat="43.40258" lon="6.6587">
        <ele>133.78823852539</ele>
        <time>2012-10-11T10:19:30Z</time>
      </trkpt>
      <trkpt lat="43.40264" lon="6.65855">
        <ele>135.24876403809</ele>
        <time>2012-10-11T10:19:37Z</time>
      </trkpt>
      <trkpt lat="43.40271" lon="6.65856">
        <ele>137.42518615723</ele>
        <time>2012-10-11T10:19:41Z</time>
      </trkpt>
      <trkpt lat="43.40272" lon="6.65858">
        <ele>137.90454101562</ele>
        <time>2012-10-11T10:19:42Z</time>
      </trkpt>
      <trkpt lat="43.40273" lon="6.65871">
        <ele>138.8917388916</ele>
        <time>2012-10-11T10:19:47Z</time>
      </trkpt>
      <trkpt lat="43.40273" lon="6.65876">
        <ele>138.83853149414</ele>
        <time>2012-10-11T10:19:49Z</time>
      </trkpt>
      <trkpt lat="43.40273" lon="6.6589">
        <ele>139.47711181641</ele>
        <time>2012-10-11T10:19:54Z</time>
      </trkpt>
      <trkpt lat="43.40279" lon="6.65911">
        <ele>142.06324768066</ele>
        <time>2012-10-11T10:20:02Z</time>
      </trkpt>
      <trkpt lat="43.40285" lon="6.65932">
        <ele>143.92295837402</ele>
        <time>2012-10-11T10:20:10Z</time>
      </trkpt>
      <trkpt lat="43.40295" lon="6.65938">
        <ele>145.92785644531</ele>
        <time>2012-10-11T10:20:15Z</time>
      </trkpt>
      <trkpt lat="43.403" lon="6.65935">
        <ele>147.25518798828</ele>
        <time>2012-10-11T10:20:18Z</time>
      </trkpt>
      <trkpt lat="43.403" lon="6.6593">
        <ele>147.54116821289</ele>
        <time>2012-10-11T10:20:20Z</time>
      </trkpt>
      <trkpt lat="43.40301" lon="6.65924">
        <ele>148.17239379883</ele>
        <time>2012-10-11T10:20:22Z</time>
      </trkpt>
      <trkpt lat="43.403" lon="6.65918">
        <ele>148.21295166016</ele>
        <time>2012-10-11T10:20:25Z</time>
      </trkpt>
      <trkpt lat="43.40299" lon="6.65903">
        <ele>147.94506835938</ele>
        <time>2012-10-11T10:20:32Z</time>
      </trkpt>
      <trkpt lat="43.40302" lon="6.65888">
        <ele>148.68814086914</ele>
        <time>2012-10-11T10:20:38Z</time>
      </trkpt>
      <trkpt lat="43.40308" lon="6.65867">
        <ele>150.66575622559</ele>
        <time>2012-10-11T10:20:46Z</time>
      </trkpt>
      <trkpt lat="43.40314" lon="6.65845">
        <ele>151.87501525879</ele>
        <time>2012-10-11T10:20:55Z</time>
      </trkpt>
      <trkpt lat="43.40319" lon="6.65826">
        <ele>152.62854003906</ele>
        <time>2012-10-11T10:21:03Z</time>
      </trkpt>
      <trkpt lat="43.40325" lon="6.65803">
        <ele>153.19993591309</ele>
        <time>2012-10-11T10:21:12Z</time>
      </trkpt>
      <trkpt lat="43.40331" lon="6.658">
        <ele>155.0617980957</ele>
        <time>2012-10-11T10:21:15Z</time>
      </trkpt>
      <trkpt lat="43.40334" lon="6.65804">
        <ele>156.24865722656</ele>
        <time>2012-10-11T10:21:17Z</time>
      </trkpt>
      <trkpt lat="43.40336" lon="6.65817">
        <ele>157.09449768066</ele>
        <time>2012-10-11T10:21:22Z</time>
      </trkpt>
      <trkpt lat="43.40335" lon="6.65822">
        <ele>157.09251403809</ele>
        <time>2012-10-11T10:21:24Z</time>
      </trkpt>
      <trkpt lat="43.40337" lon="6.65835">
        <ele>157.78121948242</ele>
        <time>2012-10-11T10:21:29Z</time>
      </trkpt>
      <trkpt lat="43.4034" lon="6.65844">
        <ele>158.84381103516</ele>
        <time>2012-10-11T10:21:34Z</time>
      </trkpt>
      <trkpt lat="43.40342" lon="6.65844">
        <ele>159.17340087891</ele>
        <time>2012-10-11T10:21:35Z</time>
      </trkpt>
      <trkpt lat="43.40346" lon="6.6584">
        <ele>159.90811157227</ele>
        <time>2012-10-11T10:21:39Z</time>
      </trkpt>
      <trkpt lat="43.40347" lon="6.65838">
        <ele>160.02825927734</ele>
        <time>2012-10-11T10:21:40Z</time>
      </trkpt>
      <trkpt lat="43.40351" lon="6.65829">
        <ele>160.7785949707</ele>
        <time>2012-10-11T10:21:46Z</time>
      </trkpt>
      <trkpt lat="43.40352" lon="6.65812">
        <ele>160.84645080566</ele>
        <time>2012-10-11T10:21:54Z</time>
      </trkpt>
      <trkpt lat="43.40354" lon="6.65802">
        <ele>161.24743652344</ele>
        <time>2012-10-11T10:22:00Z</time>
      </trkpt>
      <trkpt lat="43.40357" lon="6.65787">
        <ele>161.92034912109</ele>
        <time>2012-10-11T10:22:08Z</time>
      </trkpt>
      <trkpt lat="43.40356" lon="6.65773">
        <ele>161.54615783691</ele>
        <time>2012-10-11T10:22:15Z</time>
      </trkpt>
      <trkpt lat="43.40359" lon="6.65756">
        <ele>161.60623168945</ele>
        <time>2012-10-11T10:22:24Z</time>
      </trkpt>
      <trkpt lat="43.40367" lon="6.6575">
        <ele>164.38652038574</ele>
        <time>2012-10-11T10:22:31Z</time>
      </trkpt>
      <trkpt lat="43.40368" lon="6.65751">
        <ele>164.85902404785</ele>
        <time>2012-10-11T10:22:32Z</time>
      </trkpt>
      <trkpt lat="43.40372" lon="6.65758">
        <ele>166.40263366699</ele>
        <time>2012-10-11T10:22:36Z</time>
      </trkpt>
      <trkpt lat="43.40376" lon="6.65768">
        <ele>167.94807434082</ele>
        <time>2012-10-11T10:22:43Z</time>
      </trkpt>
      <trkpt lat="43.40383" lon="6.65778">
        <ele>170.01506042481</ele>
        <time>2012-10-11T10:22:50Z</time>
      </trkpt>
      <trkpt lat="43.40392" lon="6.65787">
        <ele>172.3777923584</ele>
        <time>2012-10-11T10:22:58Z</time>
      </trkpt>
      <trkpt lat="43.40404" lon="6.65797">
        <ele>174.65878295898</ele>
        <time>2012-10-11T10:23:08Z</time>
      </trkpt>
      <trkpt lat="43.4041" lon="6.65805">
        <ele>175.62699890137</ele>
        <time>2012-10-11T10:23:17Z</time>
      </trkpt>
      <trkpt lat="43.40416" lon="6.65805">
        <ele>176.79248046875</ele>
        <time>2012-10-11T10:23:28Z</time>
      </trkpt>
      <trkpt lat="43.40418" lon="6.65804">
        <ele>177.36222839356</ele>
        <time>2012-10-11T10:23:35Z</time>
      </trkpt>
      <trkpt lat="43.4042" lon="6.65796">
        <ele>178.14054870606</ele>
        <time>2012-10-11T10:23:44Z</time>
      </trkpt>
      <trkpt lat="43.40421" lon="6.65788">
        <ele>178.84519958496</ele>
        <time>2012-10-11T10:23:54Z</time>
      </trkpt>
      <trkpt lat="43.40422" lon="6.65785">
        <ele>179.09434509277</ele>
        <time>2012-10-11T10:24:00Z</time>
      </trkpt>
      <trkpt lat="43.40421" lon="6.65785">
        <ele>178.96714782715</ele>
        <time>2012-10-11T10:24:06Z</time>
      </trkpt>
      <trkpt lat="43.40422" lon="6.65781">
        <ele>179.34111022949</ele>
        <time>2012-10-11T10:24:13Z</time>
      </trkpt>
      <trkpt lat="43.40424" lon="6.65773">
        <ele>179.98332214356</ele>
        <time>2012-10-11T10:24:23Z</time>
      </trkpt>
      <trkpt lat="43.40425" lon="6.65768">
        <ele>180.34831237793</ele>
        <time>2012-10-11T10:24:30Z</time>
      </trkpt>
      <trkpt lat="43.40427" lon="6.65763">
        <ele>180.8553314209</ele>
        <time>2012-10-11T10:24:37Z</time>
      </trkpt>
      <trkpt lat="43.40429" lon="6.65759">
        <ele>181.34660339356</ele>
        <time>2012-10-11T10:24:44Z</time>
      </trkpt>
      <trkpt lat="43.40431" lon="6.65755">
        <ele>181.80293273926</ele>
        <time>2012-10-11T10:24:50Z</time>
      </trkpt>
      <trkpt lat="43.40432" lon="6.65749">
        <ele>182.30368041992</ele>
        <time>2012-10-11T10:24:57Z</time>
      </trkpt>
      <trkpt lat="43.40433" lon="6.65744">
        <ele>182.71499633789</ele>
        <time>2012-10-11T10:25:04Z</time>
      </trkpt>
      <trkpt lat="43.40435" lon="6.65739">
        <ele>183.32391357422</ele>
        <time>2012-10-11T10:25:12Z</time>
      </trkpt>
      <trkpt lat="43.40437" lon="6.65736">
        <ele>183.76028442383</ele>
        <time>2012-10-11T10:25:18Z</time>
      </trkpt>
      <trkpt lat="43.40441" lon="6.65731">
        <ele>184.79640197754</ele>
        <time>2012-10-11T10:25:28Z</time>
      </trkpt>
      <trkpt lat="43.40446" lon="6.65724">
        <ele>186.27249145508</ele>
        <time>2012-10-11T10:25:38Z</time>
      </trkpt>
      <trkpt lat="43.4045" lon="6.65718">
        <ele>187.8494720459</ele>
        <time>2012-10-11T10:25:48Z</time>
      </trkpt>
      <trkpt lat="43.40454" lon="6.65711">
        <ele>189.82705688477</ele>
        <time>2012-10-11T10:25:56Z</time>
      </trkpt>
      <trkpt lat="43.40461" lon="6.65704">
        <ele>192.65867614746</ele>
        <time>2012-10-11T10:26:05Z</time>
      </trkpt>
      <trkpt lat="43.40465" lon="6.65697">
        <ele>194.79740905762</ele>
        <time>2012-10-11T10:26:14Z</time>
      </trkpt>
      <trkpt lat="43.4047" lon="6.6569">
        <ele>197.31423950195</ele>
        <time>2012-10-11T10:26:22Z</time>
      </trkpt>
      <trkpt lat="43.40474" lon="6.65684">
        <ele>199.02760314941</ele>
        <time>2012-10-11T10:26:29Z</time>
      </trkpt>
      <trkpt lat="43.40478" lon="6.65679">
        <ele>200.18116760254</ele>
        <time>2012-10-11T10:26:37Z</time>
      </trkpt>
      <trkpt lat="43.40484" lon="6.65675">
        <ele>201.56819152832</ele>
        <time>2012-10-11T10:26:46Z</time>
      </trkpt>
      <trkpt lat="43.40486" lon="6.65674">
        <ele>201.99391174316</ele>
        <time>2012-10-11T10:26:52Z</time>
      </trkpt>
      <trkpt lat="43.40489" lon="6.65673">
        <ele>202.62562561035</ele>
        <time>2012-10-11T10:26:58Z</time>
      </trkpt>
      <trkpt lat="43.40492" lon="6.65672">
        <ele>203.18524169922</ele>
        <time>2012-10-11T10:27:03Z</time>
      </trkpt>
      <trkpt lat="43.40499" lon="6.65669">
        <ele>204.72676086426</ele>
        <time>2012-10-11T10:27:11Z</time>
      </trkpt>
      <trkpt lat="43.40511" lon="6.65665">
        <ele>208.0383605957</ele>
        <time>2012-10-11T10:27:23Z</time>
      </trkpt>
      <trkpt lat="43.40517" lon="6.65662">
        <ele>209.63104248047</ele>
        <time>2012-10-11T10:27:32Z</time>
      </trkpt>
      <trkpt lat="43.40521" lon="6.65655">
        <ele>211.48115539551</ele>
        <time>2012-10-11T10:27:38Z</time>
      </trkpt>
      <trkpt lat="43.40526" lon="6.65647">
        <ele>213.67272949219</ele>
        <time>2012-10-11T10:27:45Z</time>
      </trkpt>
      <trkpt lat="43.40533" lon="6.65637">
        <ele>216.33227539062</ele>
        <time>2012-10-11T10:27:54Z</time>
      </trkpt>
      <trkpt lat="43.40541" lon="6.65626">
        <ele>218.84471130371</ele>
        <time>2012-10-11T10:28:03Z</time>
      </trkpt>
      <trkpt lat="43.40545" lon="6.65619">
        <ele>219.89392089844</ele>
        <time>2012-10-11T10:28:08Z</time>
      </trkpt>
      <trkpt lat="43.40548" lon="6.65617">
        <ele>220.53170776367</ele>
        <time>2012-10-11T10:28:10Z</time>
      </trkpt>
      <trkpt lat="43.4055" lon="6.65615">
        <ele>220.98649597168</ele>
        <time>2012-10-11T10:28:12Z</time>
      </trkpt>
      <trkpt lat="43.40557" lon="6.65611">
        <ele>222.21623229981</ele>
        <time>2012-10-11T10:28:19Z</time>
      </trkpt>
      <trkpt lat="43.40567" lon="6.65604">
        <ele>223.08483886719</ele>
        <time>2012-10-11T10:28:26Z</time>
      </trkpt>
      <trkpt lat="43.40579" lon="6.65595">
        <ele>224.16973876953</ele>
        <time>2012-10-11T10:28:36Z</time>
      </trkpt>
      <trkpt lat="43.40586" lon="6.65584">
        <ele>224.66662597656</ele>
        <time>2012-10-11T10:28:42Z</time>
      </trkpt>
      <trkpt lat="43.40593" lon="6.65567">
        <ele>225.33099365234</ele>
        <time>2012-10-11T10:28:50Z</time>
      </trkpt>
      <trkpt lat="43.40597" lon="6.65548">
        <ele>225.28268432617</ele>
        <time>2012-10-11T10:28:58Z</time>
      </trkpt>
      <trkpt lat="43.40605" lon="6.65528">
        <ele>225.3994140625</ele>
        <time>2012-10-11T10:29:05Z</time>
      </trkpt>
      <trkpt lat="43.40616" lon="6.65506">
        <ele>225.45684814453</ele>
        <time>2012-10-11T10:29:09Z</time>
      </trkpt>
      <trkpt lat="43.40633" lon="6.65474">
        <ele>225.42967224121</ele>
        <time>2012-10-11T10:29:13Z</time>
      </trkpt>
      <trkpt lat="43.40638" lon="6.65471">
        <ele>225.83958435059</ele>
        <time>2012-10-11T10:29:14Z</time>
      </trkpt>
      <trkpt lat="43.40649" lon="6.65471">
        <ele>230.74545288086</ele>
        <time>2012-10-11T10:29:17Z</time>
      </trkpt>
      <trkpt lat="43.40656" lon="6.65473">
        <ele>233.80693054199</ele>
        <time>2012-10-11T10:29:19Z</time>
      </trkpt>
      <trkpt lat="43.4066" lon="6.65476">
        <ele>236.28421020508</ele>
        <time>2012-10-11T10:29:21Z</time>
      </trkpt>
      <trkpt lat="43.40663" lon="6.65477">
        <ele>237.5743560791</ele>
        <time>2012-10-11T10:29:22Z</time>
      </trkpt>
      <trkpt lat="43.40681" lon="6.65483">
        <ele>240.71383666992</ele>
        <time>2012-10-11T10:29:28Z</time>
      </trkpt>
      <trkpt lat="43.40699" lon="6.65487">
        <ele>242.16418457031</ele>
        <time>2012-10-11T10:29:36Z</time>
      </trkpt>
      <trkpt lat="43.40711" lon="6.65487">
        <ele>242.58990478516</ele>
        <time>2012-10-11T10:29:43Z</time>
      </trkpt>
      <trkpt lat="43.40712" lon="6.65487">
        <ele>242.61737060547</ele>
        <time>2012-10-11T10:29:48Z</time>
      </trkpt>
      <trkpt lat="43.40717" lon="6.65477">
        <ele>242.80963134766</ele>
        <time>2012-10-11T10:30:13Z</time>
      </trkpt>
      <trkpt lat="43.40719" lon="6.65452">
        <ele>242.87829589844</ele>
        <time>2012-10-11T10:30:22Z</time>
      </trkpt>
      <trkpt lat="43.40721" lon="6.65435">
        <ele>242.94776916504</ele>
        <time>2012-10-11T10:30:28Z</time>
      </trkpt>
      <trkpt lat="43.40728" lon="6.65422">
        <ele>243.54777526856</ele>
        <time>2012-10-11T10:30:34Z</time>
      </trkpt>
      <trkpt lat="43.40734" lon="6.65403">
        <ele>244.4426574707</ele>
        <time>2012-10-11T10:30:42Z</time>
      </trkpt>
      <trkpt lat="43.40735" lon="6.65391">
        <ele>244.84739685059</ele>
        <time>2012-10-11T10:30:47Z</time>
      </trkpt>
      <trkpt lat="43.40736" lon="6.65385">
        <ele>244.98413085938</ele>
        <time>2012-10-11T10:30:49Z</time>
      </trkpt>
      <trkpt lat="43.40738" lon="6.6538">
        <ele>245.2361907959</ele>
        <time>2012-10-11T10:30:51Z</time>
      </trkpt>
      <trkpt lat="43.40743" lon="6.6537">
        <ele>246.31022644043</ele>
        <time>2012-10-11T10:30:56Z</time>
      </trkpt>
      <trkpt lat="43.40748" lon="6.65354">
        <ele>247.73297119141</ele>
        <time>2012-10-11T10:31:04Z</time>
      </trkpt>
      <trkpt lat="43.40752" lon="6.65335">
        <ele>249.5715637207</ele>
        <time>2012-10-11T10:31:14Z</time>
      </trkpt>
      <trkpt lat="43.40752" lon="6.65327">
        <ele>250.00309753418</ele>
        <time>2012-10-11T10:31:21Z</time>
      </trkpt>
      <trkpt lat="43.40752" lon="6.65328">
        <ele>249.98593139648</ele>
        <time>2012-10-11T10:31:29Z</time>
      </trkpt>
      <trkpt lat="43.40758" lon="6.65323">
        <ele>251.88623046875</ele>
        <time>2012-10-11T10:31:49Z</time>
      </trkpt>
      <trkpt lat="43.40762" lon="6.65315">
        <ele>253.54791259766</ele>
        <time>2012-10-11T10:31:57Z</time>
      </trkpt>
      <trkpt lat="43.40768" lon="6.65305">
        <ele>255.9914855957</ele>
        <time>2012-10-11T10:32:08Z</time>
      </trkpt>
      <trkpt lat="43.40773" lon="6.65298">
        <ele>257.80758666992</ele>
        <time>2012-10-11T10:32:18Z</time>
      </trkpt>
      <trkpt lat="43.40777" lon="6.6529">
        <ele>259.80401611328</ele>
        <time>2012-10-11T10:32:28Z</time>
      </trkpt>
      <trkpt lat="43.40778" lon="6.65282">
        <ele>260.76998901367</ele>
        <time>2012-10-11T10:32:37Z</time>
      </trkpt>
      <trkpt lat="43.40779" lon="6.65273">
        <ele>261.56121826172</ele>
        <time>2012-10-11T10:32:45Z</time>
      </trkpt>
      <trkpt lat="43.40782" lon="6.65268">
        <ele>262.57769775391</ele>
        <time>2012-10-11T10:32:51Z</time>
      </trkpt>
      <trkpt lat="43.40785" lon="6.65268">
        <ele>263.22012329102</ele>
        <time>2012-10-11T10:32:54Z</time>
      </trkpt>
      <trkpt lat="43.4079" lon="6.65266">
        <ele>264.32943725586</ele>
        <time>2012-10-11T10:33:03Z</time>
      </trkpt>
      <trkpt lat="43.40793" lon="6.65263">
        <ele>265.04107666016</ele>
        <time>2012-10-11T10:33:08Z</time>
      </trkpt>
      <trkpt lat="43.40797" lon="6.65257">
        <ele>266.12835693359</ele>
        <time>2012-10-11T10:33:17Z</time>
      </trkpt>
      <trkpt lat="43.408" lon="6.65251">
        <ele>266.90615844727</ele>
        <time>2012-10-11T10:33:26Z</time>
      </trkpt>
      <trkpt lat="43.40803" lon="6.6524">
        <ele>268.54135131836</ele>
        <time>2012-10-11T10:33:36Z</time>
      </trkpt>
      <trkpt lat="43.40804" lon="6.65231">
        <ele>269.68844604492</ele>
        <time>2012-10-11T10:33:45Z</time>
      </trkpt>
      <trkpt lat="43.40802" lon="6.65223">
        <ele>270.10491943359</ele>
        <time>2012-10-11T10:33:51Z</time>
      </trkpt>
      <trkpt lat="43.40802" lon="6.65221">
        <ele>270.27337646484</ele>
        <time>2012-10-11T10:33:53Z</time>
      </trkpt>
      <trkpt lat="43.40801" lon="6.6522">
        <ele>270.28802490234</ele>
        <time>2012-10-11T10:33:54Z</time>
      </trkpt>
      <trkpt lat="43.40798" lon="6.65209">
        <ele>270.66256713867</ele>
        <time>2012-10-11T10:34:02Z</time>
      </trkpt>
      <trkpt lat="43.40797" lon="6.65208">
        <ele>270.58139038086</ele>
        <time>2012-10-11T10:34:08Z</time>
      </trkpt>
      <trkpt lat="43.40795" lon="6.652">
        <ele>270.79211425781</ele>
        <time>2012-10-11T10:34:15Z</time>
      </trkpt>
      <trkpt lat="43.40795" lon="6.65184">
        <ele>271.63781738281</ele>
        <time>2012-10-11T10:34:23Z</time>
      </trkpt>
      <trkpt lat="43.40795" lon="6.65171">
        <ele>272.23345947266</ele>
        <time>2012-10-11T10:34:30Z</time>
      </trkpt>
      <trkpt lat="43.40795" lon="6.65154">
        <ele>273.45263671875</ele>
        <time>2012-10-11T10:34:38Z</time>
      </trkpt>
      <trkpt lat="43.40795" lon="6.65129">
        <ele>275.72369384766</ele>
        <time>2012-10-11T10:34:48Z</time>
      </trkpt>
      <trkpt lat="43.40794" lon="6.65111">
        <ele>276.98114013672</ele>
        <time>2012-10-11T10:34:55Z</time>
      </trkpt>
      <trkpt lat="43.40792" lon="6.65092">
        <ele>277.01913452148</ele>
        <time>2012-10-11T10:35:03Z</time>
      </trkpt>
      <trkpt lat="43.40791" lon="6.65069">
        <ele>277.83999633789</ele>
        <time>2012-10-11T10:35:11Z</time>
      </trkpt>
      <trkpt lat="43.40788" lon="6.65042">
        <ele>279.60412597656</ele>
        <time>2012-10-11T10:35:18Z</time>
      </trkpt>
      <trkpt lat="43.40784" lon="6.65005">
        <ele>281.72787475586</ele>
        <time>2012-10-11T10:35:25Z</time>
      </trkpt>
      <trkpt lat="43.4078" lon="6.64959">
        <ele>283.48904418945</ele>
        <time>2012-10-11T10:35:33Z</time>
      </trkpt>
      <trkpt lat="43.40778" lon="6.64943">
        <ele>285.29885864258</ele>
        <time>2012-10-11T10:35:35Z</time>
      </trkpt>
      <trkpt lat="43.40772" lon="6.64915">
        <ele>285.63262939453</ele>
        <time>2012-10-11T10:35:38Z</time>
      </trkpt>
      <trkpt lat="43.40768" lon="6.64906">
        <ele>285.50903320312</ele>
        <time>2012-10-11T10:35:39Z</time>
      </trkpt>
      <trkpt lat="43.40758" lon="6.64887">
        <ele>283.67327880859</ele>
        <time>2012-10-11T10:35:41Z</time>
      </trkpt>
      <trkpt lat="43.40727" lon="6.64844">
        <ele>280.17471313477</ele>
        <time>2012-10-11T10:35:46Z</time>
      </trkpt>
      <trkpt lat="43.4072" lon="6.64838">
        <ele>278.65032958984</ele>
        <time>2012-10-11T10:35:47Z</time>
      </trkpt>
      <trkpt lat="43.40701" lon="6.64831">
        <ele>277.47515869141</ele>
        <time>2012-10-11T10:35:50Z</time>
      </trkpt>
      <trkpt lat="43.40694" lon="6.64829">
        <ele>276.9684753418</ele>
        <time>2012-10-11T10:35:51Z</time>
      </trkpt>
      <trkpt lat="43.4066" lon="6.64818">
        <ele>274.46398925781</ele>
        <time>2012-10-11T10:35:56Z</time>
      </trkpt>
      <trkpt lat="43.40615" lon="6.64806">
        <ele>274.78375244141</ele>
        <time>2012-10-11T10:36:03Z</time>
      </trkpt>
      <trkpt lat="43.40582" lon="6.648">
        <ele>273.94418334961</ele>
        <time>2012-10-11T10:36:09Z</time>
      </trkpt>
      <trkpt lat="43.40578" lon="6.64798">
        <ele>274.38189697266</ele>
        <time>2012-10-11T10:36:10Z</time>
      </trkpt>
      <trkpt lat="43.40573" lon="6.64787">
        <ele>276.28735351562</ele>
        <time>2012-10-11T10:36:13Z</time>
      </trkpt>
      <trkpt lat="43.40575" lon="6.64773">
        <ele>278.82769775391</ele>
        <time>2012-10-11T10:36:17Z</time>
      </trkpt>
      <trkpt lat="43.40575" lon="6.6477">
        <ele>279.43295288086</ele>
        <time>2012-10-11T10:36:18Z</time>
      </trkpt>
      <trkpt lat="43.40577" lon="6.64757">
        <ele>281.51574707031</ele>
        <time>2012-10-11T10:36:23Z</time>
      </trkpt>
      <trkpt lat="43.40576" lon="6.64754">
        <ele>282.05169677734</ele>
        <time>2012-10-11T10:36:24Z</time>
      </trkpt>
      <trkpt lat="43.40571" lon="6.64751">
        <ele>283.16247558594</ele>
        <time>2012-10-11T10:36:27Z</time>
      </trkpt>
      <trkpt lat="43.40568" lon="6.64748">
        <ele>283.94281005859</ele>
        <time>2012-10-11T10:36:29Z</time>
      </trkpt>
      <trkpt lat="43.40559" lon="6.64741">
        <ele>286.54595947266</ele>
        <time>2012-10-11T10:36:35Z</time>
      </trkpt>
      <trkpt lat="43.40549" lon="6.64733">
        <ele>290.91864013672</ele>
        <time>2012-10-11T10:36:42Z</time>
      </trkpt>
      <trkpt lat="43.40537" lon="6.64725">
        <ele>296.22665405273</ele>
        <time>2012-10-11T10:36:50Z</time>
      </trkpt>
      <trkpt lat="43.40526" lon="6.64722">
        <ele>300.07022094727</ele>
        <time>2012-10-11T10:36:57Z</time>
      </trkpt>
      <trkpt lat="43.40518" lon="6.64716">
        <ele>300.68176269531</ele>
        <time>2012-10-11T10:37:03Z</time>
      </trkpt>
      <trkpt lat="43.40504" lon="6.64706">
        <ele>301.94290161133</ele>
        <time>2012-10-11T10:37:12Z</time>
      </trkpt>
      <trkpt lat="43.40492" lon="6.64698">
        <ele>303.29318237305</ele>
        <time>2012-10-11T10:37:19Z</time>
      </trkpt>
      <trkpt lat="43.40479" lon="6.64693">
        <ele>304.65081787109</ele>
        <time>2012-10-11T10:37:26Z</time>
      </trkpt>
      <trkpt lat="43.40461" lon="6.64692">
        <ele>305.68789672852</ele>
        <time>2012-10-11T10:37:34Z</time>
      </trkpt>
      <trkpt lat="43.40448" lon="6.64685">
        <ele>307.53207397461</ele>
        <time>2012-10-11T10:37:41Z</time>
      </trkpt>
      <trkpt lat="43.40437" lon="6.64678">
        <ele>309.60876464844</ele>
        <time>2012-10-11T10:37:49Z</time>
      </trkpt>
      <trkpt lat="43.40425" lon="6.64671">
        <ele>312.19158935547</ele>
        <time>2012-10-11T10:37:57Z</time>
      </trkpt>
      <trkpt lat="43.40419" lon="6.64668">
        <ele>313.53967285156</ele>
        <time>2012-10-11T10:38:02Z</time>
      </trkpt>
      <trkpt lat="43.404" lon="6.64664">
        <ele>317.88598632812</ele>
        <time>2012-10-11T10:38:12Z</time>
      </trkpt>
      <trkpt lat="43.40382" lon="6.6466">
        <ele>320</ele>
        <time>2012-10-11T10:38:21Z</time>
      </trkpt>
      <trkpt lat="43.40369" lon="6.6466">
        <ele>320</ele>
        <time>2012-10-11T10:38:28Z</time>
      </trkpt>
      <trkpt lat="43.40353" lon="6.64665">
        <ele>320</ele>
        <time>2012-10-11T10:38:38Z</time>
      </trkpt>
      <trkpt lat="43.4034" lon="6.64674">
        <ele>317.37796020508</ele>
        <time>2012-10-11T10:38:44Z</time>
      </trkpt>
      <trkpt lat="43.40322" lon="6.64678">
        <ele>316.12289428711</ele>
        <time>2012-10-11T10:38:49Z</time>
      </trkpt>
      <trkpt lat="43.4031" lon="6.64676">
        <ele>317.10723876953</ele>
        <time>2012-10-11T10:38:54Z</time>
      </trkpt>
      <trkpt lat="43.40292" lon="6.6467">
        <ele>319.04272460938</ele>
        <time>2012-10-11T10:39:03Z</time>
      </trkpt>
      <trkpt lat="43.40276" lon="6.64663">
        <ele>320</ele>
        <time>2012-10-11T10:39:11Z</time>
      </trkpt>
      <trkpt lat="43.40265" lon="6.64654">
        <ele>320</ele>
        <time>2012-10-11T10:39:18Z</time>
      </trkpt>
      <trkpt lat="43.4025" lon="6.64649">
        <ele>320</ele>
        <time>2012-10-11T10:39:25Z</time>
      </trkpt>
      <trkpt lat="43.40231" lon="6.64648">
        <ele>320</ele>
        <time>2012-10-11T10:39:31Z</time>
      </trkpt>
      <trkpt lat="43.40231" lon="6.64648">
        <ele>320</ele>
        <time>2012-10-11T10:39:31Z</time>
      </trkpt>
      <trkpt lat="43.40205" lon="6.64648">
        <ele>320</ele>
        <time>2012-10-11T10:39:39Z</time>
      </trkpt>
      <trkpt lat="43.40182" lon="6.64648">
        <ele>320</ele>
        <time>2012-10-11T10:39:46Z</time>
      </trkpt>
      <trkpt lat="43.40164" lon="6.64651">
        <ele>320</ele>
        <time>2012-10-11T10:39:52Z</time>
      </trkpt>
      <trkpt lat="43.40146" lon="6.64661">
        <ele>320</ele>
        <time>2012-10-11T10:39:56Z</time>
      </trkpt>
      <trkpt lat="43.40129" lon="6.64683">
        <ele>320</ele>
        <time>2012-10-11T10:40:01Z</time>
      </trkpt>
      <trkpt lat="43.40121" lon="6.64695">
        <ele>320</ele>
        <time>2012-10-11T10:40:04Z</time>
      </trkpt>
      <trkpt lat="43.40112" lon="6.64704">
        <ele>320</ele>
        <time>2012-10-11T10:40:07Z</time>
      </trkpt>
      <trkpt lat="43.40095" lon="6.64711">
        <ele>320</ele>
        <time>2012-10-11T10:40:12Z</time>
      </trkpt>
      <trkpt lat="43.4008" lon="6.64728">
        <ele>319.09625244141</ele>
        <time>2012-10-11T10:40:18Z</time>
      </trkpt>
      <trkpt lat="43.40064" lon="6.64748">
        <ele>316.32748413086</ele>
        <time>2012-10-11T10:40:25Z</time>
      </trkpt>
      <trkpt lat="43.40059" lon="6.64756">
        <ele>314.63931274414</ele>
        <time>2012-10-11T10:40:30Z</time>
      </trkpt>
      <trkpt lat="43.40052" lon="6.64772">
        <ele>310.71926879883</ele>
        <time>2012-10-11T11:14:12Z</time>
      </trkpt>
      <trkpt lat="43.40051" lon="6.64772">
        <ele>310.44616699219</ele>
        <time>2012-10-11T11:14:18Z</time>
      </trkpt>
      <trkpt lat="43.40046" lon="6.64782">
        <ele>307.37432861328</ele>
        <time>2012-10-11T11:14:34Z</time>
      </trkpt>
      <trkpt lat="43.40036" lon="6.64803">
        <ele>302.70700073242</ele>
        <time>2012-10-11T11:14:37Z</time>
      </trkpt>
      <trkpt lat="43.40034" lon="6.64811">
        <ele>301.48416137695</ele>
        <time>2012-10-11T11:14:38Z</time>
      </trkpt>
      <trkpt lat="43.4003" lon="6.64826">
        <ele>300.39727783203</ele>
        <time>2012-10-11T11:14:40Z</time>
      </trkpt>
      <trkpt lat="43.40027" lon="6.64829">
        <ele>299.65426635742</ele>
        <time>2012-10-11T11:14:41Z</time>
      </trkpt>
      <trkpt lat="43.40009" lon="6.64826">
        <ele>293.2783203125</ele>
        <time>2012-10-11T11:14:44Z</time>
      </trkpt>
      <trkpt lat="43.40003" lon="6.64824">
        <ele>291.34262084961</ele>
        <time>2012-10-11T11:14:45Z</time>
      </trkpt>
      <trkpt lat="43.39991" lon="6.64821">
        <ele>289.27575683594</ele>
        <time>2012-10-11T11:14:47Z</time>
      </trkpt>
      <trkpt lat="43.39978" lon="6.64824">
        <ele>286.55062866211</ele>
        <time>2012-10-11T11:14:49Z</time>
      </trkpt>
      <trkpt lat="43.39951" lon="6.64836">
        <ele>280.97445678711</ele>
        <time>2012-10-11T11:14:53Z</time>
      </trkpt>
      <trkpt lat="43.39931" lon="6.64839">
        <ele>277.91455078125</ele>
        <time>2012-10-11T11:14:56Z</time>
      </trkpt>
      <trkpt lat="43.39926" lon="6.64842">
        <ele>277.21276855469</ele>
        <time>2012-10-11T11:14:57Z</time>
      </trkpt>
      <trkpt lat="43.39921" lon="6.64842">
        <ele>276.59817504883</ele>
        <time>2012-10-11T11:14:58Z</time>
      </trkpt>
      <trkpt lat="43.39915" lon="6.64842">
        <ele>275.61822509766</ele>
        <time>2012-10-11T11:14:59Z</time>
      </trkpt>
      <trkpt lat="43.399" lon="6.64842">
        <ele>272.02770996094</ele>
        <time>2012-10-11T11:15:01Z</time>
      </trkpt>
      <trkpt lat="43.39893" lon="6.64844">
        <ele>270.4440612793</ele>
        <time>2012-10-11T11:15:02Z</time>
      </trkpt>
      <trkpt lat="43.3988" lon="6.64853">
        <ele>268.37847900391</ele>
        <time>2012-10-11T11:15:04Z</time>
      </trkpt>
      <trkpt lat="43.39874" lon="6.64864">
        <ele>267.83782958984</ele>
        <time>2012-10-11T11:15:06Z</time>
      </trkpt>
      <trkpt lat="43.3987" lon="6.6488">
        <ele>267.80197143555</ele>
        <time>2012-10-11T11:15:09Z</time>
      </trkpt>
      <trkpt lat="43.39862" lon="6.64884">
        <ele>266.89886474609</ele>
        <time>2012-10-11T11:15:11Z</time>
      </trkpt>
      <trkpt lat="43.39857" lon="6.64887">
        <ele>266.5143737793</ele>
        <time>2012-10-11T11:15:12Z</time>
      </trkpt>
      <trkpt lat="43.39845" lon="6.64905">
        <ele>265.24859619141</ele>
        <time>2012-10-11T11:15:15Z</time>
      </trkpt>
      <trkpt lat="43.39829" lon="6.64922">
        <ele>263.51626586914</ele>
        <time>2012-10-11T11:15:18Z</time>
      </trkpt>
      <trkpt lat="43.39811" lon="6.64936">
        <ele>262.25180053711</ele>
        <time>2012-10-11T11:15:21Z</time>
      </trkpt>
      <trkpt lat="43.39795" lon="6.64956">
        <ele>257.61312866211</ele>
        <time>2012-10-11T11:15:24Z</time>
      </trkpt>
      <trkpt lat="43.39776" lon="6.64965">
        <ele>249.4045715332</ele>
        <time>2012-10-11T11:15:27Z</time>
      </trkpt>
      <trkpt lat="43.39758" lon="6.64965">
        <ele>244.42492675781</ele>
        <time>2012-10-11T11:15:30Z</time>
      </trkpt>
      <trkpt lat="43.39736" lon="6.64976">
        <ele>242</ele>
        <time>2012-10-11T11:15:33Z</time>
      </trkpt>
      <trkpt lat="43.39704" lon="6.65">
        <ele>241.34875488281</ele>
        <time>2012-10-11T11:15:37Z</time>
      </trkpt>
      <trkpt lat="43.39689" lon="6.65013">
        <ele>240.61131286621</ele>
        <time>2012-10-11T11:15:39Z</time>
      </trkpt>
      <trkpt lat="43.39677" lon="6.6503">
        <ele>238.72811889648</ele>
        <time>2012-10-11T11:15:41Z</time>
      </trkpt>
      <trkpt lat="43.3967" lon="6.65037">
        <ele>236.54371643066</ele>
        <time>2012-10-11T11:15:42Z</time>
      </trkpt>
      <trkpt lat="43.39657" lon="6.6505">
        <ele>230.10684204102</ele>
        <time>2012-10-11T11:15:44Z</time>
      </trkpt>
      <trkpt lat="43.39639" lon="6.65069">
        <ele>222.56025695801</ele>
        <time>2012-10-11T11:15:47Z</time>
      </trkpt>
      <trkpt lat="43.39634" lon="6.65072">
        <ele>220.64329528809</ele>
        <time>2012-10-11T11:15:48Z</time>
      </trkpt>
      <trkpt lat="43.39615" lon="6.65064">
        <ele>216.06730651856</ele>
        <time>2012-10-11T11:15:51Z</time>
      </trkpt>
      <trkpt lat="43.39607" lon="6.6506">
        <ele>214.35406494141</ele>
        <time>2012-10-11T11:15:52Z</time>
      </trkpt>
      <trkpt lat="43.396" lon="6.65059">
        <ele>212.85270690918</ele>
        <time>2012-10-11T11:15:53Z</time>
      </trkpt>
      <trkpt lat="43.39588" lon="6.65063">
        <ele>209.33982849121</ele>
        <time>2012-10-11T11:15:55Z</time>
      </trkpt>
      <trkpt lat="43.39574" lon="6.65073">
        <ele>204.84524536133</ele>
        <time>2012-10-11T11:15:58Z</time>
      </trkpt>
      <trkpt lat="43.39569" lon="6.65074">
        <ele>203.48796081543</ele>
        <time>2012-10-11T11:15:59Z</time>
      </trkpt>
      <trkpt lat="43.3955" lon="6.6508">
        <ele>199.16761779785</ele>
        <time>2012-10-11T11:16:02Z</time>
      </trkpt>
      <trkpt lat="43.39539" lon="6.651">
        <ele>195.80155944824</ele>
        <time>2012-10-11T11:16:05Z</time>
      </trkpt>
      <trkpt lat="43.39527" lon="6.65113">
        <ele>192.58683776856</ele>
        <time>2012-10-11T11:16:08Z</time>
      </trkpt>
      <trkpt lat="43.39511" lon="6.65108">
        <ele>189.54832458496</ele>
        <time>2012-10-11T11:16:11Z</time>
      </trkpt>
      <trkpt lat="43.39505" lon="6.65105">
        <ele>188.26690673828</ele>
        <time>2012-10-11T11:16:12Z</time>
      </trkpt>
      <trkpt lat="43.39488" lon="6.65094">
        <ele>184.66487121582</ele>
        <time>2012-10-11T11:16:15Z</time>
      </trkpt>
      <trkpt lat="43.39479" lon="6.65087">
        <ele>182.70278930664</ele>
        <time>2012-10-11T11:16:17Z</time>
      </trkpt>
      <trkpt lat="43.39476" lon="6.65084">
        <ele>181.94918823242</ele>
        <time>2012-10-11T11:16:18Z</time>
      </trkpt>
      <trkpt lat="43.39474" lon="6.6508">
        <ele>181.10168457031</ele>
        <time>2012-10-11T11:16:19Z</time>
      </trkpt>
      <trkpt lat="43.39465" lon="6.65071">
        <ele>178.55549621582</ele>
        <time>2012-10-11T11:16:22Z</time>
      </trkpt>
      <trkpt lat="43.39455" lon="6.65072">
        <ele>177.34930419922</ele>
        <time>2012-10-11T11:16:25Z</time>
      </trkpt>
      <trkpt lat="43.39441" lon="6.6508">
        <ele>176.68006896973</ele>
        <time>2012-10-11T11:16:29Z</time>
      </trkpt>
      <trkpt lat="43.39432" lon="6.65087">
        <ele>175.13272094727</ele>
        <time>2012-10-11T11:16:32Z</time>
      </trkpt>
      <trkpt lat="43.39421" lon="6.65094">
        <ele>172.48399353027</ele>
        <time>2012-10-11T11:16:35Z</time>
      </trkpt>
      <trkpt lat="43.39411" lon="6.65118">
        <ele>169.7673034668</ele>
        <time>2012-10-11T11:16:38Z</time>
      </trkpt>
      <trkpt lat="43.39404" lon="6.65145">
        <ele>167.2756652832</ele>
        <time>2012-10-11T11:16:41Z</time>
      </trkpt>
      <trkpt lat="43.39403" lon="6.65164">
        <ele>166.1690826416</ele>
        <time>2012-10-11T11:16:43Z</time>
      </trkpt>
      <trkpt lat="43.39401" lon="6.6517">
        <ele>165.72741699219</ele>
        <time>2012-10-11T11:16:44Z</time>
      </trkpt>
      <trkpt lat="43.39396" lon="6.65174">
        <ele>164.94264221191</ele>
        <time>2012-10-11T11:16:46Z</time>
      </trkpt>
      <trkpt lat="43.39392" lon="6.65166">
        <ele>164.41366577148</ele>
        <time>2012-10-11T11:16:49Z</time>
      </trkpt>
      <trkpt lat="43.39383" lon="6.65151">
        <ele>164.05303955078</ele>
        <time>2012-10-11T11:16:52Z</time>
      </trkpt>
      <trkpt lat="43.39367" lon="6.65149">
        <ele>162.54681396484</ele>
        <time>2012-10-11T11:16:55Z</time>
      </trkpt>
      <trkpt lat="43.39358" lon="6.6516">
        <ele>161.89300537109</ele>
        <time>2012-10-11T11:16:57Z</time>
      </trkpt>
      <trkpt lat="43.39353" lon="6.65164">
        <ele>161.71447753906</ele>
        <time>2012-10-11T11:16:58Z</time>
      </trkpt>
      <trkpt lat="43.39344" lon="6.65183">
        <ele>161.74700927734</ele>
        <time>2012-10-11T11:17:01Z</time>
      </trkpt>
      <trkpt lat="43.39345" lon="6.65201">
        <ele>161.74696350098</ele>
        <time>2012-10-11T11:17:03Z</time>
      </trkpt>
      <trkpt lat="43.39344" lon="6.65219">
        <ele>161.10494995117</ele>
        <time>2012-10-11T11:17:05Z</time>
      </trkpt>
      <trkpt lat="43.39333" lon="6.65234">
        <ele>161</ele>
        <time>2012-10-11T11:17:08Z</time>
      </trkpt>
      <trkpt lat="43.3931" lon="6.65244">
        <ele>160.33546447754</ele>
        <time>2012-10-11T11:17:12Z</time>
      </trkpt>
      <trkpt lat="43.39299" lon="6.65261">
        <ele>157.76507568359</ele>
        <time>2012-10-11T11:17:15Z</time>
      </trkpt>
      <trkpt lat="43.39297" lon="6.65285">
        <ele>154.92407226562</ele>
        <time>2012-10-11T11:17:18Z</time>
      </trkpt>
      <trkpt lat="43.39294" lon="6.6532">
        <ele>151.33352661133</ele>
        <time>2012-10-11T11:17:22Z</time>
      </trkpt>
      <trkpt lat="43.39285" lon="6.65347">
        <ele>148.98147583008</ele>
        <time>2012-10-11T11:17:25Z</time>
      </trkpt>
      <trkpt lat="43.39282" lon="6.65358">
        <ele>148.30587768555</ele>
        <time>2012-10-11T11:17:26Z</time>
      </trkpt>
      <trkpt lat="43.39279" lon="6.65368">
        <ele>147.7978515625</ele>
        <time>2012-10-11T11:17:27Z</time>
      </trkpt>
      <trkpt lat="43.3927" lon="6.65384">
        <ele>146.47239685059</ele>
        <time>2012-10-11T11:17:29Z</time>
      </trkpt>
      <trkpt lat="43.39258" lon="6.65411">
        <ele>146.16072082519</ele>
        <time>2012-10-11T11:17:32Z</time>
      </trkpt>
      <trkpt lat="43.39252" lon="6.65433">
        <ele>147.11195373535</ele>
        <time>2012-10-11T11:17:34Z</time>
      </trkpt>
      <trkpt lat="43.39246" lon="6.65451">
        <ele>148.81359863281</ele>
        <time>2012-10-11T11:17:36Z</time>
      </trkpt>
      <trkpt lat="43.39228" lon="6.65468">
        <ele>151.95198059082</ele>
        <time>2012-10-11T11:17:39Z</time>
      </trkpt>
      <trkpt lat="43.39202" lon="6.655">
        <ele>158.89585876465</ele>
        <time>2012-10-11T11:17:44Z</time>
      </trkpt>
      <trkpt lat="43.39197" lon="6.65505">
        <ele>159.68054199219</ele>
        <time>2012-10-11T11:17:45Z</time>
      </trkpt>
      <trkpt lat="43.39182" lon="6.65514">
        <ele>160</ele>
        <time>2012-10-11T11:17:48Z</time>
      </trkpt>
      <trkpt lat="43.39169" lon="6.6553">
        <ele>160</ele>
        <time>2012-10-11T11:17:52Z</time>
      </trkpt>
      <trkpt lat="43.39165" lon="6.65536">
        <ele>160</ele>
        <time>2012-10-11T11:17:54Z</time>
      </trkpt>
      <trkpt lat="43.39162" lon="6.65539">
        <ele>160</ele>
        <time>2012-10-11T11:17:55Z</time>
      </trkpt>
      <trkpt lat="43.39157" lon="6.65544">
        <ele>160</ele>
        <time>2012-10-11T11:17:57Z</time>
      </trkpt>
      <trkpt lat="43.39154" lon="6.65546">
        <ele>160</ele>
        <time>2012-10-11T11:17:58Z</time>
      </trkpt>
      <trkpt lat="43.39148" lon="6.65552">
        <ele>160</ele>
        <time>2012-10-11T11:18:01Z</time>
      </trkpt>
      <trkpt lat="43.39148" lon="6.65558">
        <ele>160</ele>
        <time>2012-10-11T11:18:03Z</time>
      </trkpt>
      <trkpt lat="43.39154" lon="6.65568">
        <ele>160</ele>
        <time>2012-10-11T11:18:06Z</time>
      </trkpt>
      <trkpt lat="43.39157" lon="6.65572">
        <ele>160</ele>
        <time>2012-10-11T11:18:07Z</time>
      </trkpt>
      <trkpt lat="43.39166" lon="6.65596">
        <ele>160</ele>
        <time>2012-10-11T11:18:12Z</time>
      </trkpt>
      <trkpt lat="43.39165" lon="6.65617">
        <ele>160</ele>
        <time>2012-10-11T11:18:16Z</time>
      </trkpt>
      <trkpt lat="43.39157" lon="6.65651">
        <ele>159.68447875977</ele>
        <time>2012-10-11T11:18:23Z</time>
      </trkpt>
      <trkpt lat="43.39156" lon="6.65663">
        <ele>159.34823608398</ele>
        <time>2012-10-11T11:18:26Z</time>
      </trkpt>
      <trkpt lat="43.39159" lon="6.65665">
        <ele>159.45497131348</ele>
        <time>2012-10-11T11:18:27Z</time>
      </trkpt>
      <trkpt lat="43.39168" lon="6.65675">
        <ele>157.69163513184</ele>
        <time>2012-10-11T11:18:30Z</time>
      </trkpt>
      <trkpt lat="43.39172" lon="6.65678">
        <ele>157.12785339356</ele>
        <time>2012-10-11T11:18:31Z</time>
      </trkpt>
      <trkpt lat="43.39188" lon="6.657">
        <ele>155.56185913086</ele>
        <time>2012-10-11T11:18:36Z</time>
      </trkpt>
      <trkpt lat="43.39192" lon="6.65711">
        <ele>153.82121276856</ele>
        <time>2012-10-11T11:18:38Z</time>
      </trkpt>
      <trkpt lat="43.39199" lon="6.65725">
        <ele>151.57582092285</ele>
        <time>2012-10-11T11:18:41Z</time>
      </trkpt>
      <trkpt lat="43.39199" lon="6.65735">
        <ele>148.41162109375</ele>
        <time>2012-10-11T11:18:43Z</time>
      </trkpt>
      <trkpt lat="43.39198" lon="6.65746">
        <ele>144.82411193848</ele>
        <time>2012-10-11T11:18:45Z</time>
      </trkpt>
      <trkpt lat="43.39205" lon="6.65764">
        <ele>141.32258605957</ele>
        <time>2012-10-11T11:18:48Z</time>
      </trkpt>
      <trkpt lat="43.39218" lon="6.65784">
        <ele>138.57427978516</ele>
        <time>2012-10-11T11:18:53Z</time>
      </trkpt>
      <trkpt lat="43.3922" lon="6.65788">
        <ele>138.14855957031</ele>
        <time>2012-10-11T11:18:54Z</time>
      </trkpt>
      <trkpt lat="43.3922" lon="6.658">
        <ele>136.41134643555</ele>
        <time>2012-10-11T11:18:56Z</time>
      </trkpt>
      <trkpt lat="43.39225" lon="6.65823">
        <ele>132.35615539551</ele>
        <time>2012-10-11T11:18:59Z</time>
      </trkpt>
      <trkpt lat="43.39226" lon="6.65831">
        <ele>130.76623535156</ele>
        <time>2012-10-11T11:19:00Z</time>
      </trkpt>
      <trkpt lat="43.39233" lon="6.65868">
        <ele>124.28833007812</ele>
        <time>2012-10-11T11:19:04Z</time>
      </trkpt>
      <trkpt lat="43.3923" lon="6.65891">
        <ele>120.81495666504</ele>
        <time>2012-10-11T11:19:07Z</time>
      </trkpt>
      <trkpt lat="43.39228" lon="6.65909">
        <ele>117.69618225098</ele>
        <time>2012-10-11T11:19:11Z</time>
      </trkpt>
      <trkpt lat="43.39227" lon="6.65914">
        <ele>116.85556793213</ele>
        <time>2012-10-11T11:19:12Z</time>
      </trkpt>
      <trkpt lat="43.39221" lon="6.6594">
        <ele>111.70550537109</ele>
        <time>2012-10-11T11:19:17Z</time>
      </trkpt>
      <trkpt lat="43.39219" lon="6.65943">
        <ele>110.88134002685</ele>
        <time>2012-10-11T11:19:18Z</time>
      </trkpt>
      <trkpt lat="43.39214" lon="6.65948">
        <ele>109.40738677978</ele>
        <time>2012-10-11T11:19:20Z</time>
      </trkpt>
      <trkpt lat="43.39208" lon="6.65961">
        <ele>107.18265533447</ele>
        <time>2012-10-11T11:19:24Z</time>
      </trkpt>
      <trkpt lat="43.39209" lon="6.65977">
        <ele>105.31254577637</ele>
        <time>2012-10-11T11:19:28Z</time>
      </trkpt>
      <trkpt lat="43.3921" lon="6.65994">
        <ele>102.76972961426</ele>
        <time>2012-10-11T11:19:32Z</time>
      </trkpt>
      <trkpt lat="43.39212" lon="6.66014">
        <ele>99.705513000488</ele>
        <time>2012-10-11T11:19:36Z</time>
      </trkpt>
      <trkpt lat="43.39207" lon="6.66026">
        <ele>97.233489990234</ele>
        <time>2012-10-11T11:19:39Z</time>
      </trkpt>
      <trkpt lat="43.39216" lon="6.66037">
        <ele>96.806503295898</ele>
        <time>2012-10-11T11:19:42Z</time>
      </trkpt>
      <trkpt lat="43.39222" lon="6.66049">
        <ele>95.888961791992</ele>
        <time>2012-10-11T11:19:45Z</time>
      </trkpt>
      <trkpt lat="43.39227" lon="6.66058">
        <ele>94.915107727051</ele>
        <time>2012-10-11T11:19:48Z</time>
      </trkpt>
      <trkpt lat="43.39222" lon="6.66063">
        <ele>93.540824890137</ele>
        <time>2012-10-11T11:19:51Z</time>
      </trkpt>
      <trkpt lat="43.39219" lon="6.66066">
        <ele>92.804138183594</ele>
        <time>2012-10-11T11:19:52Z</time>
      </trkpt>
      <trkpt lat="43.39218" lon="6.66074">
        <ele>91.29679107666</ele>
        <time>2012-10-11T11:19:54Z</time>
      </trkpt>
      <trkpt lat="43.39224" lon="6.66084">
        <ele>89.892051696777</ele>
        <time>2012-10-11T11:19:57Z</time>
      </trkpt>
      <trkpt lat="43.39221" lon="6.66094">
        <ele>88.00846862793</ele>
        <time>2012-10-11T11:20:00Z</time>
      </trkpt>
      <trkpt lat="43.39211" lon="6.66099">
        <ele>86.653381347656</ele>
        <time>2012-10-11T11:20:02Z</time>
      </trkpt>
      <trkpt lat="43.39206" lon="6.66103">
        <ele>85.71541595459</ele>
        <time>2012-10-11T11:20:03Z</time>
      </trkpt>
      <trkpt lat="43.39206" lon="6.66124">
        <ele>83.341819763184</ele>
        <time>2012-10-11T11:20:06Z</time>
      </trkpt>
      <trkpt lat="43.39209" lon="6.66131">
        <ele>82.683921813965</ele>
        <time>2012-10-11T11:20:07Z</time>
      </trkpt>
      <trkpt lat="43.39211" lon="6.6614">
        <ele>81.835418701172</ele>
        <time>2012-10-11T11:20:08Z</time>
      </trkpt>
      <trkpt lat="43.39214" lon="6.66158">
        <ele>79.3154296875</ele>
        <time>2012-10-11T11:20:10Z</time>
      </trkpt>
      <trkpt lat="43.39214" lon="6.66165">
        <ele>78.203063964844</ele>
        <time>2012-10-11T11:20:11Z</time>
      </trkpt>
      <trkpt lat="43.39214" lon="6.6618">
        <ele>76.55069732666</ele>
        <time>2012-10-11T11:20:13Z</time>
      </trkpt>
      <trkpt lat="43.39213" lon="6.66187">
        <ele>75.773071289062</ele>
        <time>2012-10-11T11:20:14Z</time>
      </trkpt>
      <trkpt lat="43.39213" lon="6.66195">
        <ele>74.987060546875</ele>
        <time>2012-10-11T11:20:15Z</time>
      </trkpt>
      <trkpt lat="43.39211" lon="6.66212">
        <ele>72.51513671875</ele>
        <time>2012-10-11T11:20:18Z</time>
      </trkpt>
      <trkpt lat="43.39211" lon="6.66232">
        <ele>69.528228759766</ele>
        <time>2012-10-11T11:20:22Z</time>
      </trkpt>
      <trkpt lat="43.39205" lon="6.66255">
        <ele>66.419097900391</ele>
        <time>2012-10-11T11:20:26Z</time>
      </trkpt>
      <trkpt lat="43.3921" lon="6.66274">
        <ele>64.426109313965</ele>
        <time>2012-10-11T11:20:29Z</time>
      </trkpt>
      <trkpt lat="43.39211" lon="6.66289">
        <ele>62.425811767578</ele>
        <time>2012-10-11T11:20:31Z</time>
      </trkpt>
      <trkpt lat="43.39211" lon="6.66298">
        <ele>61.128051757812</ele>
        <time>2012-10-11T11:20:32Z</time>
      </trkpt>
      <trkpt lat="43.39209" lon="6.66307">
        <ele>59.809978485107</ele>
        <time>2012-10-11T11:20:33Z</time>
      </trkpt>
      <trkpt lat="43.39207" lon="6.66339">
        <ele>55.913150787354</ele>
        <time>2012-10-11T11:20:36Z</time>
      </trkpt>
      <trkpt lat="43.3921" lon="6.6636">
        <ele>54.235328674316</ele>
        <time>2012-10-11T11:20:38Z</time>
      </trkpt>
      <trkpt lat="43.39211" lon="6.6637">
        <ele>53.112617492676</ele>
        <time>2012-10-11T11:20:39Z</time>
      </trkpt>
      <trkpt lat="43.39211" lon="6.6637">
        <ele>53.112617492676</ele>
        <time>2012-10-11T11:20:39Z</time>
      </trkpt>
      <trkpt lat="43.39212" lon="6.6638">
        <ele>51.939666748047</ele>
        <time>2012-10-11T11:20:40Z</time>
      </trkpt>
      <trkpt lat="43.39218" lon="6.66409">
        <ele>48.571563720703</ele>
        <time>2012-10-11T11:20:43Z</time>
      </trkpt>
      <trkpt lat="43.3922" lon="6.66418">
        <ele>47.673206329346</ele>
        <time>2012-10-11T11:20:44Z</time>
      </trkpt>
      <trkpt lat="43.39236" lon="6.66456">
        <ele>45.28995513916</ele>
        <time>2012-10-11T11:20:48Z</time>
      </trkpt>
      <trkpt lat="43.39241" lon="6.66464">
        <ele>44.611892700195</ele>
        <time>2012-10-11T11:20:49Z</time>
      </trkpt>
      <trkpt lat="43.39251" lon="6.66478">
        <ele>43.343315124512</ele>
        <time>2012-10-11T11:20:51Z</time>
      </trkpt>
      <trkpt lat="43.39255" lon="6.66494">
        <ele>41.77433013916</ele>
        <time>2012-10-11T11:20:53Z</time>
      </trkpt>
      <trkpt lat="43.39255" lon="6.66512">
        <ele>40.309921264648</ele>
        <time>2012-10-11T11:20:55Z</time>
      </trkpt>
      <trkpt lat="43.39254" lon="6.66531">
        <ele>38.534713745117</ele>
        <time>2012-10-11T11:20:57Z</time>
      </trkpt>
      <trkpt lat="43.39252" lon="6.66541">
        <ele>36.711669921875</ele>
        <time>2012-10-11T11:20:58Z</time>
      </trkpt>
      <trkpt lat="43.39245" lon="6.66553">
        <ele>34.055309295654</ele>
        <time>2012-10-11T11:21:00Z</time>
      </trkpt>
      <trkpt lat="43.39226" lon="6.66556">
        <ele>32.189270019531</ele>
        <time>2012-10-11T11:21:03Z</time>
      </trkpt>
      <trkpt lat="43.39219" lon="6.66558">
        <ele>31.511045455933</ele>
        <time>2012-10-11T11:21:04Z</time>
      </trkpt>
      <trkpt lat="43.3921" lon="6.66569">
        <ele>29.892896652222</ele>
        <time>2012-10-11T11:21:06Z</time>
      </trkpt>
      <trkpt lat="43.39213" lon="6.66585">
        <ele>28.501819610596</ele>
        <time>2012-10-11T11:21:08Z</time>
      </trkpt>
      <trkpt lat="43.3922" lon="6.66597">
        <ele>26.994585037231</ele>
        <time>2012-10-11T11:21:10Z</time>
      </trkpt>
      <trkpt lat="43.39223" lon="6.66604">
        <ele>26.149719238281</ele>
        <time>2012-10-11T11:21:11Z</time>
      </trkpt>
      <trkpt lat="43.39233" lon="6.66625">
        <ele>23.38639831543</ele>
        <time>2012-10-11T11:21:14Z</time>
      </trkpt>
      <trkpt lat="43.39238" lon="6.66639">
        <ele>21.120241165161</ele>
        <time>2012-10-11T11:21:16Z</time>
      </trkpt>
      <trkpt lat="43.39241" lon="6.66647">
        <ele>20.979305267334</ele>
        <time>2012-10-11T11:21:17Z</time>
      </trkpt>
      <trkpt lat="43.39251" lon="6.66657">
        <ele>20.684356689453</ele>
        <time>2012-10-11T11:21:19Z</time>
      </trkpt>
      <trkpt lat="43.39261" lon="6.66668">
        <ele>20</ele>
        <time>2012-10-11T11:21:21Z</time>
      </trkpt>
      <trkpt lat="43.3927" lon="6.66683">
        <ele>20</ele>
        <time>2012-10-11T11:21:23Z</time>
      </trkpt>
      <trkpt lat="43.39274" lon="6.66711">
        <ele>20</ele>
        <time>2012-10-11T11:21:26Z</time>
      </trkpt>
      <trkpt lat="43.39259" lon="6.66731">
        <ele>20</ele>
        <time>2012-10-11T11:21:29Z</time>
      </trkpt>
      <trkpt lat="43.39239" lon="6.66727">
        <ele>20</ele>
        <time>2012-10-11T11:21:32Z</time>
      </trkpt>
      <trkpt lat="43.39236" lon="6.66729">
        <ele>20</ele>
        <time>2012-10-11T11:21:33Z</time>
      </trkpt>
      <trkpt lat="43.39235" lon="6.6674">
        <ele>20</ele>
        <time>2012-10-11T11:21:35Z</time>
      </trkpt>
      <trkpt lat="43.3924" lon="6.6677">
        <ele>20</ele>
        <time>2012-10-11T11:21:38Z</time>
      </trkpt>
      <trkpt lat="43.39243" lon="6.66785">
        <ele>19.931665420532</ele>
        <time>2012-10-11T11:21:40Z</time>
      </trkpt>
      <trkpt lat="43.39244" lon="6.66788">
        <ele>19.918960571289</ele>
        <time>2012-10-11T11:21:41Z</time>
      </trkpt>
      <trkpt lat="43.39244" lon="6.66792">
        <ele>19.892618179321</ele>
        <time>2012-10-11T11:21:42Z</time>
      </trkpt>
      <trkpt lat="43.39241" lon="6.668">
        <ele>19.736907958984</ele>
        <time>2012-10-11T11:21:45Z</time>
      </trkpt>
      <trkpt lat="43.39238" lon="6.66814">
        <ele>19.40265083313</ele>
        <time>2012-10-11T11:21:50Z</time>
      </trkpt>
      <trkpt lat="43.39243" lon="6.66822">
        <ele>19.297716140747</ele>
        <time>2012-10-11T11:21:53Z</time>
      </trkpt>
      <trkpt lat="43.39245" lon="6.66825">
        <ele>19.23846244812</ele>
        <time>2012-10-11T11:21:54Z</time>
      </trkpt>
      <trkpt lat="43.39256" lon="6.66847">
        <ele>19.111715316773</ele>
        <time>2012-10-11T11:21:59Z</time>
      </trkpt>
      <trkpt lat="43.39261" lon="6.66858">
        <ele>19.050127029419</ele>
        <time>2012-10-11T11:22:03Z</time>
      </trkpt>
      <trkpt lat="43.39266" lon="6.66872">
        <ele>19</ele>
        <time>2012-10-11T11:22:09Z</time>
      </trkpt>
      <trkpt lat="43.3927" lon="6.6688">
        <ele>19</ele>
        <time>2012-10-11T11:22:15Z</time>
      </trkpt>
      <trkpt lat="43.39317" lon="6.66912">
        <ele>18.396118164062</ele>
        <time>2012-10-11T11:28:45Z</time>
      </trkpt>
      <trkpt lat="43.39321" lon="6.66915">
        <ele>18.547180175781</ele>
        <time>2012-10-11T11:28:47Z</time>
      </trkpt>
      <trkpt lat="43.39334" lon="6.66924">
        <ele>18.985900878906</ele>
        <time>2012-10-11T11:28:52Z</time>
      </trkpt>
      <trkpt lat="43.39352" lon="6.66937">
        <ele>18.326721191406</ele>
        <time>2012-10-11T11:28:59Z</time>
      </trkpt>
      <trkpt lat="43.39375" lon="6.66955">
        <ele>18</ele>
        <time>2012-10-11T11:29:07Z</time>
      </trkpt>
      <trkpt lat="43.39387" lon="6.66967">
        <ele>18</ele>
        <time>2012-10-11T11:29:12Z</time>
      </trkpt>
      <trkpt lat="43.39399" lon="6.6699">
        <ele>18</ele>
        <time>2012-10-11T11:29:18Z</time>
      </trkpt>
      <trkpt lat="43.39414" lon="6.67021">
        <ele>17.923288345337</ele>
        <time>2012-10-11T11:29:26Z</time>
      </trkpt>
      <trkpt lat="43.39422" lon="6.67034">
        <ele>18</ele>
        <time>2012-10-11T11:29:31Z</time>
      </trkpt>
      <trkpt lat="43.39433" lon="6.67054">
        <ele>18</ele>
        <time>2012-10-11T11:29:37Z</time>
      </trkpt>
      <trkpt lat="43.39449" lon="6.67077">
        <ele>17.230827331543</ele>
        <time>2012-10-11T11:29:44Z</time>
      </trkpt>
      <trkpt lat="43.39467" lon="6.67094">
        <ele>17</ele>
        <time>2012-10-11T11:29:52Z</time>
      </trkpt>
      <trkpt lat="43.39477" lon="6.67099">
        <ele>16.897663116455</ele>
        <time>2012-10-11T11:29:56Z</time>
      </trkpt>
      <trkpt lat="43.3949" lon="6.67112">
        <ele>16.38624382019</ele>
        <time>2012-10-11T11:30:01Z</time>
      </trkpt>
      <trkpt lat="43.395" lon="6.67135">
        <ele>16.001647949219</ele>
        <time>2012-10-11T11:30:06Z</time>
      </trkpt>
      <trkpt lat="43.39516" lon="6.67144">
        <ele>16.561328887939</ele>
        <time>2012-10-11T11:30:11Z</time>
      </trkpt>
      <trkpt lat="43.39532" lon="6.67159">
        <ele>16.290267944336</ele>
        <time>2012-10-11T11:30:16Z</time>
      </trkpt>
      <trkpt lat="43.39546" lon="6.67185">
        <ele>16.232727050781</ele>
        <time>2012-10-11T11:30:22Z</time>
      </trkpt>
      <trkpt lat="43.39558" lon="6.67211">
        <ele>16.608306884766</ele>
        <time>2012-10-11T11:30:28Z</time>
      </trkpt>
      <trkpt lat="43.39573" lon="6.67226">
        <ele>17.149040222168</ele>
        <time>2012-10-11T11:30:33Z</time>
      </trkpt>
      <trkpt lat="43.39587" lon="6.67226">
        <ele>17.004272460938</ele>
        <time>2012-10-11T11:30:37Z</time>
      </trkpt>
      <trkpt lat="43.39602" lon="6.67216">
        <ele>16.247976303101</ele>
        <time>2012-10-11T11:30:42Z</time>
      </trkpt>
      <trkpt lat="43.39623" lon="6.67204">
        <ele>16</ele>
        <time>2012-10-11T11:30:48Z</time>
      </trkpt>
      <trkpt lat="43.39643" lon="6.67198">
        <ele>16</ele>
        <time>2012-10-11T11:30:53Z</time>
      </trkpt>
      <trkpt lat="43.39664" lon="6.672">
        <ele>16</ele>
        <time>2012-10-11T11:30:59Z</time>
      </trkpt>
      <trkpt lat="43.3968" lon="6.67213">
        <ele>16</ele>
        <time>2012-10-11T11:31:04Z</time>
      </trkpt>
      <trkpt lat="43.39691" lon="6.67227">
        <ele>16</ele>
        <time>2012-10-11T11:31:09Z</time>
      </trkpt>
      <trkpt lat="43.39693" lon="6.67235">
        <ele>16</ele>
        <time>2012-10-11T11:31:12Z</time>
      </trkpt>
      <trkpt lat="43.39712" lon="6.67252">
        <ele>16</ele>
        <time>2012-10-11T11:36:41Z</time>
      </trkpt>
      <trkpt lat="43.39712" lon="6.67252">
        <ele>16</ele>
        <time>2012-10-11T11:36:42Z</time>
      </trkpt>
      <trkpt lat="43.39721" lon="6.67256">
        <ele>16</ele>
        <time>2012-10-11T11:36:46Z</time>
      </trkpt>
      <trkpt lat="43.39733" lon="6.67276">
        <ele>16.018365859985</ele>
        <time>2012-10-11T11:36:52Z</time>
      </trkpt>
      <trkpt lat="43.3974" lon="6.67299">
        <ele>15.722417831421</ele>
        <time>2012-10-11T11:36:57Z</time>
      </trkpt>
      <trkpt lat="43.39745" lon="6.67334">
        <ele>15.818176269531</ele>
        <time>2012-10-11T11:37:04Z</time>
      </trkpt>
      <trkpt lat="43.39745" lon="6.67373">
        <ele>15.804443359375</ele>
        <time>2012-10-11T11:37:11Z</time>
      </trkpt>
      <trkpt lat="43.39738" lon="6.67405">
        <ele>15.570983886719</ele>
        <time>2012-10-11T11:37:18Z</time>
      </trkpt>
      <trkpt lat="43.39732" lon="6.67421">
        <ele>15.364990234375</ele>
        <time>2012-10-11T11:37:24Z</time>
      </trkpt>
      <trkpt lat="43.3973" lon="6.67426">
        <ele>15.282592773438</ele>
        <time>2012-10-11T11:37:26Z</time>
      </trkpt>
      <trkpt lat="43.39729" lon="6.67427">
        <ele>15.241394042969</ele>
        <time>2012-10-11T11:37:28Z</time>
      </trkpt>
      <trkpt lat="43.39729" lon="6.67427">
        <ele>15.255126953125</ele>
        <time>2012-10-11T11:37:33Z</time>
      </trkpt>
      <trkpt lat="43.36332" lon="6.67303">
        <ele>154.09811401367</ele>
        <time>2012-10-11T12:04:59Z</time>
      </trkpt>
      <trkpt lat="43.36332" lon="6.67309">
        <ele>153.52615356445</ele>
        <time>2012-10-11T12:05:01Z</time>
      </trkpt>
      <trkpt lat="43.36332" lon="6.67328">
        <ele>151.4953918457</ele>
        <time>2012-10-11T12:05:07Z</time>
      </trkpt>
      <trkpt lat="43.36332" lon="6.6733">
        <ele>151.26536560059</ele>
        <time>2012-10-11T12:05:08Z</time>
      </trkpt>
      <trkpt lat="43.3633" lon="6.67334">
        <ele>150.68171691894</ele>
        <time>2012-10-11T12:05:12Z</time>
      </trkpt>
      <trkpt lat="43.3633" lon="6.67335">
        <ele>150.63192749023</ele>
        <time>2012-10-11T12:05:13Z</time>
      </trkpt>
      <trkpt lat="43.3633" lon="6.67338">
        <ele>150.27659606934</ele>
        <time>2012-10-11T12:05:19Z</time>
      </trkpt>
      <trkpt lat="43.36331" lon="6.67343">
        <ele>149.85260009766</ele>
        <time>2012-10-11T12:05:21Z</time>
      </trkpt>
      <trkpt lat="43.36336" lon="6.67347">
        <ele>149.94279479981</ele>
        <time>2012-10-11T12:05:24Z</time>
      </trkpt>
      <trkpt lat="43.36348" lon="6.67349">
        <ele>151.4190826416</ele>
        <time>2012-10-11T12:05:29Z</time>
      </trkpt>
      <trkpt lat="43.36367" lon="6.67352">
        <ele>153.83651733398</ele>
        <time>2012-10-11T12:05:36Z</time>
      </trkpt>
      <trkpt lat="43.36391" lon="6.67361">
        <ele>156.44290161133</ele>
        <time>2012-10-11T12:05:44Z</time>
      </trkpt>
      <trkpt lat="43.36415" lon="6.67376">
        <ele>150.45417785644</ele>
        <time>2012-10-11T12:05:50Z</time>
      </trkpt>
      <trkpt lat="43.36447" lon="6.67399">
        <ele>144.38377380371</ele>
        <time>2012-10-11T12:05:56Z</time>
      </trkpt>
      <trkpt lat="43.36467" lon="6.67406">
        <ele>143.37538146973</ele>
        <time>2012-10-11T12:05:59Z</time>
      </trkpt>
      <trkpt lat="43.3648" lon="6.67406">
        <ele>142.3097076416</ele>
        <time>2012-10-11T12:06:01Z</time>
      </trkpt>
      <trkpt lat="43.36515" lon="6.67404">
        <ele>139.54649353027</ele>
        <time>2012-10-11T12:06:06Z</time>
      </trkpt>
      <trkpt lat="43.36541" lon="6.67418">
        <ele>139.85342407227</ele>
        <time>2012-10-11T12:06:10Z</time>
      </trkpt>
      <trkpt lat="43.36556" lon="6.67443">
        <ele>142.7311706543</ele>
        <time>2012-10-11T12:06:13Z</time>
      </trkpt>
      <trkpt lat="43.36561" lon="6.67451">
        <ele>144.58625793457</ele>
        <time>2012-10-11T12:06:14Z</time>
      </trkpt>
      <trkpt lat="43.36575" lon="6.67459">
        <ele>145.24577331543</ele>
        <time>2012-10-11T12:06:16Z</time>
      </trkpt>
      <trkpt lat="43.36592" lon="6.67452">
        <ele>141.28746032715</ele>
        <time>2012-10-11T12:06:18Z</time>
      </trkpt>
      <trkpt lat="43.36607" lon="6.67436">
        <ele>137.95275878906</ele>
        <time>2012-10-11T12:06:20Z</time>
      </trkpt>
      <trkpt lat="43.36615" lon="6.67429">
        <ele>136.73533630371</ele>
        <time>2012-10-11T12:06:21Z</time>
      </trkpt>
      <trkpt lat="43.36643" lon="6.67434">
        <ele>132.43276977539</ele>
        <time>2012-10-11T12:06:24Z</time>
      </trkpt>
      <trkpt lat="43.36656" lon="6.67457">
        <ele>134.25422668457</ele>
        <time>2012-10-11T12:06:26Z</time>
      </trkpt>
      <trkpt lat="43.36672" lon="6.67505">
        <ele>140.68209838867</ele>
        <time>2012-10-11T12:06:30Z</time>
      </trkpt>
      <trkpt lat="43.36675" lon="6.67519">
        <ele>141.41870117188</ele>
        <time>2012-10-11T12:06:31Z</time>
      </trkpt>
      <trkpt lat="43.36687" lon="6.67584">
        <ele>147.14437866211</ele>
        <time>2012-10-11T12:06:36Z</time>
      </trkpt>
      <trkpt lat="43.36687" lon="6.67636">
        <ele>151.7092590332</ele>
        <time>2012-10-11T12:06:40Z</time>
      </trkpt>
      <trkpt lat="43.3669" lon="6.67649">
        <ele>152.78042602539</ele>
        <time>2012-10-11T12:06:41Z</time>
      </trkpt>
      <trkpt lat="43.36702" lon="6.67666">
        <ele>152.86614990234</ele>
        <time>2012-10-11T12:06:43Z</time>
      </trkpt>
      <trkpt lat="43.36721" lon="6.67677">
        <ele>150.95368957519</ele>
        <time>2012-10-11T12:06:46Z</time>
      </trkpt>
      <trkpt lat="43.36742" lon="6.67688">
        <ele>148.03684997559</ele>
        <time>2012-10-11T12:06:51Z</time>
      </trkpt>
      <trkpt lat="43.36747" lon="6.67697">
        <ele>147.71252441406</ele>
        <time>2012-10-11T12:06:55Z</time>
      </trkpt>
      <trkpt lat="43.36748" lon="6.67705">
        <ele>148.10659790039</ele>
        <time>2012-10-11T12:06:57Z</time>
      </trkpt>
      <trkpt lat="43.3675" lon="6.67716">
        <ele>148.63034057617</ele>
        <time>2012-10-11T12:07:00Z</time>
      </trkpt>
      <trkpt lat="43.36752" lon="6.67736">
        <ele>150.17721557617</ele>
        <time>2012-10-11T12:07:07Z</time>
      </trkpt>
      <trkpt lat="43.36754" lon="6.67753">
        <ele>151.55349731445</ele>
        <time>2012-10-11T12:07:14Z</time>
      </trkpt>
      <trkpt lat="43.36758" lon="6.67772">
        <ele>152.63497924805</ele>
        <time>2012-10-11T12:07:23Z</time>
      </trkpt>
      <trkpt lat="43.3676" lon="6.67784">
        <ele>153.68852233887</ele>
        <time>2012-10-11T12:07:28Z</time>
      </trkpt>
      <trkpt lat="43.36763" lon="6.67797">
        <ele>155.15882873535</ele>
        <time>2012-10-11T12:07:35Z</time>
      </trkpt>
      <trkpt lat="43.36765" lon="6.67812">
        <ele>156.35049438477</ele>
        <time>2012-10-11T12:07:43Z</time>
      </trkpt>
      <trkpt lat="43.36768" lon="6.67825">
        <ele>156.9684753418</ele>
        <time>2012-10-11T12:07:51Z</time>
      </trkpt>
      <trkpt lat="43.36768" lon="6.67836">
        <ele>157.53991699219</ele>
        <time>2012-10-11T12:07:59Z</time>
      </trkpt>
      <trkpt lat="43.36767" lon="6.6785">
        <ele>158.43598937988</ele>
        <time>2012-10-11T12:08:07Z</time>
      </trkpt>
      <trkpt lat="43.36765" lon="6.67868">
        <ele>159.29183959961</ele>
        <time>2012-10-11T12:08:17Z</time>
      </trkpt>
      <trkpt lat="43.36765" lon="6.67881">
        <ele>159.71961975098</ele>
        <time>2012-10-11T12:08:25Z</time>
      </trkpt>
      <trkpt lat="43.36765" lon="6.67896">
        <ele>160</ele>
        <time>2012-10-11T12:08:34Z</time>
      </trkpt>
      <trkpt lat="43.36768" lon="6.67912">
        <ele>160</ele>
        <time>2012-10-11T12:08:44Z</time>
      </trkpt>
      <trkpt lat="43.3677" lon="6.67928">
        <ele>160</ele>
        <time>2012-10-11T12:08:53Z</time>
      </trkpt>
      <trkpt lat="43.36768" lon="6.67943">
        <ele>160</ele>
        <time>2012-10-11T12:09:01Z</time>
      </trkpt>
      <trkpt lat="43.36766" lon="6.67948">
        <ele>159.72717285156</ele>
        <time>2012-10-11T12:09:04Z</time>
      </trkpt>
      <trkpt lat="43.36765" lon="6.67951">
        <ele>159.53036499023</ele>
        <time>2012-10-11T12:09:06Z</time>
      </trkpt>
      <trkpt lat="43.36762" lon="6.67958">
        <ele>159.10356140137</ele>
        <time>2012-10-11T12:09:10Z</time>
      </trkpt>
      <trkpt lat="43.36758" lon="6.67967">
        <ele>158.72410583496</ele>
        <time>2012-10-11T12:09:14Z</time>
      </trkpt>
      <trkpt lat="43.36753" lon="6.67986">
        <ele>158.27822875977</ele>
        <time>2012-10-11T12:09:20Z</time>
      </trkpt>
      <trkpt lat="43.36741" lon="6.67997">
        <ele>162.83357238769</ele>
        <time>2012-10-11T12:09:25Z</time>
      </trkpt>
      <trkpt lat="43.36717" lon="6.68">
        <ele>174.26835632324</ele>
        <time>2012-10-11T12:09:33Z</time>
      </trkpt>
      <trkpt lat="43.36702" lon="6.68011">
        <ele>177.5154876709</ele>
        <time>2012-10-11T12:09:39Z</time>
      </trkpt>
      <trkpt lat="43.36697" lon="6.68033">
        <ele>177.72264099121</ele>
        <time>2012-10-11T12:09:44Z</time>
      </trkpt>
      <trkpt lat="43.367" lon="6.68062">
        <ele>174.04652404785</ele>
        <time>2012-10-11T12:09:51Z</time>
      </trkpt>
      <trkpt lat="43.36712" lon="6.68089">
        <ele>169.86906433106</ele>
        <time>2012-10-11T12:09:59Z</time>
      </trkpt>
      <trkpt lat="43.36724" lon="6.68122">
        <ele>164.40582275391</ele>
        <time>2012-10-11T12:10:08Z</time>
      </trkpt>
      <trkpt lat="43.36721" lon="6.68151">
        <ele>163.37554931641</ele>
        <time>2012-10-11T12:10:14Z</time>
      </trkpt>
      <trkpt lat="43.36706" lon="6.68187">
        <ele>163.03131103516</ele>
        <time>2012-10-11T12:10:22Z</time>
      </trkpt>
      <trkpt lat="43.36686" lon="6.68209">
        <ele>164.55029296875</ele>
        <time>2012-10-11T12:10:28Z</time>
      </trkpt>
      <trkpt lat="43.36657" lon="6.68238">
        <ele>164.29806518555</ele>
        <time>2012-10-11T12:10:37Z</time>
      </trkpt>
      <trkpt lat="43.3665" lon="6.68242">
        <ele>163.53955078125</ele>
        <time>2012-10-11T12:10:39Z</time>
      </trkpt>
      <trkpt lat="43.36635" lon="6.68243">
        <ele>163.30877685547</ele>
        <time>2012-10-11T12:10:43Z</time>
      </trkpt>
      <trkpt lat="43.36623" lon="6.68236">
        <ele>164.47804260254</ele>
        <time>2012-10-11T12:10:46Z</time>
      </trkpt>
      <trkpt lat="43.36613" lon="6.68228">
        <ele>166.47164916992</ele>
        <time>2012-10-11T12:10:49Z</time>
      </trkpt>
      <trkpt lat="43.36585" lon="6.68213">
        <ele>166.33781433106</ele>
        <time>2012-10-11T12:10:57Z</time>
      </trkpt>
      <trkpt lat="43.3656" lon="6.68194">
        <ele>168.44415283203</ele>
        <time>2012-10-11T12:11:04Z</time>
      </trkpt>
      <trkpt lat="43.36544" lon="6.68168">
        <ele>172.58209228516</ele>
        <time>2012-10-11T12:11:10Z</time>
      </trkpt>
      <trkpt lat="43.36535" lon="6.68149">
        <ele>174.51118469238</ele>
        <time>2012-10-11T12:11:14Z</time>
      </trkpt>
      <trkpt lat="43.36525" lon="6.6814">
        <ele>174.78771972656</ele>
        <time>2012-10-11T12:11:17Z</time>
      </trkpt>
      <trkpt lat="43.36512" lon="6.68137">
        <ele>174.90730285644</ele>
        <time>2012-10-11T12:11:20Z</time>
      </trkpt>
      <trkpt lat="43.36503" lon="6.68135">
        <ele>174.98803710938</ele>
        <time>2012-10-11T12:11:22Z</time>
      </trkpt>
      <trkpt lat="43.36466" lon="6.68121">
        <ele>176.34698486328</ele>
        <time>2012-10-11T12:11:30Z</time>
      </trkpt>
      <trkpt lat="43.36461" lon="6.68119">
        <ele>177.05422973633</ele>
        <time>2012-10-11T12:11:31Z</time>
      </trkpt>
      <trkpt lat="43.36447" lon="6.68124">
        <ele>176.9992980957</ele>
        <time>2012-10-11T12:11:34Z</time>
      </trkpt>
      <trkpt lat="43.3644" lon="6.68142">
        <ele>173.70953369141</ele>
        <time>2012-10-11T12:11:37Z</time>
      </trkpt>
      <trkpt lat="43.3644" lon="6.68156">
        <ele>171.40019226074</ele>
        <time>2012-10-11T12:11:39Z</time>
      </trkpt>
      <trkpt lat="43.3644" lon="6.68176">
        <ele>167.53474426269</ele>
        <time>2012-10-11T12:11:42Z</time>
      </trkpt>
      <trkpt lat="43.36443" lon="6.68214">
        <ele>160.93199157715</ele>
        <time>2012-10-11T12:11:48Z</time>
      </trkpt>
      <trkpt lat="43.36444" lon="6.6822">
        <ele>160.20097351074</ele>
        <time>2012-10-11T12:11:49Z</time>
      </trkpt>
      <trkpt lat="43.3645" lon="6.68279">
        <ele>154.04981994629</ele>
        <time>2012-10-11T12:11:58Z</time>
      </trkpt>
      <trkpt lat="43.36443" lon="6.68306">
        <ele>153.18818664551</ele>
        <time>2012-10-11T12:12:02Z</time>
      </trkpt>
      <trkpt lat="43.36441" lon="6.68312">
        <ele>153.23281860352</ele>
        <time>2012-10-11T12:12:03Z</time>
      </trkpt>
      <trkpt lat="43.36438" lon="6.68318">
        <ele>153.36671447754</ele>
        <time>2012-10-11T12:12:04Z</time>
      </trkpt>
      <trkpt lat="43.36421" lon="6.68336">
        <ele>155.16789245606</ele>
        <time>2012-10-11T12:12:08Z</time>
      </trkpt>
      <trkpt lat="43.36411" lon="6.68342">
        <ele>156.77490234375</ele>
        <time>2012-10-11T12:12:10Z</time>
      </trkpt>
      <trkpt lat="43.36386" lon="6.68354">
        <ele>160.64987182617</ele>
        <time>2012-10-11T12:12:15Z</time>
      </trkpt>
      <trkpt lat="43.36371" lon="6.68359">
        <ele>163.91755676269</ele>
        <time>2012-10-11T12:12:18Z</time>
      </trkpt>
      <trkpt lat="43.3636" lon="6.68369">
        <ele>165.31481933594</ele>
        <time>2012-10-11T12:12:21Z</time>
      </trkpt>
      <trkpt lat="43.36353" lon="6.68382">
        <ele>162.43058776856</ele>
        <time>2012-10-11T12:12:24Z</time>
      </trkpt>
      <trkpt lat="43.36351" lon="6.68386">
        <ele>161.53952026367</ele>
        <time>2012-10-11T12:12:25Z</time>
      </trkpt>
      <trkpt lat="43.36341" lon="6.68418">
        <ele>153.31990051269</ele>
        <time>2012-10-11T12:12:33Z</time>
      </trkpt>
      <trkpt lat="43.36337" lon="6.68443">
        <ele>148.1826171875</ele>
        <time>2012-10-11T12:12:37Z</time>
      </trkpt>
      <trkpt lat="43.36338" lon="6.68447">
        <ele>148.25115966797</ele>
        <time>2012-10-11T12:12:40Z</time>
      </trkpt>
      <trkpt lat="43.3634" lon="6.68451">
        <ele>148.97131347656</ele>
        <time>2012-10-11T12:12:47Z</time>
      </trkpt>
      <trkpt lat="43.36342" lon="6.68452">
        <ele>149.96850585938</ele>
        <time>2012-10-11T12:12:52Z</time>
      </trkpt>
      <trkpt lat="43.36345" lon="6.68455">
        <ele>151.40341186523</ele>
        <time>2012-10-11T12:12:54Z</time>
      </trkpt>
      <trkpt lat="43.3635" lon="6.68462">
        <ele>154.02177429199</ele>
        <time>2012-10-11T12:12:57Z</time>
      </trkpt>
      <trkpt lat="43.36356" lon="6.68467">
        <ele>156.90603637695</ele>
        <time>2012-10-11T12:13:00Z</time>
      </trkpt>
      <trkpt lat="43.36374" lon="6.68483">
        <ele>161.10066223144</ele>
        <time>2012-10-11T12:13:08Z</time>
      </trkpt>
      <trkpt lat="43.36386" lon="6.68501">
        <ele>162.67912292481</ele>
        <time>2012-10-11T12:13:14Z</time>
      </trkpt>
      <trkpt lat="43.36398" lon="6.68522">
        <ele>165.41935729981</ele>
        <time>2012-10-11T12:13:21Z</time>
      </trkpt>
      <trkpt lat="43.36413" lon="6.68538">
        <ele>169.02278137207</ele>
        <time>2012-10-11T12:13:28Z</time>
      </trkpt>
      <trkpt lat="43.36425" lon="6.68544">
        <ele>171.08535766602</ele>
        <time>2012-10-11T12:13:33Z</time>
      </trkpt>
      <trkpt lat="43.36436" lon="6.68551">
        <ele>173.29078674316</ele>
        <time>2012-10-11T12:13:40Z</time>
      </trkpt>
      <trkpt lat="43.36444" lon="6.68559">
        <ele>175.59204101562</ele>
        <time>2012-10-11T12:13:45Z</time>
      </trkpt>
      <trkpt lat="43.36446" lon="6.68561">
        <ele>175.43663024902</ele>
        <time>2012-10-11T12:13:46Z</time>
      </trkpt>
      <trkpt lat="43.36457" lon="6.68572">
        <ele>175.33781433106</ele>
        <time>2012-10-11T12:13:52Z</time>
      </trkpt>
      <trkpt lat="43.36467" lon="6.68592">
        <ele>177.16394042969</ele>
        <time>2012-10-11T12:13:58Z</time>
      </trkpt>
      <trkpt lat="43.36477" lon="6.68612">
        <ele>178.67956542969</ele>
        <time>2012-10-11T12:14:04Z</time>
      </trkpt>
      <trkpt lat="43.36489" lon="6.68639">
        <ele>177.52743530273</ele>
        <time>2012-10-11T12:14:09Z</time>
      </trkpt>
      <trkpt lat="43.365" lon="6.68661">
        <ele>179.23432922363</ele>
        <time>2012-10-11T12:14:13Z</time>
      </trkpt>
      <trkpt lat="43.36502" lon="6.68666">
        <ele>178.4284362793</ele>
        <time>2012-10-11T12:14:14Z</time>
      </trkpt>
      <trkpt lat="43.36518" lon="6.68702">
        <ele>166.24040222168</ele>
        <time>2012-10-11T12:14:20Z</time>
      </trkpt>
      <trkpt lat="43.36523" lon="6.68735">
        <ele>162.90975952148</ele>
        <time>2012-10-11T12:14:25Z</time>
      </trkpt>
      <trkpt lat="43.36522" lon="6.68756">
        <ele>163.4393157959</ele>
        <time>2012-10-11T12:14:28Z</time>
      </trkpt>
      <trkpt lat="43.36521" lon="6.68762">
        <ele>163.07778930664</ele>
        <time>2012-10-11T12:14:29Z</time>
      </trkpt>
      <trkpt lat="43.36518" lon="6.68776">
        <ele>162.26799011231</ele>
        <time>2012-10-11T12:14:31Z</time>
      </trkpt>
      <trkpt lat="43.36517" lon="6.68783">
        <ele>161.58599853516</ele>
        <time>2012-10-11T12:14:32Z</time>
      </trkpt>
      <trkpt lat="43.36507" lon="6.68801">
        <ele>160.61782836914</ele>
        <time>2012-10-11T12:14:35Z</time>
      </trkpt>
      <trkpt lat="43.36492" lon="6.68811">
        <ele>161.55029296875</ele>
        <time>2012-10-11T12:14:39Z</time>
      </trkpt>
      <trkpt lat="43.36475" lon="6.68812">
        <ele>163.0626373291</ele>
        <time>2012-10-11T12:14:43Z</time>
      </trkpt>
      <trkpt lat="43.36472" lon="6.68814">
        <ele>163.18272399902</ele>
        <time>2012-10-11T12:14:44Z</time>
      </trkpt>
      <trkpt lat="43.36462" lon="6.68828">
        <ele>163.23318481445</ele>
        <time>2012-10-11T12:14:47Z</time>
      </trkpt>
      <trkpt lat="43.36457" lon="6.68833">
        <ele>163.99958801269</ele>
        <time>2012-10-11T12:14:50Z</time>
      </trkpt>
      <trkpt lat="43.36451" lon="6.68837">
        <ele>165.67640686035</ele>
        <time>2012-10-11T12:15:00Z</time>
      </trkpt>
      <trkpt lat="43.36435" lon="6.68841">
        <ele>171.26806640625</ele>
        <time>2012-10-11T12:15:04Z</time>
      </trkpt>
      <trkpt lat="43.36416" lon="6.68839">
        <ele>179.41995239258</ele>
        <time>2012-10-11T12:15:08Z</time>
      </trkpt>
      <trkpt lat="43.36402" lon="6.68839">
        <ele>179.68977355957</ele>
        <time>2012-10-11T12:15:11Z</time>
      </trkpt>
      <trkpt lat="43.36398" lon="6.68841">
        <ele>179.71273803711</ele>
        <time>2012-10-11T12:15:12Z</time>
      </trkpt>
      <trkpt lat="43.36396" lon="6.68843">
        <ele>179.7229309082</ele>
        <time>2012-10-11T12:15:15Z</time>
      </trkpt>
      <trkpt lat="43.36395" lon="6.68842">
        <ele>179.77737426758</ele>
        <time>2012-10-11T12:15:29Z</time>
      </trkpt>
      <trkpt lat="43.36387" lon="6.68845">
        <ele>179.97499084473</ele>
        <time>2012-10-11T12:15:35Z</time>
      </trkpt>
      <trkpt lat="43.36379" lon="6.6885">
        <ele>179.78843688965</ele>
        <time>2012-10-11T12:15:42Z</time>
      </trkpt>
      <trkpt lat="43.36378" lon="6.6885">
        <ele>179.77073669434</ele>
        <time>2012-10-11T12:15:43Z</time>
      </trkpt>
      <trkpt lat="43.36377" lon="6.68852">
        <ele>179.71058654785</ele>
        <time>2012-10-11T12:15:46Z</time>
      </trkpt>
      <trkpt lat="43.36376" lon="6.68854">
        <ele>179.65534973144</ele>
        <time>2012-10-11T12:15:47Z</time>
      </trkpt>
      <trkpt lat="43.36368" lon="6.6887">
        <ele>178.69134521484</ele>
        <time>2012-10-11T12:15:52Z</time>
      </trkpt>
      <trkpt lat="43.36358" lon="6.68899">
        <ele>176.75608825684</ele>
        <time>2012-10-11T12:15:58Z</time>
      </trkpt>
      <trkpt lat="43.36349" lon="6.68915">
        <ele>174.78190612793</ele>
        <time>2012-10-11T12:16:03Z</time>
      </trkpt>
      <trkpt lat="43.36335" lon="6.68937">
        <ele>173.1047668457</ele>
        <time>2012-10-11T12:16:11Z</time>
      </trkpt>
      <trkpt lat="43.3632" lon="6.68949">
        <ele>172.15835571289</ele>
        <time>2012-10-11T12:16:17Z</time>
      </trkpt>
      <trkpt lat="43.363" lon="6.68967">
        <ele>170.24255371094</ele>
        <time>2012-10-11T12:16:21Z</time>
      </trkpt>
      <trkpt lat="43.36297" lon="6.68979">
        <ele>170.48461914062</ele>
        <time>2012-10-11T12:16:23Z</time>
      </trkpt>
      <trkpt lat="43.36296" lon="6.68982">
        <ele>170.65910339356</ele>
        <time>2012-10-11T12:16:24Z</time>
      </trkpt>
      <trkpt lat="43.36294" lon="6.68988">
        <ele>171.02027893066</ele>
        <time>2012-10-11T12:16:29Z</time>
      </trkpt>
      <trkpt lat="43.36292" lon="6.68995">
        <ele>171.46206665039</ele>
        <time>2012-10-11T12:16:39Z</time>
      </trkpt>
      <trkpt lat="43.3629" lon="6.69004">
        <ele>172.17640686035</ele>
        <time>2012-10-11T12:16:48Z</time>
      </trkpt>
      <trkpt lat="43.3629" lon="6.69005">
        <ele>172.24012756348</ele>
        <time>2012-10-11T12:16:49Z</time>
      </trkpt>
      <trkpt lat="43.36288" lon="6.69013">
        <ele>172.8264465332</ele>
        <time>2012-10-11T12:16:56Z</time>
      </trkpt>
      <trkpt lat="43.36288" lon="6.69015">
        <ele>172.98179626465</ele>
        <time>2012-10-11T12:17:03Z</time>
      </trkpt>
      <trkpt lat="43.36287" lon="6.69019">
        <ele>173.3913269043</ele>
        <time>2012-10-11T12:17:09Z</time>
      </trkpt>
      <trkpt lat="43.36283" lon="6.6903">
        <ele>174.56903076172</ele>
        <time>2012-10-11T12:17:18Z</time>
      </trkpt>
      <trkpt lat="43.36281" lon="6.69039">
        <ele>176.36500549316</ele>
        <time>2012-10-11T12:17:26Z</time>
      </trkpt>
      <trkpt lat="43.36276" lon="6.69046">
        <ele>178.41996765137</ele>
        <time>2012-10-11T12:17:35Z</time>
      </trkpt>
      <trkpt lat="43.36274" lon="6.69044">
        <ele>178.32942199707</ele>
        <time>2012-10-11T12:17:39Z</time>
      </trkpt>
      <trkpt lat="43.36274" lon="6.69042">
        <ele>178.10287475586</ele>
        <time>2012-10-11T12:17:40Z</time>
      </trkpt>
      <trkpt lat="43.36271" lon="6.69036">
        <ele>177.29252624512</ele>
        <time>2012-10-11T12:17:47Z</time>
      </trkpt>
      <trkpt lat="43.36267" lon="6.6903">
        <ele>176.82308959961</ele>
        <time>2012-10-11T12:17:57Z</time>
      </trkpt>
      <trkpt lat="43.36266" lon="6.69033">
        <ele>177.89372253418</ele>
        <time>2012-10-11T12:18:04Z</time>
      </trkpt>
      <trkpt lat="43.36263" lon="6.69041">
        <ele>180.49688720703</ele>
        <time>2012-10-11T12:18:13Z</time>
      </trkpt>
      <trkpt lat="43.36261" lon="6.69053">
        <ele>183.78265380859</ele>
        <time>2012-10-11T12:18:21Z</time>
      </trkpt>
      <trkpt lat="43.36258" lon="6.69063">
        <ele>185.98161315918</ele>
        <time>2012-10-11T12:18:30Z</time>
      </trkpt>
      <trkpt lat="43.36258" lon="6.69064">
        <ele>186.05993652344</ele>
        <time>2012-10-11T12:18:31Z</time>
      </trkpt>
      <trkpt lat="43.36257" lon="6.69069">
        <ele>187.17407226562</ele>
        <time>2012-10-11T12:18:37Z</time>
      </trkpt>
      <trkpt lat="43.36255" lon="6.69075">
        <ele>188.86154174805</ele>
        <time>2012-10-11T12:18:45Z</time>
      </trkpt>
      <trkpt lat="43.36253" lon="6.69082">
        <ele>190.67491149902</ele>
        <time>2012-10-11T12:18:54Z</time>
      </trkpt>
      <trkpt lat="43.36251" lon="6.69087">
        <ele>192.71748352051</ele>
        <time>2012-10-11T12:19:00Z</time>
      </trkpt>
      <trkpt lat="43.36245" lon="6.69101">
        <ele>197.22190856934</ele>
        <time>2012-10-11T12:19:08Z</time>
      </trkpt>
      <trkpt lat="43.36239" lon="6.69124">
        <ele>200.84060668945</ele>
        <time>2012-10-11T12:19:18Z</time>
      </trkpt>
      <trkpt lat="43.36238" lon="6.69145">
        <ele>202.27375793457</ele>
        <time>2012-10-11T12:19:25Z</time>
      </trkpt>
      <trkpt lat="43.36242" lon="6.69166">
        <ele>203.50971984863</ele>
        <time>2012-10-11T12:19:32Z</time>
      </trkpt>
      <trkpt lat="43.36247" lon="6.69186">
        <ele>204.64611816406</ele>
        <time>2012-10-11T12:19:39Z</time>
      </trkpt>
      <trkpt lat="43.36251" lon="6.69211">
        <ele>205.98403930664</ele>
        <time>2012-10-11T12:19:47Z</time>
      </trkpt>
      <trkpt lat="43.3625" lon="6.69233">
        <ele>207.40954589844</ele>
        <time>2012-10-11T12:19:54Z</time>
      </trkpt>
      <trkpt lat="43.3625" lon="6.6926">
        <ele>208.71040344238</ele>
        <time>2012-10-11T12:20:03Z</time>
      </trkpt>
      <trkpt lat="43.36254" lon="6.69271">
        <ele>208.57794189453</ele>
        <time>2012-10-11T12:20:08Z</time>
      </trkpt>
      <trkpt lat="43.36267" lon="6.69286">
        <ele>207.18008422852</ele>
        <time>2012-10-11T12:20:16Z</time>
      </trkpt>
      <trkpt lat="43.36283" lon="6.69302">
        <ele>205.95292663574</ele>
        <time>2012-10-11T12:20:24Z</time>
      </trkpt>
      <trkpt lat="43.36297" lon="6.69321">
        <ele>205.33639526367</ele>
        <time>2012-10-11T12:20:32Z</time>
      </trkpt>
      <trkpt lat="43.36308" lon="6.69343">
        <ele>205.71337890625</ele>
        <time>2012-10-11T12:20:41Z</time>
      </trkpt>
      <trkpt lat="43.36314" lon="6.69358">
        <ele>206.35711669922</ele>
        <time>2012-10-11T12:20:47Z</time>
      </trkpt>
      <trkpt lat="43.36324" lon="6.69377">
        <ele>206.56298828125</ele>
        <time>2012-10-11T12:20:55Z</time>
      </trkpt>
      <trkpt lat="43.36331" lon="6.69396">
        <ele>206.07409667969</ele>
        <time>2012-10-11T12:21:03Z</time>
      </trkpt>
      <trkpt lat="43.36335" lon="6.69418">
        <ele>204.72564697266</ele>
        <time>2012-10-11T12:21:12Z</time>
      </trkpt>
      <trkpt lat="43.36332" lon="6.69447">
        <ele>203.03750610352</ele>
        <time>2012-10-11T12:21:23Z</time>
      </trkpt>
      <trkpt lat="43.36327" lon="6.69462">
        <ele>202.66983032227</ele>
        <time>2012-10-11T12:21:30Z</time>
      </trkpt>
      <trkpt lat="43.36321" lon="6.69478">
        <ele>201.54629516602</ele>
        <time>2012-10-11T12:21:39Z</time>
      </trkpt>
      <trkpt lat="43.36318" lon="6.69479">
        <ele>201.53442382812</ele>
        <time>2012-10-11T12:21:41Z</time>
      </trkpt>
      <trkpt lat="43.36314" lon="6.69477">
        <ele>201.99015808106</ele>
        <time>2012-10-11T12:21:44Z</time>
      </trkpt>
      <trkpt lat="43.36311" lon="6.69471">
        <ele>202.89256286621</ele>
        <time>2012-10-11T12:21:48Z</time>
      </trkpt>
      <trkpt lat="43.36308" lon="6.69465">
        <ele>203.39241027832</ele>
        <time>2012-10-11T12:21:51Z</time>
      </trkpt>
      <trkpt lat="43.36301" lon="6.69455">
        <ele>204.52157592773</ele>
        <time>2012-10-11T12:21:57Z</time>
      </trkpt>
      <trkpt lat="43.36291" lon="6.69441">
        <ele>206.42317199707</ele>
        <time>2012-10-11T12:22:05Z</time>
      </trkpt>
      <trkpt lat="43.36281" lon="6.6943">
        <ele>208.79333496094</ele>
        <time>2012-10-11T12:22:13Z</time>
      </trkpt>
      <trkpt lat="43.36271" lon="6.69418">
        <ele>211.19860839844</ele>
        <time>2012-10-11T12:22:21Z</time>
      </trkpt>
      <trkpt lat="43.36263" lon="6.69404">
        <ele>213.22396850586</ele>
        <time>2012-10-11T12:22:29Z</time>
      </trkpt>
      <trkpt lat="43.36254" lon="6.6939">
        <ele>215.51495361328</ele>
        <time>2012-10-11T12:22:37Z</time>
      </trkpt>
      <trkpt lat="43.36244" lon="6.69383">
        <ele>216.65502929688</ele>
        <time>2012-10-11T12:22:43Z</time>
      </trkpt>
      <trkpt lat="43.3623" lon="6.69376">
        <ele>218.80097961426</ele>
        <time>2012-10-11T12:22:52Z</time>
      </trkpt>
      <trkpt lat="43.36218" lon="6.69369">
        <ele>220.11175537109</ele>
        <time>2012-10-11T12:23:00Z</time>
      </trkpt>
      <trkpt lat="43.36205" lon="6.69357">
        <ele>220.58125305176</ele>
        <time>2012-10-11T12:23:09Z</time>
      </trkpt>
      <trkpt lat="43.36195" lon="6.69341">
        <ele>221.60426330566</ele>
        <time>2012-10-11T12:23:18Z</time>
      </trkpt>
      <trkpt lat="43.36185" lon="6.69327">
        <ele>223.27766418457</ele>
        <time>2012-10-11T12:23:27Z</time>
      </trkpt>
      <trkpt lat="43.36172" lon="6.69315">
        <ele>225.68397521973</ele>
        <time>2012-10-11T12:23:36Z</time>
      </trkpt>
      <trkpt lat="43.3616" lon="6.69309">
        <ele>230.25100708008</ele>
        <time>2012-10-11T12:23:44Z</time>
      </trkpt>
      <trkpt lat="43.36151" lon="6.69304">
        <ele>234.43180847168</ele>
        <time>2012-10-11T12:23:51Z</time>
      </trkpt>
      <trkpt lat="43.36149" lon="6.69301">
        <ele>235.28974914551</ele>
        <time>2012-10-11T12:23:53Z</time>
      </trkpt>
      <trkpt lat="43.36146" lon="6.69298">
        <ele>236.7018737793</ele>
        <time>2012-10-11T12:23:56Z</time>
      </trkpt>
      <trkpt lat="43.36145" lon="6.69297">
        <ele>236.87593078613</ele>
        <time>2012-10-11T12:23:57Z</time>
      </trkpt>
      <trkpt lat="43.36145" lon="6.69295">
        <ele>237.22914123535</ele>
        <time>2012-10-11T12:24:01Z</time>
      </trkpt>
      <trkpt lat="43.36142" lon="6.69287">
        <ele>238.67346191406</ele>
        <time>2012-10-11T12:24:11Z</time>
      </trkpt>
      <trkpt lat="43.36138" lon="6.69283">
        <ele>240</ele>
        <time>2012-10-11T12:24:18Z</time>
      </trkpt>
      <trkpt lat="43.36133" lon="6.69275">
        <ele>239.5290222168</ele>
        <time>2012-10-11T12:24:29Z</time>
      </trkpt>
      <trkpt lat="43.3613" lon="6.69271">
        <ele>238.88423156738</ele>
        <time>2012-10-11T12:24:36Z</time>
      </trkpt>
      <trkpt lat="43.36125" lon="6.69267">
        <ele>238.64677429199</ele>
        <time>2012-10-11T12:24:45Z</time>
      </trkpt>
      <trkpt lat="43.3612" lon="6.69263">
        <ele>238.80828857422</ele>
        <time>2012-10-11T12:24:54Z</time>
      </trkpt>
      <trkpt lat="43.36116" lon="6.69262">
        <ele>239.23150634766</ele>
        <time>2012-10-11T12:25:03Z</time>
      </trkpt>
      <trkpt lat="43.3611" lon="6.69259">
        <ele>240</ele>
        <time>2012-10-11T12:25:11Z</time>
      </trkpt>
      <trkpt lat="43.36105" lon="6.69254">
        <ele>240</ele>
        <time>2012-10-11T12:25:20Z</time>
      </trkpt>
      <trkpt lat="43.36101" lon="6.6925">
        <ele>239.93339538574</ele>
        <time>2012-10-11T12:25:28Z</time>
      </trkpt>
      <trkpt lat="43.36096" lon="6.69245">
        <ele>239.13516235352</ele>
        <time>2012-10-11T12:25:36Z</time>
      </trkpt>
      <trkpt lat="43.36089" lon="6.69249">
        <ele>239.77890014648</ele>
        <time>2012-10-11T12:25:41Z</time>
      </trkpt>
      <trkpt lat="43.36072" lon="6.69253">
        <ele>240</ele>
        <time>2012-10-11T12:25:47Z</time>
      </trkpt>
      <trkpt lat="43.36062" lon="6.69263">
        <ele>240</ele>
        <time>2012-10-11T12:25:50Z</time>
      </trkpt>
      <trkpt lat="43.36041" lon="6.69284">
        <ele>235.92146301269</ele>
        <time>2012-10-11T12:25:55Z</time>
      </trkpt>
      <trkpt lat="43.36017" lon="6.69297">
        <ele>227.67138671875</ele>
        <time>2012-10-11T12:25:59Z</time>
      </trkpt>
      <trkpt lat="43.36002" lon="6.69296">
        <ele>224.23683166504</ele>
        <time>2012-10-11T12:26:01Z</time>
      </trkpt>
      <trkpt lat="43.35995" lon="6.69298">
        <ele>223.29264831543</ele>
        <time>2012-10-11T12:26:02Z</time>
      </trkpt>
      <trkpt lat="43.35976" lon="6.69302">
        <ele>222.15243530273</ele>
        <time>2012-10-11T12:26:05Z</time>
      </trkpt>
      <trkpt lat="43.35969" lon="6.69301">
        <ele>221.7912902832</ele>
        <time>2012-10-11T12:26:06Z</time>
      </trkpt>
      <trkpt lat="43.35956" lon="6.69302">
        <ele>220.94833374023</ele>
        <time>2012-10-11T12:26:08Z</time>
      </trkpt>
      <trkpt lat="43.35947" lon="6.69304">
        <ele>220.85197448731</ele>
        <time>2012-10-11T12:26:10Z</time>
      </trkpt>
      <trkpt lat="43.35944" lon="6.69305">
        <ele>220.89709472656</ele>
        <time>2012-10-11T12:26:11Z</time>
      </trkpt>
      <trkpt lat="43.35941" lon="6.69307">
        <ele>220.94931030273</ele>
        <time>2012-10-11T12:26:13Z</time>
      </trkpt>
      <trkpt lat="43.3594" lon="6.69307">
        <ele>220.9236907959</ele>
        <time>2012-10-11T12:26:18Z</time>
      </trkpt>
      <trkpt lat="43.3594" lon="6.69307">
        <ele>220.89793395996</ele>
        <time>2012-10-11T12:26:20Z</time>
      </trkpt>
      <trkpt lat="43.35941" lon="6.69306">
        <ele>220.8836517334</ele>
        <time>2012-10-11T12:35:28Z</time>
      </trkpt>
      <trkpt lat="43.35939" lon="6.69308">
        <ele>220.91835021973</ele>
        <time>2012-10-11T12:35:38Z</time>
      </trkpt>
      <trkpt lat="43.35928" lon="6.69314">
        <ele>220.86511230469</ele>
        <time>2012-10-11T12:36:05Z</time>
      </trkpt>
      <trkpt lat="43.35916" lon="6.69319">
        <ele>220.74464416504</ele>
        <time>2012-10-11T12:36:07Z</time>
      </trkpt>
      <trkpt lat="43.35901" lon="6.69321">
        <ele>218.14610290527</ele>
        <time>2012-10-11T12:36:09Z</time>
      </trkpt>
      <trkpt lat="43.35893" lon="6.69325">
        <ele>217.83146667481</ele>
        <time>2012-10-11T12:36:10Z</time>
      </trkpt>
      <trkpt lat="43.35879" lon="6.69338">
        <ele>214.05589294434</ele>
        <time>2012-10-11T12:36:12Z</time>
      </trkpt>
      <trkpt lat="43.35843" lon="6.69368">
        <ele>205.47640991211</ele>
        <time>2012-10-11T12:36:17Z</time>
      </trkpt>
      <trkpt lat="43.35825" lon="6.69408">
        <ele>203.10510253906</ele>
        <time>2012-10-11T12:36:21Z</time>
      </trkpt>
      <trkpt lat="43.35822" lon="6.69419">
        <ele>202.96784973144</ele>
        <time>2012-10-11T12:36:22Z</time>
      </trkpt>
      <trkpt lat="43.35818" lon="6.69431">
        <ele>202.5891418457</ele>
        <time>2012-10-11T12:36:23Z</time>
      </trkpt>
      <trkpt lat="43.35809" lon="6.69454">
        <ele>202.271484375</ele>
        <time>2012-10-11T12:36:25Z</time>
      </trkpt>
      <trkpt lat="43.35805" lon="6.69464">
        <ele>201.955078125</ele>
        <time>2012-10-11T12:36:26Z</time>
      </trkpt>
      <trkpt lat="43.35802" lon="6.69473">
        <ele>201.75241088867</ele>
        <time>2012-10-11T12:36:27Z</time>
      </trkpt>
      <trkpt lat="43.35798" lon="6.69491">
        <ele>201.65383911133</ele>
        <time>2012-10-11T12:36:29Z</time>
      </trkpt>
      <trkpt lat="43.35796" lon="6.695">
        <ele>201.63542175293</ele>
        <time>2012-10-11T12:36:30Z</time>
      </trkpt>
      <trkpt lat="43.35794" lon="6.69509">
        <ele>201.05529785156</ele>
        <time>2012-10-11T12:36:32Z</time>
      </trkpt>
      <trkpt lat="43.35798" lon="6.69525">
        <ele>200.18547058106</ele>
        <time>2012-10-11T12:36:35Z</time>
      </trkpt>
      <trkpt lat="43.35798" lon="6.69542">
        <ele>200</ele>
        <time>2012-10-11T12:36:37Z</time>
      </trkpt>
      <trkpt lat="43.35799" lon="6.69547">
        <ele>200</ele>
        <time>2012-10-11T12:36:38Z</time>
      </trkpt>
      <trkpt lat="43.35798" lon="6.69566">
        <ele>200</ele>
        <time>2012-10-11T12:36:41Z</time>
      </trkpt>
      <trkpt lat="43.35792" lon="6.69579">
        <ele>200</ele>
        <time>2012-10-11T12:36:43Z</time>
      </trkpt>
      <trkpt lat="43.35789" lon="6.69596">
        <ele>200</ele>
        <time>2012-10-11T12:36:45Z</time>
      </trkpt>
      <trkpt lat="43.35777" lon="6.69622">
        <ele>200</ele>
        <time>2012-10-11T12:36:48Z</time>
      </trkpt>
      <trkpt lat="43.35773" lon="6.6963">
        <ele>200</ele>
        <time>2012-10-11T12:36:49Z</time>
      </trkpt>
      <trkpt lat="43.35769" lon="6.69638">
        <ele>200</ele>
        <time>2012-10-11T12:36:50Z</time>
      </trkpt>
      <trkpt lat="43.35765" lon="6.69658">
        <ele>200</ele>
        <time>2012-10-11T12:36:52Z</time>
      </trkpt>
      <trkpt lat="43.35758" lon="6.69717">
        <ele>196.71151733398</ele>
        <time>2012-10-11T12:36:58Z</time>
      </trkpt>
      <trkpt lat="43.35743" lon="6.69733">
        <ele>196.4987487793</ele>
        <time>2012-10-11T12:37:01Z</time>
      </trkpt>
      <trkpt lat="43.35732" lon="6.69727">
        <ele>198.77578735352</ele>
        <time>2012-10-11T12:37:03Z</time>
      </trkpt>
      <trkpt lat="43.35712" lon="6.69725">
        <ele>199.8807220459</ele>
        <time>2012-10-11T12:37:06Z</time>
      </trkpt>
      <trkpt lat="43.35696" lon="6.69739">
        <ele>199.91589355469</ele>
        <time>2012-10-11T12:37:09Z</time>
      </trkpt>
      <trkpt lat="43.35692" lon="6.69744">
        <ele>199.92755126953</ele>
        <time>2012-10-11T12:37:10Z</time>
      </trkpt>
      <trkpt lat="43.35672" lon="6.69772">
        <ele>197.2791595459</ele>
        <time>2012-10-11T12:37:15Z</time>
      </trkpt>
      <trkpt lat="43.35669" lon="6.69779">
        <ele>196.83921813965</ele>
        <time>2012-10-11T12:37:16Z</time>
      </trkpt>
      <trkpt lat="43.35656" lon="6.6981">
        <ele>195.94186401367</ele>
        <time>2012-10-11T12:37:20Z</time>
      </trkpt>
      <trkpt lat="43.35633" lon="6.69866">
        <ele>193.74090576172</ele>
        <time>2012-10-11T12:37:26Z</time>
      </trkpt>
      <trkpt lat="43.35607" lon="6.69915">
        <ele>181.19744873047</ele>
        <time>2012-10-11T12:37:31Z</time>
      </trkpt>
      <trkpt lat="43.35596" lon="6.69947">
        <ele>176.01113891602</ele>
        <time>2012-10-11T12:37:34Z</time>
      </trkpt>
      <trkpt lat="43.35591" lon="6.6997">
        <ele>173.68975830078</ele>
        <time>2012-10-11T12:37:36Z</time>
      </trkpt>
      <trkpt lat="43.35577" lon="6.70028">
        <ele>171.06134033203</ele>
        <time>2012-10-11T12:37:41Z</time>
      </trkpt>
      <trkpt lat="43.35568" lon="6.70066">
        <ele>171.76475524902</ele>
        <time>2012-10-11T12:37:45Z</time>
      </trkpt>
      <trkpt lat="43.35575" lon="6.70091">
        <ele>178.62054443359</ele>
        <time>2012-10-11T12:37:48Z</time>
      </trkpt>
      <trkpt lat="43.35578" lon="6.70099">
        <ele>180.19192504883</ele>
        <time>2012-10-11T12:37:49Z</time>
      </trkpt>
      <trkpt lat="43.35586" lon="6.70115">
        <ele>182.46951293945</ele>
        <time>2012-10-11T12:37:51Z</time>
      </trkpt>
      <trkpt lat="43.35593" lon="6.7013">
        <ele>183.84297180176</ele>
        <time>2012-10-11T12:37:53Z</time>
      </trkpt>
      <trkpt lat="43.35597" lon="6.70137">
        <ele>184.45945739746</ele>
        <time>2012-10-11T12:37:54Z</time>
      </trkpt>
      <trkpt lat="43.35605" lon="6.70151">
        <ele>185.42512512207</ele>
        <time>2012-10-11T12:37:56Z</time>
      </trkpt>
      <trkpt lat="43.35608" lon="6.7016">
        <ele>185.77091979981</ele>
        <time>2012-10-11T12:37:57Z</time>
      </trkpt>
      <trkpt lat="43.35627" lon="6.70212">
        <ele>185.20845031738</ele>
        <time>2012-10-11T12:38:03Z</time>
      </trkpt>
      <trkpt lat="43.35638" lon="6.70242">
        <ele>184.28201293945</ele>
        <time>2012-10-11T12:38:06Z</time>
      </trkpt>
      <trkpt lat="43.35647" lon="6.70264">
        <ele>183.42895507812</ele>
        <time>2012-10-11T12:38:08Z</time>
      </trkpt>
      <trkpt lat="43.35658" lon="6.70297">
        <ele>181.95751953125</ele>
        <time>2012-10-11T12:38:11Z</time>
      </trkpt>
      <trkpt lat="43.35663" lon="6.70306">
        <ele>181.24757385254</ele>
        <time>2012-10-11T12:38:12Z</time>
      </trkpt>
      <trkpt lat="43.35691" lon="6.7035">
        <ele>179.53079223633</ele>
        <time>2012-10-11T12:38:17Z</time>
      </trkpt>
      <trkpt lat="43.35695" lon="6.7036">
        <ele>178.80686950684</ele>
        <time>2012-10-11T12:38:18Z</time>
      </trkpt>
      <trkpt lat="43.35699" lon="6.70393">
        <ele>175.61297607422</ele>
        <time>2012-10-11T12:38:21Z</time>
      </trkpt>
      <trkpt lat="43.35699" lon="6.70426">
        <ele>174.46430969238</ele>
        <time>2012-10-11T12:38:24Z</time>
      </trkpt>
      <trkpt lat="43.35709" lon="6.70453">
        <ele>171.01626586914</ele>
        <time>2012-10-11T12:38:27Z</time>
      </trkpt>
      <trkpt lat="43.35727" lon="6.70475">
        <ele>166.99249267578</ele>
        <time>2012-10-11T12:38:30Z</time>
      </trkpt>
      <trkpt lat="43.35734" lon="6.70482">
        <ele>165.63954162598</ele>
        <time>2012-10-11T12:38:31Z</time>
      </trkpt>
      <trkpt lat="43.35753" lon="6.70497">
        <ele>162.63429260254</ele>
        <time>2012-10-11T12:38:34Z</time>
      </trkpt>
      <trkpt lat="43.3578" lon="6.70497">
        <ele>159.67037963867</ele>
        <time>2012-10-11T12:38:37Z</time>
      </trkpt>
      <trkpt lat="43.35806" lon="6.70516">
        <ele>158.09916687012</ele>
        <time>2012-10-11T12:38:40Z</time>
      </trkpt>
      <trkpt lat="43.35833" lon="6.70543">
        <ele>154.05865478516</ele>
        <time>2012-10-11T12:38:44Z</time>
      </trkpt>
      <trkpt lat="43.35846" lon="6.70553">
        <ele>153.08526611328</ele>
        <time>2012-10-11T12:38:46Z</time>
      </trkpt>
      <trkpt lat="43.35859" lon="6.70567">
        <ele>151.37084960938</ele>
        <time>2012-10-11T12:38:48Z</time>
      </trkpt>
      <trkpt lat="43.35871" lon="6.70575">
        <ele>149.61303710938</ele>
        <time>2012-10-11T12:38:50Z</time>
      </trkpt>
      <trkpt lat="43.35878" lon="6.70575">
        <ele>148.62426757812</ele>
        <time>2012-10-11T12:38:51Z</time>
      </trkpt>
      <trkpt lat="43.359" lon="6.70573">
        <ele>144.91046142578</ele>
        <time>2012-10-11T12:38:54Z</time>
      </trkpt>
      <trkpt lat="43.35906" lon="6.70584">
        <ele>143.95985412598</ele>
        <time>2012-10-11T12:38:56Z</time>
      </trkpt>
      <trkpt lat="43.35909" lon="6.7059">
        <ele>143.5166015625</ele>
        <time>2012-10-11T12:38:57Z</time>
      </trkpt>
      <trkpt lat="43.35914" lon="6.70596">
        <ele>142.84918212891</ele>
        <time>2012-10-11T12:38:58Z</time>
      </trkpt>
      <trkpt lat="43.35926" lon="6.706">
        <ele>141.03910827637</ele>
        <time>2012-10-11T12:39:00Z</time>
      </trkpt>
      <trkpt lat="43.35939" lon="6.70588">
        <ele>138.81584167481</ele>
        <time>2012-10-11T12:39:02Z</time>
      </trkpt>
      <trkpt lat="43.35944" lon="6.70583">
        <ele>138.01123046875</ele>
        <time>2012-10-11T12:39:03Z</time>
      </trkpt>
      <trkpt lat="43.3595" lon="6.70581">
        <ele>136.2646484375</ele>
        <time>2012-10-11T12:39:04Z</time>
      </trkpt>
      <trkpt lat="43.35963" lon="6.70581">
        <ele>132.7490234375</ele>
        <time>2012-10-11T12:39:06Z</time>
      </trkpt>
      <trkpt lat="43.3597" lon="6.70597">
        <ele>131.00439453125</ele>
        <time>2012-10-11T12:39:09Z</time>
      </trkpt>
      <trkpt lat="43.35974" lon="6.70618">
        <ele>129.89115905762</ele>
        <time>2012-10-11T12:39:12Z</time>
      </trkpt>
      <trkpt lat="43.35991" lon="6.70624">
        <ele>125.67858886719</ele>
        <time>2012-10-11T12:39:15Z</time>
      </trkpt>
      <trkpt lat="43.36012" lon="6.70636">
        <ele>120.93256378174</ele>
        <time>2012-10-11T12:39:18Z</time>
      </trkpt>
      <trkpt lat="43.36021" lon="6.70637">
        <ele>119.85661315918</ele>
        <time>2012-10-11T12:39:19Z</time>
      </trkpt>
      <trkpt lat="43.36043" lon="6.70631">
        <ele>114.18601226807</ele>
        <time>2012-10-11T12:39:22Z</time>
      </trkpt>
      <trkpt lat="43.3605" lon="6.70632">
        <ele>111.63510131836</ele>
        <time>2012-10-11T12:39:23Z</time>
      </trkpt>
      <trkpt lat="43.36066" lon="6.7064">
        <ele>106.6509475708</ele>
        <time>2012-10-11T12:39:25Z</time>
      </trkpt>
      <trkpt lat="43.36107" lon="6.70662">
        <ele>101.17862701416</ele>
        <time>2012-10-11T12:39:30Z</time>
      </trkpt>
      <trkpt lat="43.3613" lon="6.70676">
        <ele>93.81477355957</ele>
        <time>2012-10-11T12:39:33Z</time>
      </trkpt>
      <trkpt lat="43.36137" lon="6.70682">
        <ele>91.272468566895</ele>
        <time>2012-10-11T12:39:34Z</time>
      </trkpt>
      <trkpt lat="43.36165" lon="6.70701">
        <ele>82.388473510742</ele>
        <time>2012-10-11T12:39:38Z</time>
      </trkpt>
      <trkpt lat="43.36177" lon="6.70718">
        <ele>78.515335083008</ele>
        <time>2012-10-11T12:39:41Z</time>
      </trkpt>
      <trkpt lat="43.36179" lon="6.70724">
        <ele>77.59391784668</ele>
        <time>2012-10-11T12:39:42Z</time>
      </trkpt>
      <trkpt lat="43.36192" lon="6.70757">
        <ele>70.526222229004</ele>
        <time>2012-10-11T12:39:46Z</time>
      </trkpt>
      <trkpt lat="43.36212" lon="6.70794">
        <ele>64.01309967041</ele>
        <time>2012-10-11T12:39:50Z</time>
      </trkpt>
      <trkpt lat="43.36217" lon="6.70803">
        <ele>62.772815704346</ele>
        <time>2012-10-11T12:39:51Z</time>
      </trkpt>
      <trkpt lat="43.36229" lon="6.70821">
        <ele>61.083770751953</ele>
        <time>2012-10-11T12:39:53Z</time>
      </trkpt>
      <trkpt lat="43.36244" lon="6.70835">
        <ele>60.20630645752</ele>
        <time>2012-10-11T12:39:55Z</time>
      </trkpt>
      <trkpt lat="43.36264" lon="6.70861">
        <ele>60</ele>
        <time>2012-10-11T12:39:58Z</time>
      </trkpt>
      <trkpt lat="43.36269" lon="6.7087">
        <ele>60</ele>
        <time>2012-10-11T12:39:59Z</time>
      </trkpt>
      <trkpt lat="43.36288" lon="6.709">
        <ele>59.498096466064</ele>
        <time>2012-10-11T12:40:03Z</time>
      </trkpt>
      <trkpt lat="43.36292" lon="6.70908">
        <ele>59.296192169189</ele>
        <time>2012-10-11T12:40:04Z</time>
      </trkpt>
      <trkpt lat="43.36296" lon="6.70915">
        <ele>59.356857299805</ele>
        <time>2012-10-11T12:40:05Z</time>
      </trkpt>
      <trkpt lat="43.36306" lon="6.70923">
        <ele>59.097175598145</ele>
        <time>2012-10-11T12:40:07Z</time>
      </trkpt>
      <trkpt lat="43.36314" lon="6.70915">
        <ele>60</ele>
        <time>2012-10-11T12:40:10Z</time>
      </trkpt>
      <trkpt lat="43.36328" lon="6.70899">
        <ele>60</ele>
        <time>2012-10-11T12:40:13Z</time>
      </trkpt>
      <trkpt lat="43.36331" lon="6.70895">
        <ele>60</ele>
        <time>2012-10-11T12:40:14Z</time>
      </trkpt>
      <trkpt lat="43.36338" lon="6.70887">
        <ele>60</ele>
        <time>2012-10-11T12:40:16Z</time>
      </trkpt>
      <trkpt lat="43.3634" lon="6.70865">
        <ele>60</ele>
        <time>2012-10-11T12:40:19Z</time>
      </trkpt>
      <trkpt lat="43.36338" lon="6.70846">
        <ele>59.818836212158</ele>
        <time>2012-10-11T12:40:21Z</time>
      </trkpt>
      <trkpt lat="43.36336" lon="6.70829">
        <ele>59.74967956543</ele>
        <time>2012-10-11T12:40:23Z</time>
      </trkpt>
      <trkpt lat="43.36332" lon="6.70823">
        <ele>60</ele>
        <time>2012-10-11T12:40:26Z</time>
      </trkpt>
      <trkpt lat="43.36338" lon="6.70817">
        <ele>59.135189056396</ele>
        <time>2012-10-11T12:40:28Z</time>
      </trkpt>
      <trkpt lat="43.36343" lon="6.70816">
        <ele>57.971351623535</ele>
        <time>2012-10-11T12:40:29Z</time>
      </trkpt>
      <trkpt lat="43.36358" lon="6.70831">
        <ele>57.771522521973</ele>
        <time>2012-10-11T12:40:32Z</time>
      </trkpt>
      <trkpt lat="43.36363" lon="6.70837">
        <ele>57.941669464111</ele>
        <time>2012-10-11T12:40:33Z</time>
      </trkpt>
      <trkpt lat="43.36368" lon="6.70844">
        <ele>57.409286499023</ele>
        <time>2012-10-11T12:40:34Z</time>
      </trkpt>
      <trkpt lat="43.36374" lon="6.70851">
        <ele>57.019115447998</ele>
        <time>2012-10-11T12:40:35Z</time>
      </trkpt>
      <trkpt lat="43.36387" lon="6.70865">
        <ele>56.751209259033</ele>
        <time>2012-10-11T12:40:37Z</time>
      </trkpt>
      <trkpt lat="43.36403" lon="6.70871">
        <ele>54.999172210693</ele>
        <time>2012-10-11T12:40:39Z</time>
      </trkpt>
      <trkpt lat="43.36421" lon="6.70875">
        <ele>51.920272827148</ele>
        <time>2012-10-11T12:40:41Z</time>
      </trkpt>
      <trkpt lat="43.36434" lon="6.70876">
        <ele>48.634674072266</ele>
        <time>2012-10-11T12:40:43Z</time>
      </trkpt>
      <trkpt lat="43.36448" lon="6.70867">
        <ele>44.683029174805</ele>
        <time>2012-10-11T12:40:46Z</time>
      </trkpt>
      <trkpt lat="43.36445" lon="6.70848">
        <ele>43.474067687988</ele>
        <time>2012-10-11T12:40:48Z</time>
      </trkpt>
      <trkpt lat="43.36444" lon="6.70817">
        <ele>40.818218231201</ele>
        <time>2012-10-11T12:40:51Z</time>
      </trkpt>
      <trkpt lat="43.36445" lon="6.70794">
        <ele>37.42894744873</ele>
        <time>2012-10-11T12:40:53Z</time>
      </trkpt>
      <trkpt lat="43.36451" lon="6.70751">
        <ele>23.905302047729</ele>
        <time>2012-10-11T12:40:57Z</time>
      </trkpt>
      <trkpt lat="43.36455" lon="6.70743">
        <ele>21.752275466919</ele>
        <time>2012-10-11T12:40:58Z</time>
      </trkpt>
      <trkpt lat="43.36472" lon="6.70735">
        <ele>18.440467834473</ele>
        <time>2012-10-11T12:41:01Z</time>
      </trkpt>
      <trkpt lat="43.36491" lon="6.70741">
        <ele>18.225513458252</ele>
        <time>2012-10-11T12:41:04Z</time>
      </trkpt>
      <trkpt lat="43.365" lon="6.70761">
        <ele>18.811882019043</ele>
        <time>2012-10-11T12:41:07Z</time>
      </trkpt>
      <trkpt lat="43.36502" lon="6.70769">
        <ele>19.243680953979</ele>
        <time>2012-10-11T12:41:08Z</time>
      </trkpt>
      <trkpt lat="43.36503" lon="6.70785">
        <ele>20.523502349854</ele>
        <time>2012-10-11T12:41:10Z</time>
      </trkpt>
      <trkpt lat="43.36505" lon="6.70791">
        <ele>20.795829772949</ele>
        <time>2012-10-11T12:41:11Z</time>
      </trkpt>
      <trkpt lat="43.36514" lon="6.70799">
        <ele>20.160516738892</ele>
        <time>2012-10-11T12:41:13Z</time>
      </trkpt>
      <trkpt lat="43.36525" lon="6.70795">
        <ele>18.33638381958</ele>
        <time>2012-10-11T12:41:15Z</time>
      </trkpt>
      <trkpt lat="43.36544" lon="6.70779">
        <ele>16.801879882812</ele>
        <time>2012-10-11T12:41:18Z</time>
      </trkpt>
      <trkpt lat="43.36558" lon="6.70778">
        <ele>15.920288085938</ele>
        <time>2012-10-11T12:41:20Z</time>
      </trkpt>
      <trkpt lat="43.36561" lon="6.70776">
        <ele>15.80876159668</ele>
        <time>2012-10-11T12:41:21Z</time>
      </trkpt>
      <trkpt lat="43.36564" lon="6.70762">
        <ele>15.868431091309</ele>
        <time>2012-10-11T12:41:24Z</time>
      </trkpt>
      <trkpt lat="43.36565" lon="6.70755">
        <ele>15.933947563171</ele>
        <time>2012-10-11T12:41:25Z</time>
      </trkpt>
      <trkpt lat="43.36567" lon="6.70749">
        <ele>16</ele>
        <time>2012-10-11T12:41:26Z</time>
      </trkpt>
      <trkpt lat="43.36572" lon="6.70739">
        <ele>16</ele>
        <time>2012-10-11T12:41:28Z</time>
      </trkpt>
      <trkpt lat="43.36585" lon="6.70736">
        <ele>15.967024803162</ele>
        <time>2012-10-11T12:41:31Z</time>
      </trkpt>
      <trkpt lat="43.366" lon="6.70748">
        <ele>15.446786880493</ele>
        <time>2012-10-11T12:41:35Z</time>
      </trkpt>
      <trkpt lat="43.36605" lon="6.70758">
        <ele>14.934234619141</ele>
        <time>2012-10-11T12:41:37Z</time>
      </trkpt>
      <trkpt lat="43.36614" lon="6.70772">
        <ele>14.106826782227</ele>
        <time>2012-10-11T12:41:40Z</time>
      </trkpt>
      <trkpt lat="43.36637" lon="6.70797">
        <ele>12.390668869019</ele>
        <time>2012-10-11T12:41:47Z</time>
      </trkpt>
      <trkpt lat="43.36648" lon="6.70807">
        <ele>12.305334091187</ele>
        <time>2012-10-11T12:41:50Z</time>
      </trkpt>
      <trkpt lat="43.36652" lon="6.70817">
        <ele>12.264695167542</ele>
        <time>2012-10-11T12:41:52Z</time>
      </trkpt>
      <trkpt lat="43.3666" lon="6.70842">
        <ele>11.929608345032</ele>
        <time>2012-10-11T12:41:56Z</time>
      </trkpt>
      <trkpt lat="43.36663" lon="6.70847">
        <ele>11.942251205444</ele>
        <time>2012-10-11T12:41:57Z</time>
      </trkpt>
      <trkpt lat="43.36681" lon="6.7086">
        <ele>13.52597618103</ele>
        <time>2012-10-11T12:42:01Z</time>
      </trkpt>
      <trkpt lat="43.36706" lon="6.70871">
        <ele>15.270629882812</ele>
        <time>2012-10-11T12:42:07Z</time>
      </trkpt>
      <trkpt lat="43.3672" lon="6.70877">
        <ele>15.39465713501</ele>
        <time>2012-10-11T12:42:12Z</time>
      </trkpt>
      <trkpt lat="43.36738" lon="6.70884">
        <ele>15.172950744629</ele>
        <time>2012-10-11T12:42:18Z</time>
      </trkpt>
      <trkpt lat="43.36755" lon="6.70894">
        <ele>13.938158035278</ele>
        <time>2012-10-11T12:42:24Z</time>
      </trkpt>
      <trkpt lat="43.36768" lon="6.70918">
        <ele>11.404022216797</ele>
        <time>2012-10-11T12:42:30Z</time>
      </trkpt>
      <trkpt lat="43.36766" lon="6.70928">
        <ele>11.264976501465</ele>
        <time>2012-10-11T12:42:32Z</time>
      </trkpt>
      <trkpt lat="43.36763" lon="6.70933">
        <ele>11.496719360352</ele>
        <time>2012-10-11T12:42:33Z</time>
      </trkpt>
      <trkpt lat="43.36749" lon="6.70941">
        <ele>13.131896972656</ele>
        <time>2012-10-11T12:42:37Z</time>
      </trkpt>
      <trkpt lat="43.36741" lon="6.70943">
        <ele>13.051216125488</ele>
        <time>2012-10-11T12:42:39Z</time>
      </trkpt>
      <trkpt lat="43.36722" lon="6.70948">
        <ele>12.997838973999</ele>
        <time>2012-10-11T12:42:44Z</time>
      </trkpt>
      <trkpt lat="43.36703" lon="6.70962">
        <ele>12.562259674072</ele>
        <time>2012-10-11T12:42:50Z</time>
      </trkpt>
      <trkpt lat="43.367" lon="6.70982">
        <ele>11.845680236816</ele>
        <time>2012-10-11T12:42:54Z</time>
      </trkpt>
      <trkpt lat="43.36705" lon="6.71006">
        <ele>11.162467956543</ele>
        <time>2012-10-11T12:42:59Z</time>
      </trkpt>
      <trkpt lat="43.36711" lon="6.71039">
        <ele>10.341370582581</ele>
        <time>2012-10-11T12:43:06Z</time>
      </trkpt>
      <trkpt lat="43.36707" lon="6.71073">
        <ele>9.3785934448242</ele>
        <time>2012-10-11T12:43:12Z</time>
      </trkpt>
      <trkpt lat="43.36708" lon="6.711">
        <ele>8.4104232788086</ele>
        <time>2012-10-11T12:43:17Z</time>
      </trkpt>
      <trkpt lat="43.3671" lon="6.7114">
        <ele>6.9444351196289</ele>
        <time>2012-10-11T12:43:24Z</time>
      </trkpt>
      <trkpt lat="43.36711" lon="6.71174">
        <ele>5.8896632194519</ele>
        <time>2012-10-11T12:43:30Z</time>
      </trkpt>
      <trkpt lat="43.36712" lon="6.71192">
        <ele>5.6614880561829</ele>
        <time>2012-10-11T12:43:33Z</time>
      </trkpt>
      <trkpt lat="43.36712" lon="6.71209">
        <ele>5.2859406471252</ele>
        <time>2012-10-11T12:43:36Z</time>
      </trkpt>
      <trkpt lat="43.36716" lon="6.7122">
        <ele>5.0489358901978</ele>
        <time>2012-10-11T12:43:38Z</time>
      </trkpt>
      <trkpt lat="43.36716" lon="6.71227">
        <ele>4.8150482177734</ele>
        <time>2012-10-11T12:43:39Z</time>
      </trkpt>
      <trkpt lat="43.36716" lon="6.71239">
        <ele>4.3893280029297</ele>
        <time>2012-10-11T12:43:41Z</time>
      </trkpt>
      <trkpt lat="43.36718" lon="6.7124">
        <ele>4.3652954101562</ele>
        <time>2012-10-11T12:43:44Z</time>
      </trkpt>
      <trkpt lat="43.36719" lon="6.71246">
        <ele>4.1541519165039</ele>
        <time>2012-10-11T12:43:51Z</time>
      </trkpt>
      <trkpt lat="43.3672" lon="6.71251">
        <ele>3.9756240844727</ele>
        <time>2012-10-11T12:43:59Z</time>
      </trkpt>
      <trkpt lat="43.36723" lon="6.71255">
        <ele>3.8176956176758</ele>
        <time>2012-10-11T12:44:15Z</time>
      </trkpt>
      <trkpt lat="43.36726" lon="6.71262">
        <ele>3.5859527587891</ele>
        <time>2012-10-11T12:44:22Z</time>
      </trkpt>
      <trkpt lat="43.36726" lon="6.71266">
        <ele>3.4314575195312</ele>
        <time>2012-10-11T12:44:28Z</time>
      </trkpt>
      <trkpt lat="43.36726" lon="6.71267">
        <ele>3.3868255615234</ele>
        <time>2012-10-11T12:44:42Z</time>
      </trkpt>
      <trkpt lat="43.36725" lon="6.71267">
        <ele>3.3971252441406</ele>
        <time>2012-10-11T12:45:53Z</time>
      </trkpt>
    </trkseg>
  </trk>
</gpx>